<?xml version="1.0" encoding="UTF-8" standalone="no" ?>
<gpx xmlns="http://www.topografix.com/GPX/1/1" xmlns:xsi="http://www.w3.org/2001/XMLSchema-instance" xsi:schemaLocation="http://www.topografix.com/GPX/1/1 http://www.topografix.com/GPX/1/1/gpx.xsd" version="1.1" creator="VisuGPX - https://www.visugpx.com">
  <metadata>
    <name>Vézelay Cluny : Autun - Le Breuil</name>
    <desc><![CDATA[Temps de marche effectif 4 h 48 mn
Temps de marche toutes pauses comprises : 5 h 40]]></desc>
  </metadata>
  <trk>
    <name><![CDATA[Vézelay Cluny : Autun - Le Breuil]]></name>
    <extensions>
      <line xmlns="http://www.topografix.com/GPX/gpx_style/0/2">
        <color>0000FF</color>
        <width>4</width>
      </line>
    </extensions>
    <trkseg>
      <trkpt lat="46.9452" lon="4.29928">
        <ele>367</ele>
        <time>2020-02-18T11:11:05+01:00</time>
      </trkpt>
      <trkpt lat="46.94527" lon="4.29928">
        <ele>366.4</ele>
      </trkpt>
      <trkpt lat="46.94537" lon="4.29962">
        <ele>364.8</ele>
      </trkpt>
      <trkpt lat="46.94548" lon="4.29988">
        <ele>363.3</ele>
        <time>2020-02-18T11:11:05+01:00</time>
      </trkpt>
      <trkpt lat="46.94556" lon="4.30014">
        <ele>361.6</ele>
      </trkpt>
      <trkpt lat="46.94573" lon="4.30032">
        <ele>359.6</ele>
        <time>2020-02-18T11:11:15+01:00</time>
      </trkpt>
      <trkpt lat="46.94591" lon="4.30044">
        <ele>357.9</ele>
        <time>2020-02-18T11:11:20+01:00</time>
      </trkpt>
      <trkpt lat="46.94616" lon="4.30042">
        <ele>356.3</ele>
        <time>2020-02-18T11:11:25+01:00</time>
      </trkpt>
      <trkpt lat="46.94621" lon="4.3006">
        <ele>355.4</ele>
      </trkpt>
      <trkpt lat="46.94613" lon="4.3009">
        <ele>354.7</ele>
        <time>2020-02-18T11:11:35+01:00</time>
      </trkpt>
      <trkpt lat="46.94606" lon="4.30121">
        <ele>352.5</ele>
        <time>2020-02-18T11:11:40+01:00</time>
      </trkpt>
      <trkpt lat="46.94581" lon="4.3017">
        <ele>349.9</ele>
        <time>2020-02-18T11:11:45+01:00</time>
      </trkpt>
      <trkpt lat="46.9457" lon="4.30203">
        <ele>346.8</ele>
        <time>2020-02-18T11:11:55+01:00</time>
      </trkpt>
      <trkpt lat="46.94577" lon="4.30223">
        <ele>344.7</ele>
        <time>2020-02-18T11:12:05+01:00</time>
      </trkpt>
      <trkpt lat="46.94581" lon="4.30249">
        <ele>342</ele>
        <time>2020-02-18T11:12:20+01:00</time>
      </trkpt>
      <trkpt lat="46.94589" lon="4.30278">
        <ele>340</ele>
        <time>2020-02-18T11:12:25+01:00</time>
      </trkpt>
      <trkpt lat="46.94591" lon="4.30307">
        <ele>337.9</ele>
        <time>2020-02-18T11:12:30+01:00</time>
      </trkpt>
      <trkpt lat="46.94599" lon="4.30334">
        <ele>335.9</ele>
        <time>2020-02-18T11:12:35+01:00</time>
      </trkpt>
      <trkpt lat="46.94609" lon="4.30343">
        <ele>335.2</ele>
        <time>2020-02-18T11:12:40+01:00</time>
      </trkpt>
      <trkpt lat="46.94618" lon="4.30355">
        <ele>334.4</ele>
        <time>2020-02-18T11:12:45+01:00</time>
      </trkpt>
      <trkpt lat="46.94601" lon="4.30374">
        <ele>332.8</ele>
        <time>2020-02-18T11:12:50+01:00</time>
      </trkpt>
      <trkpt lat="46.94582" lon="4.30401">
        <ele>330.3</ele>
        <time>2020-02-18T11:13:00+01:00</time>
      </trkpt>
      <trkpt lat="46.94557" lon="4.30415">
        <ele>328.2</ele>
        <time>2020-02-18T11:13:15+01:00</time>
      </trkpt>
      <trkpt lat="46.94527" lon="4.30449">
        <ele>326</ele>
        <time>2020-02-18T11:13:25+01:00</time>
      </trkpt>
      <trkpt lat="46.9451" lon="4.30465">
        <ele>325.4</ele>
        <time>2020-02-18T11:13:30+01:00</time>
      </trkpt>
      <trkpt lat="46.94493" lon="4.30485">
        <ele>325.6</ele>
        <time>2020-02-18T11:14:05+01:00</time>
      </trkpt>
      <trkpt lat="46.94468" lon="4.30515">
        <ele>327.6</ele>
        <time>2020-02-18T11:14:15+01:00</time>
      </trkpt>
      <trkpt lat="46.94448" lon="4.3054">
        <ele>329.7</ele>
        <time>2020-02-18T11:14:50+01:00</time>
      </trkpt>
      <trkpt lat="46.94433" lon="4.30551">
        <ele>331.1</ele>
        <time>2020-02-18T11:14:55+01:00</time>
      </trkpt>
      <trkpt lat="46.94405" lon="4.30593">
        <ele>334.3</ele>
        <time>2020-02-18T11:15:00+01:00</time>
      </trkpt>
      <trkpt lat="46.94384" lon="4.30604">
        <ele>336.4</ele>
        <time>2020-02-18T11:15:05+01:00</time>
      </trkpt>
      <trkpt lat="46.9436" lon="4.30639">
        <ele>339.3</ele>
        <time>2020-02-18T11:15:15+01:00</time>
      </trkpt>
      <trkpt lat="46.9435" lon="4.3064">
        <ele>340.1</ele>
        <time>2020-02-18T11:15:30+01:00</time>
      </trkpt>
      <trkpt lat="46.94333" lon="4.30676">
        <ele>344.2002</ele>
        <time>2020-02-18T11:15:35+01:00</time>
      </trkpt>
      <trkpt lat="46.94328" lon="4.30682">
        <ele>344.6006</ele>
        <time>2020-02-18T11:15:40+01:00</time>
      </trkpt>
      <trkpt lat="46.94322" lon="4.30687">
        <ele>346.2002</ele>
        <time>2020-02-18T11:15:45+01:00</time>
      </trkpt>
      <trkpt lat="46.94317" lon="4.30693">
        <ele>346.2002</ele>
        <time>2020-02-18T11:15:50+01:00</time>
      </trkpt>
      <trkpt lat="46.94311" lon="4.307">
        <ele>348.2002</ele>
        <time>2020-02-18T11:15:55+01:00</time>
      </trkpt>
      <trkpt lat="46.94305" lon="4.30706">
        <ele>348.2002</ele>
        <time>2020-02-18T11:16:00+01:00</time>
      </trkpt>
      <trkpt lat="46.94298" lon="4.30711">
        <ele>350.1006</ele>
        <time>2020-02-18T11:16:05+01:00</time>
      </trkpt>
      <trkpt lat="46.94273" lon="4.30724">
        <ele>354.2002</ele>
        <time>2020-02-18T11:16:25+01:00</time>
      </trkpt>
      <trkpt lat="46.94266" lon="4.30728">
        <ele>354.2002</ele>
        <time>2020-02-18T11:16:30+01:00</time>
      </trkpt>
      <trkpt lat="46.94259" lon="4.30732">
        <ele>355.7002</ele>
        <time>2020-02-18T11:16:35+01:00</time>
      </trkpt>
      <trkpt lat="46.94253" lon="4.30736">
        <ele>355.7998</ele>
        <time>2020-02-18T11:16:40+01:00</time>
      </trkpt>
      <trkpt lat="46.94239" lon="4.30743">
        <ele>358.5</ele>
        <time>2020-02-18T11:16:50+01:00</time>
      </trkpt>
      <trkpt lat="46.94218" lon="4.30755">
        <ele>360.2002</ele>
        <time>2020-02-18T11:17:05+01:00</time>
      </trkpt>
      <trkpt lat="46.94212" lon="4.30759">
        <ele>361.9004</ele>
        <time>2020-02-18T11:17:10+01:00</time>
      </trkpt>
      <trkpt lat="46.94186" lon="4.30773">
        <ele>365</ele>
        <time>2020-02-18T11:17:30+01:00</time>
      </trkpt>
      <trkpt lat="46.94173" lon="4.3078">
        <ele>366.7002</ele>
        <time>2020-02-18T11:17:40+01:00</time>
      </trkpt>
      <trkpt lat="46.94154" lon="4.30791">
        <ele>369.6006</ele>
        <time>2020-02-18T11:17:55+01:00</time>
      </trkpt>
      <trkpt lat="46.94143" lon="4.30801">
        <ele>371.5</ele>
        <time>2020-02-18T11:18:05+01:00</time>
      </trkpt>
      <trkpt lat="46.94137" lon="4.30805">
        <ele>371.2998</ele>
        <time>2020-02-18T11:18:10+01:00</time>
      </trkpt>
      <trkpt lat="46.94132" lon="4.3081">
        <ele>373.2998</ele>
        <time>2020-02-18T11:18:15+01:00</time>
      </trkpt>
      <trkpt lat="46.94122" lon="4.3082">
        <ele>375.2002</ele>
        <time>2020-02-18T11:18:25+01:00</time>
      </trkpt>
      <trkpt lat="46.94118" lon="4.30826">
        <ele>375.2002</ele>
        <time>2020-02-18T11:18:30+01:00</time>
      </trkpt>
      <trkpt lat="46.94108" lon="4.30838">
        <ele>377.4004</ele>
        <time>2020-02-18T11:18:40+01:00</time>
      </trkpt>
      <trkpt lat="46.94093" lon="4.30854">
        <ele>380</ele>
        <time>2020-02-18T11:18:55+01:00</time>
      </trkpt>
      <trkpt lat="46.94075" lon="4.30891">
        <ele>385.2</ele>
      </trkpt>
      <trkpt lat="46.94068" lon="4.30933">
        <ele>387.2998</ele>
        <time>2020-02-18T11:19:40+01:00</time>
      </trkpt>
      <trkpt lat="46.94067" lon="4.30941">
        <ele>388.2002</ele>
        <time>2020-02-18T11:19:45+01:00</time>
      </trkpt>
      <trkpt lat="46.94062" lon="4.30992">
        <ele>393.6006</ele>
        <time>2020-02-18T11:20:10+01:00</time>
      </trkpt>
      <trkpt lat="46.94062" lon="4.31002">
        <ele>393.6006</ele>
        <time>2020-02-18T11:20:15+01:00</time>
      </trkpt>
      <trkpt lat="46.94062" lon="4.31013">
        <ele>394.6006</ele>
        <time>2020-02-18T11:20:20+01:00</time>
      </trkpt>
      <trkpt lat="46.94061" lon="4.31023">
        <ele>394.6006</ele>
        <time>2020-02-18T11:20:25+01:00</time>
      </trkpt>
      <trkpt lat="46.94056" lon="4.31063">
        <ele>398.5</ele>
        <time>2020-02-18T11:20:45+01:00</time>
      </trkpt>
      <trkpt lat="46.94055" lon="4.31071">
        <ele>398.5</ele>
        <time>2020-02-18T11:20:50+01:00</time>
      </trkpt>
      <trkpt lat="46.94052" lon="4.31093">
        <ele>402.7998</ele>
        <time>2020-02-18T11:21:00+01:00</time>
      </trkpt>
      <trkpt lat="46.94051" lon="4.31105">
        <ele>404</ele>
        <time>2020-02-18T11:21:05+01:00</time>
      </trkpt>
      <trkpt lat="46.94052" lon="4.31124">
        <ele>405.4004</ele>
        <time>2020-02-18T11:21:15+01:00</time>
      </trkpt>
      <trkpt lat="46.94054" lon="4.31135">
        <ele>404.1006</ele>
        <time>2020-02-18T11:21:20+01:00</time>
      </trkpt>
      <trkpt lat="46.94054" lon="4.31144">
        <ele>404.1006</ele>
        <time>2020-02-18T11:21:25+01:00</time>
      </trkpt>
      <trkpt lat="46.94055" lon="4.31155">
        <ele>405.7002</ele>
        <time>2020-02-18T11:21:30+01:00</time>
      </trkpt>
      <trkpt lat="46.94058" lon="4.31184">
        <ele>409</ele>
        <time>2020-02-18T11:21:45+01:00</time>
      </trkpt>
      <trkpt lat="46.94057" lon="4.31223">
        <ele>412.6006</ele>
        <time>2020-02-18T11:22:05+01:00</time>
      </trkpt>
      <trkpt lat="46.94059" lon="4.31242">
        <ele>414.2998</ele>
        <time>2020-02-18T11:22:15+01:00</time>
      </trkpt>
      <trkpt lat="46.94059" lon="4.3125">
        <ele>415.5</ele>
        <time>2020-02-18T11:22:20+01:00</time>
      </trkpt>
      <trkpt lat="46.9406" lon="4.3126">
        <ele>415.5</ele>
        <time>2020-02-18T11:22:25+01:00</time>
      </trkpt>
      <trkpt lat="46.94059" lon="4.3128">
        <ele>416.4004</ele>
        <time>2020-02-18T11:22:35+01:00</time>
      </trkpt>
      <trkpt lat="46.9406" lon="4.31289">
        <ele>416.9004</ele>
        <time>2020-02-18T11:22:40+01:00</time>
      </trkpt>
      <trkpt lat="46.94061" lon="4.31323">
        <ele>418</ele>
        <time>2020-02-18T11:22:55+01:00</time>
      </trkpt>
      <trkpt lat="46.94061" lon="4.31346">
        <ele>418.4004</ele>
        <time>2020-02-18T11:23:05+01:00</time>
      </trkpt>
      <trkpt lat="46.94059" lon="4.31356">
        <ele>418.7002</ele>
        <time>2020-02-18T11:23:10+01:00</time>
      </trkpt>
      <trkpt lat="46.94059" lon="4.31366">
        <ele>418.7002</ele>
        <time>2020-02-18T11:23:15+01:00</time>
      </trkpt>
      <trkpt lat="46.94057" lon="4.31377">
        <ele>418.9004</ele>
        <time>2020-02-18T11:23:20+01:00</time>
      </trkpt>
      <trkpt lat="46.94055" lon="4.31388">
        <ele>419.2002</ele>
        <time>2020-02-18T11:23:25+01:00</time>
      </trkpt>
      <trkpt lat="46.9405" lon="4.31414">
        <ele>422.5</ele>
        <time>2020-02-18T11:23:40+01:00</time>
      </trkpt>
      <trkpt lat="46.94047" lon="4.31422">
        <ele>422.6006</ele>
        <time>2020-02-18T11:23:45+01:00</time>
      </trkpt>
      <trkpt lat="46.94045" lon="4.3144">
        <ele>422.7998</ele>
        <time>2020-02-18T11:23:55+01:00</time>
      </trkpt>
      <trkpt lat="46.94044" lon="4.31449">
        <ele>422.7998</ele>
        <time>2020-02-18T11:24:00+01:00</time>
      </trkpt>
      <trkpt lat="46.94041" lon="4.31459">
        <ele>426.4004</ele>
        <time>2020-02-18T11:24:05+01:00</time>
      </trkpt>
      <trkpt lat="46.9404" lon="4.3147">
        <ele>426.4004</ele>
        <time>2020-02-18T11:24:10+01:00</time>
      </trkpt>
      <trkpt lat="46.94039" lon="4.31481">
        <ele>426.4004</ele>
        <time>2020-02-18T11:24:15+01:00</time>
      </trkpt>
      <trkpt lat="46.94031" lon="4.31509">
        <ele>425.5</ele>
        <time>2020-02-18T11:24:30+01:00</time>
      </trkpt>
      <trkpt lat="46.94026" lon="4.31516">
        <ele>428.9004</ele>
        <time>2020-02-18T11:24:35+01:00</time>
      </trkpt>
      <trkpt lat="46.94019" lon="4.31533">
        <ele>428.2002</ele>
        <time>2020-02-18T11:24:45+01:00</time>
      </trkpt>
      <trkpt lat="46.94016" lon="4.31542">
        <ele>430.6006</ele>
        <time>2020-02-18T11:24:50+01:00</time>
      </trkpt>
      <trkpt lat="46.94009" lon="4.31567">
        <ele>429.2998</ele>
        <time>2020-02-18T11:25:05+01:00</time>
      </trkpt>
      <trkpt lat="46.94005" lon="4.31575">
        <ele>431.4004</ele>
        <time>2020-02-18T11:25:10+01:00</time>
      </trkpt>
      <trkpt lat="46.94003" lon="4.31586">
        <ele>431.4004</ele>
        <time>2020-02-18T11:25:15+01:00</time>
      </trkpt>
      <trkpt lat="46.93994" lon="4.31621">
        <ele>431.7998</ele>
        <time>2020-02-18T11:25:30+01:00</time>
      </trkpt>
      <trkpt lat="46.93991" lon="4.31632">
        <ele>430</ele>
        <time>2020-02-18T11:25:35+01:00</time>
      </trkpt>
      <trkpt lat="46.93988" lon="4.31642">
        <ele>430</ele>
        <time>2020-02-18T11:25:40+01:00</time>
      </trkpt>
      <trkpt lat="46.93984" lon="4.31652">
        <ele>428.2002</ele>
        <time>2020-02-18T11:25:45+01:00</time>
      </trkpt>
      <trkpt lat="46.93982" lon="4.31663">
        <ele>429.5</ele>
        <time>2020-02-18T11:25:50+01:00</time>
      </trkpt>
      <trkpt lat="46.93973" lon="4.31679">
        <ele>427.1006</ele>
        <time>2020-02-18T11:26:00+01:00</time>
      </trkpt>
      <trkpt lat="46.93968" lon="4.31687">
        <ele>429.9004</ele>
        <time>2020-02-18T11:26:05+01:00</time>
      </trkpt>
      <trkpt lat="46.93946" lon="4.31729">
        <ele>426.1006</ele>
        <time>2020-02-18T11:26:30+01:00</time>
      </trkpt>
      <trkpt lat="46.9394" lon="4.31735">
        <ele>426.1006</ele>
        <time>2020-02-18T11:26:35+01:00</time>
      </trkpt>
      <trkpt lat="46.93927" lon="4.31745">
        <ele>428.2998</ele>
        <time>2020-02-18T11:26:45+01:00</time>
      </trkpt>
      <trkpt lat="46.93921" lon="4.31748">
        <ele>426.4004</ele>
        <time>2020-02-18T11:26:50+01:00</time>
      </trkpt>
      <trkpt lat="46.93915" lon="4.3175">
        <ele>426.4004</ele>
        <time>2020-02-18T11:26:55+01:00</time>
      </trkpt>
      <trkpt lat="46.93908" lon="4.31752">
        <ele>428.2998</ele>
        <time>2020-02-18T11:27:00+01:00</time>
      </trkpt>
      <trkpt lat="46.93886" lon="4.31748">
        <ele>432.2002</ele>
        <time>2020-02-18T11:27:15+01:00</time>
      </trkpt>
      <trkpt lat="46.93864" lon="4.31741">
        <ele>439.7998</ele>
        <time>2020-02-18T11:27:30+01:00</time>
      </trkpt>
      <trkpt lat="46.93857" lon="4.31738">
        <ele>439.7998</ele>
        <time>2020-02-18T11:27:35+01:00</time>
      </trkpt>
      <trkpt lat="46.93842" lon="4.31734">
        <ele>442.6006</ele>
        <time>2020-02-18T11:27:45+01:00</time>
      </trkpt>
      <trkpt lat="46.93827" lon="4.31728">
        <ele>447.5</ele>
        <time>2020-02-18T11:27:55+01:00</time>
      </trkpt>
      <trkpt lat="46.93805" lon="4.31718">
        <ele>449.1006</ele>
        <time>2020-02-18T11:28:10+01:00</time>
      </trkpt>
      <trkpt lat="46.93798" lon="4.31714">
        <ele>449.1006</ele>
        <time>2020-02-18T11:28:15+01:00</time>
      </trkpt>
      <trkpt lat="46.93777" lon="4.31703">
        <ele>454.1006</ele>
        <time>2020-02-18T11:28:30+01:00</time>
      </trkpt>
      <trkpt lat="46.93768" lon="4.31701">
        <ele>454.4004</ele>
        <time>2020-02-18T11:28:35+01:00</time>
      </trkpt>
      <trkpt lat="46.93733" lon="4.31686">
        <ele>459.9004</ele>
        <time>2020-02-18T11:29:00+01:00</time>
      </trkpt>
      <trkpt lat="46.93725" lon="4.31682">
        <ele>460.7998</ele>
        <time>2020-02-18T11:29:05+01:00</time>
      </trkpt>
      <trkpt lat="46.93714" lon="4.31674">
        <ele>464.5</ele>
        <time>2020-02-18T11:29:15+01:00</time>
      </trkpt>
      <trkpt lat="46.93699" lon="4.31668">
        <ele>466.1006</ele>
        <time>2020-02-18T11:29:25+01:00</time>
      </trkpt>
      <trkpt lat="46.93677" lon="4.31663">
        <ele>468.6006</ele>
        <time>2020-02-18T11:29:40+01:00</time>
      </trkpt>
      <trkpt lat="46.93655" lon="4.3166">
        <ele>473.4004</ele>
        <time>2020-02-18T11:29:55+01:00</time>
      </trkpt>
      <trkpt lat="46.93638" lon="4.31659">
        <ele>476.5</ele>
        <time>2020-02-18T11:30:05+01:00</time>
      </trkpt>
      <trkpt lat="46.93629" lon="4.31661">
        <ele>475.5</ele>
        <time>2020-02-18T11:30:10+01:00</time>
      </trkpt>
      <trkpt lat="46.93614" lon="4.31676">
        <ele>477.4004</ele>
        <time>2020-02-18T11:30:20+01:00</time>
      </trkpt>
      <trkpt lat="46.9361" lon="4.31684">
        <ele>475</ele>
        <time>2020-02-18T11:30:25+01:00</time>
      </trkpt>
      <trkpt lat="46.93607" lon="4.31694">
        <ele>477.2002</ele>
        <time>2020-02-18T11:30:30+01:00</time>
      </trkpt>
      <trkpt lat="46.93606" lon="4.31703">
        <ele>475.4004</ele>
        <time>2020-02-18T11:30:35+01:00</time>
      </trkpt>
      <trkpt lat="46.93606" lon="4.31712">
        <ele>474.2002</ele>
        <time>2020-02-18T11:30:40+01:00</time>
      </trkpt>
      <trkpt lat="46.93606" lon="4.31719">
        <ele>474.2002</ele>
        <time>2020-02-18T11:30:45+01:00</time>
      </trkpt>
      <trkpt lat="46.93613" lon="4.3174">
        <ele>470.9004</ele>
        <time>2020-02-18T11:30:55+01:00</time>
      </trkpt>
      <trkpt lat="46.93619" lon="4.31753">
        <ele>470.5</ele>
        <time>2020-02-18T11:31:00+01:00</time>
      </trkpt>
      <trkpt lat="46.93624" lon="4.31764">
        <ele>467.1006</ele>
        <time>2020-02-18T11:31:05+01:00</time>
      </trkpt>
      <trkpt lat="46.93628" lon="4.31773">
        <ele>467.1006</ele>
        <time>2020-02-18T11:31:10+01:00</time>
      </trkpt>
      <trkpt lat="46.93632" lon="4.31782">
        <ele>463.6006</ele>
        <time>2020-02-18T11:31:15+01:00</time>
      </trkpt>
      <trkpt lat="46.93636" lon="4.31789">
        <ele>463.6006</ele>
        <time>2020-02-18T11:31:20+01:00</time>
      </trkpt>
      <trkpt lat="46.93655" lon="4.31823">
        <ele>460.9</ele>
        <time>2020-02-18T11:31:40+01:00</time>
      </trkpt>
      <trkpt lat="46.93667" lon="4.31845">
        <ele>456.2998</ele>
        <time>2020-02-18T11:31:50+01:00</time>
      </trkpt>
      <trkpt lat="46.93667" lon="4.31856">
        <ele>456</ele>
        <time>2020-02-18T11:31:55+01:00</time>
      </trkpt>
      <trkpt lat="46.93664" lon="4.31867">
        <ele>455.6006</ele>
        <time>2020-02-18T11:32:00+01:00</time>
      </trkpt>
      <trkpt lat="46.9366" lon="4.31878">
        <ele>455.6006</ele>
        <time>2020-02-18T11:32:05+01:00</time>
      </trkpt>
      <trkpt lat="46.93653" lon="4.31897">
        <ele>459.5</ele>
        <time>2020-02-18T11:32:15+01:00</time>
      </trkpt>
      <trkpt lat="46.93649" lon="4.31906">
        <ele>459</ele>
        <time>2020-02-18T11:32:20+01:00</time>
      </trkpt>
      <trkpt lat="46.93646" lon="4.31915">
        <ele>459</ele>
        <time>2020-02-18T11:32:25+01:00</time>
      </trkpt>
      <trkpt lat="46.93627" lon="4.31951">
        <ele>466.6006</ele>
        <time>2020-02-18T11:32:45+01:00</time>
      </trkpt>
      <trkpt lat="46.93622" lon="4.31959">
        <ele>465.9004</ele>
        <time>2020-02-18T11:32:50+01:00</time>
      </trkpt>
      <trkpt lat="46.93617" lon="4.31968">
        <ele>470.6006</ele>
        <time>2020-02-18T11:32:55+01:00</time>
      </trkpt>
      <trkpt lat="46.93604" lon="4.31985">
        <ele>473.5</ele>
        <time>2020-02-18T11:33:05+01:00</time>
      </trkpt>
      <trkpt lat="46.93599" lon="4.31992">
        <ele>472.1006</ele>
        <time>2020-02-18T11:33:10+01:00</time>
      </trkpt>
      <trkpt lat="46.93584" lon="4.32006">
        <ele>478.1006</ele>
        <time>2020-02-18T11:33:25+01:00</time>
      </trkpt>
      <trkpt lat="46.93578" lon="4.32011">
        <ele>478.1006</ele>
        <time>2020-02-18T11:33:30+01:00</time>
      </trkpt>
      <trkpt lat="46.9357" lon="4.32015">
        <ele>481.9004</ele>
        <time>2020-02-18T11:33:35+01:00</time>
      </trkpt>
      <trkpt lat="46.93563" lon="4.32021">
        <ele>480.4004</ele>
        <time>2020-02-18T11:33:40+01:00</time>
      </trkpt>
      <trkpt lat="46.93554" lon="4.32039">
        <ele>482.7002</ele>
        <time>2020-02-18T11:33:50+01:00</time>
      </trkpt>
      <trkpt lat="46.93557" lon="4.32068">
        <ele>481.2002</ele>
        <time>2020-02-18T11:34:05+01:00</time>
      </trkpt>
      <trkpt lat="46.93566" lon="4.32094">
        <ele>474.7002</ele>
        <time>2020-02-18T11:34:20+01:00</time>
      </trkpt>
      <trkpt lat="46.93573" lon="4.32114">
        <ele>470.2998</ele>
        <time>2020-02-18T11:34:30+01:00</time>
      </trkpt>
      <trkpt lat="46.93575" lon="4.32122">
        <ele>470.2998</ele>
        <time>2020-02-18T11:34:35+01:00</time>
      </trkpt>
      <trkpt lat="46.93572" lon="4.3214">
        <ele>472.5</ele>
        <time>2020-02-18T11:34:45+01:00</time>
      </trkpt>
      <trkpt lat="46.93553" lon="4.32157">
        <ele>474.7002</ele>
        <time>2020-02-18T11:35:00+01:00</time>
      </trkpt>
      <trkpt lat="46.93541" lon="4.32156">
        <ele>477.6006</ele>
        <time>2020-02-18T11:35:10+01:00</time>
      </trkpt>
      <trkpt lat="46.93528" lon="4.32159">
        <ele>479.6006</ele>
        <time>2020-02-18T11:35:20+01:00</time>
      </trkpt>
      <trkpt lat="46.93522" lon="4.32159">
        <ele>481.9004</ele>
        <time>2020-02-18T11:35:25+01:00</time>
      </trkpt>
      <trkpt lat="46.93515" lon="4.32162">
        <ele>481.9004</ele>
        <time>2020-02-18T11:35:30+01:00</time>
      </trkpt>
      <trkpt lat="46.93507" lon="4.32166">
        <ele>484.2002</ele>
        <time>2020-02-18T11:35:35+01:00</time>
      </trkpt>
      <trkpt lat="46.93499" lon="4.32168">
        <ele>486.2998</ele>
        <time>2020-02-18T11:35:40+01:00</time>
      </trkpt>
      <trkpt lat="46.93472" lon="4.32171">
        <ele>490.4004</ele>
        <time>2020-02-18T11:36:00+01:00</time>
      </trkpt>
      <trkpt lat="46.93464" lon="4.32177">
        <ele>491.2998</ele>
        <time>2020-02-18T11:36:05+01:00</time>
      </trkpt>
      <trkpt lat="46.93419" lon="4.32186">
        <ele>498.1006</ele>
        <time>2020-02-18T11:36:35+01:00</time>
      </trkpt>
      <trkpt lat="46.93413" lon="4.32186">
        <ele>498.1006</ele>
        <time>2020-02-18T11:36:40+01:00</time>
      </trkpt>
      <trkpt lat="46.93399" lon="4.32187">
        <ele>499.6006</ele>
        <time>2020-02-18T11:36:50+01:00</time>
      </trkpt>
      <trkpt lat="46.93389" lon="4.3219">
        <ele>501.1006</ele>
        <time>2020-02-18T11:36:55+01:00</time>
      </trkpt>
      <trkpt lat="46.93379" lon="4.32195">
        <ele>501.2998</ele>
        <time>2020-02-18T11:37:00+01:00</time>
      </trkpt>
      <trkpt lat="46.93359" lon="4.32206">
        <ele>503.4004</ele>
        <time>2020-02-18T11:37:15+01:00</time>
      </trkpt>
      <trkpt lat="46.9334" lon="4.32215">
        <ele>501.7998</ele>
        <time>2020-02-18T11:37:30+01:00</time>
      </trkpt>
      <trkpt lat="46.93335" lon="4.32217">
        <ele>502.5</ele>
        <time>2020-02-18T11:37:35+01:00</time>
      </trkpt>
      <trkpt lat="46.93328" lon="4.3222">
        <ele>502.5</ele>
        <time>2020-02-18T11:37:40+01:00</time>
      </trkpt>
      <trkpt lat="46.93322" lon="4.32223">
        <ele>503.2998</ele>
        <time>2020-02-18T11:37:45+01:00</time>
      </trkpt>
      <trkpt lat="46.93312" lon="4.32227">
        <ele>500.9004</ele>
        <time>2020-02-18T11:37:50+01:00</time>
      </trkpt>
      <trkpt lat="46.93292" lon="4.32232">
        <ele>501.5</ele>
        <time>2020-02-18T11:38:00+01:00</time>
      </trkpt>
      <trkpt lat="46.93277" lon="4.32228">
        <ele>502.4004</ele>
        <time>2020-02-18T11:38:10+01:00</time>
      </trkpt>
      <trkpt lat="46.93241" lon="4.32223">
        <ele>502.9004</ele>
        <time>2020-02-18T11:38:35+01:00</time>
      </trkpt>
      <trkpt lat="46.93235" lon="4.32224">
        <ele>502.9004</ele>
        <time>2020-02-18T11:38:40+01:00</time>
      </trkpt>
      <trkpt lat="46.93228" lon="4.32227">
        <ele>503</ele>
        <time>2020-02-18T11:38:45+01:00</time>
      </trkpt>
      <trkpt lat="46.93223" lon="4.32227">
        <ele>503</ele>
        <time>2020-02-18T11:38:50+01:00</time>
      </trkpt>
      <trkpt lat="46.93202" lon="4.32243">
        <ele>505.2998</ele>
        <time>2020-02-18T11:39:05+01:00</time>
      </trkpt>
      <trkpt lat="46.93195" lon="4.32247">
        <ele>509.4004</ele>
        <time>2020-02-18T11:39:10+01:00</time>
      </trkpt>
      <trkpt lat="46.93187" lon="4.32251">
        <ele>509.4004</ele>
        <time>2020-02-18T11:39:15+01:00</time>
      </trkpt>
      <trkpt lat="46.9318" lon="4.32256">
        <ele>509.6006</ele>
        <time>2020-02-18T11:39:20+01:00</time>
      </trkpt>
      <trkpt lat="46.93173" lon="4.3226">
        <ele>510</ele>
        <time>2020-02-18T11:39:25+01:00</time>
      </trkpt>
      <trkpt lat="46.93147" lon="4.32264">
        <ele>516.5</ele>
        <time>2020-02-18T11:39:50+01:00</time>
      </trkpt>
      <trkpt lat="46.93139" lon="4.32263">
        <ele>517.9004</ele>
        <time>2020-02-18T11:39:55+01:00</time>
      </trkpt>
      <trkpt lat="46.93094" lon="4.32214">
        <ele>513.1006</ele>
        <time>2020-02-18T11:40:30+01:00</time>
      </trkpt>
      <trkpt lat="46.93087" lon="4.32207">
        <ele>512.5</ele>
        <time>2020-02-18T11:40:35+01:00</time>
      </trkpt>
      <trkpt lat="46.93081" lon="4.322">
        <ele>513</ele>
        <time>2020-02-18T11:40:40+01:00</time>
      </trkpt>
      <trkpt lat="46.93075" lon="4.32194">
        <ele>513</ele>
        <time>2020-02-18T11:40:45+01:00</time>
      </trkpt>
      <trkpt lat="46.93069" lon="4.3219">
        <ele>512</ele>
        <time>2020-02-18T11:40:50+01:00</time>
      </trkpt>
      <trkpt lat="46.93056" lon="4.32181">
        <ele>512.6006</ele>
        <time>2020-02-18T11:41:00+01:00</time>
      </trkpt>
      <trkpt lat="46.93042" lon="4.32174">
        <ele>512.5</ele>
        <time>2020-02-18T11:41:10+01:00</time>
      </trkpt>
      <trkpt lat="46.93014" lon="4.3218">
        <ele>513.7002</ele>
        <time>2020-02-18T11:41:30+01:00</time>
      </trkpt>
      <trkpt lat="46.92983" lon="4.32208">
        <ele>516</ele>
        <time>2020-02-18T11:41:55+01:00</time>
      </trkpt>
      <trkpt lat="46.92978" lon="4.32216">
        <ele>517.2998</ele>
        <time>2020-02-18T11:42:00+01:00</time>
      </trkpt>
      <trkpt lat="46.92975" lon="4.32223">
        <ele>517.2998</ele>
        <time>2020-02-18T11:42:05+01:00</time>
      </trkpt>
      <trkpt lat="46.92959" lon="4.32246">
        <ele>520.1006</ele>
        <time>2020-02-18T11:42:20+01:00</time>
      </trkpt>
      <trkpt lat="46.92953" lon="4.32254">
        <ele>520.1006</ele>
        <time>2020-02-18T11:42:25+01:00</time>
      </trkpt>
      <trkpt lat="46.92947" lon="4.32262">
        <ele>521.2002</ele>
        <time>2020-02-18T11:42:30+01:00</time>
      </trkpt>
      <trkpt lat="46.92941" lon="4.32269">
        <ele>521.2002</ele>
        <time>2020-02-18T11:42:35+01:00</time>
      </trkpt>
      <trkpt lat="46.92934" lon="4.32275">
        <ele>520.6006</ele>
        <time>2020-02-18T11:42:40+01:00</time>
      </trkpt>
      <trkpt lat="46.92922" lon="4.32285">
        <ele>521.9004</ele>
        <time>2020-02-18T11:42:50+01:00</time>
      </trkpt>
      <trkpt lat="46.92915" lon="4.32289">
        <ele>521.7002</ele>
        <time>2020-02-18T11:42:55+01:00</time>
      </trkpt>
      <trkpt lat="46.92909" lon="4.32295">
        <ele>523.1006</ele>
        <time>2020-02-18T11:43:00+01:00</time>
      </trkpt>
      <trkpt lat="46.92891" lon="4.32324">
        <ele>524.4004</ele>
        <time>2020-02-18T11:43:15+01:00</time>
      </trkpt>
      <trkpt lat="46.92887" lon="4.32334">
        <ele>525.4004</ele>
        <time>2020-02-18T11:43:20+01:00</time>
      </trkpt>
      <trkpt lat="46.92882" lon="4.3238">
        <ele>526.5</ele>
        <time>2020-02-18T11:43:40+01:00</time>
      </trkpt>
      <trkpt lat="46.92887" lon="4.32412">
        <ele>527.1006</ele>
        <time>2020-02-18T11:43:55+01:00</time>
      </trkpt>
      <trkpt lat="46.9289" lon="4.32446">
        <ele>527.7998</ele>
        <time>2020-02-18T11:44:10+01:00</time>
      </trkpt>
      <trkpt lat="46.92893" lon="4.32458">
        <ele>528.4004</ele>
        <time>2020-02-18T11:44:15+01:00</time>
      </trkpt>
      <trkpt lat="46.92893" lon="4.32468">
        <ele>530.2002</ele>
        <time>2020-02-18T11:44:20+01:00</time>
      </trkpt>
      <trkpt lat="46.92894" lon="4.32477">
        <ele>530.2002</ele>
        <time>2020-02-18T11:44:25+01:00</time>
      </trkpt>
      <trkpt lat="46.92896" lon="4.32485">
        <ele>531</ele>
        <time>2020-02-18T11:44:30+01:00</time>
      </trkpt>
      <trkpt lat="46.92896" lon="4.32505">
        <ele>531.7002</ele>
        <time>2020-02-18T11:44:40+01:00</time>
      </trkpt>
      <trkpt lat="46.92892" lon="4.32527">
        <ele>531.6006</ele>
        <time>2020-02-18T11:44:50+01:00</time>
      </trkpt>
      <trkpt lat="46.92891" lon="4.32542">
        <ele>532.7998</ele>
        <time>2020-02-18T11:44:55+01:00</time>
      </trkpt>
      <trkpt lat="46.92889" lon="4.32602">
        <ele>536</ele>
        <time>2020-02-18T11:45:20+01:00</time>
      </trkpt>
      <trkpt lat="46.92886" lon="4.32611">
        <ele>537.1006</ele>
        <time>2020-02-18T11:45:25+01:00</time>
      </trkpt>
      <trkpt lat="46.92869" lon="4.32647">
        <ele>536.7998</ele>
        <time>2020-02-18T11:45:45+01:00</time>
      </trkpt>
      <trkpt lat="46.92864" lon="4.32653">
        <ele>536.7998</ele>
        <time>2020-02-18T11:45:50+01:00</time>
      </trkpt>
      <trkpt lat="46.92853" lon="4.32668">
        <ele>537.5</ele>
        <time>2020-02-18T11:46:00+01:00</time>
      </trkpt>
      <trkpt lat="46.92824" lon="4.32701">
        <ele>539.2998</ele>
        <time>2020-02-18T11:46:25+01:00</time>
      </trkpt>
      <trkpt lat="46.92806" lon="4.32723">
        <ele>539.7998</ele>
        <time>2020-02-18T11:46:40+01:00</time>
      </trkpt>
      <trkpt lat="46.928" lon="4.32729">
        <ele>541.9004</ele>
        <time>2020-02-18T11:46:45+01:00</time>
      </trkpt>
      <trkpt lat="46.92788" lon="4.32741">
        <ele>541</ele>
        <time>2020-02-18T11:46:55+01:00</time>
      </trkpt>
      <trkpt lat="46.92776" lon="4.32756">
        <ele>542.4004</ele>
        <time>2020-02-18T11:47:05+01:00</time>
      </trkpt>
      <trkpt lat="46.92772" lon="4.32767">
        <ele>542.9004</ele>
        <time>2020-02-18T11:47:15+01:00</time>
      </trkpt>
      <trkpt lat="46.92767" lon="4.32767">
        <ele>542.9004</ele>
        <time>2020-02-18T11:47:20+01:00</time>
      </trkpt>
      <trkpt lat="46.92763" lon="4.32768">
        <ele>542.2002</ele>
        <time>2020-02-18T11:47:25+01:00</time>
      </trkpt>
      <trkpt lat="46.92757" lon="4.32771">
        <ele>542.2002</ele>
        <time>2020-02-18T11:47:30+01:00</time>
      </trkpt>
      <trkpt lat="46.92751" lon="4.32774">
        <ele>541.7002</ele>
        <time>2020-02-18T11:47:35+01:00</time>
      </trkpt>
      <trkpt lat="46.92737" lon="4.3278">
        <ele>542.7998</ele>
        <time>2020-02-18T11:47:45+01:00</time>
      </trkpt>
      <trkpt lat="46.92722" lon="4.32788">
        <ele>542.2998</ele>
        <time>2020-02-18T11:48:00+01:00</time>
      </trkpt>
      <trkpt lat="46.92719" lon="4.3279">
        <ele>542.2998</ele>
        <time>2020-02-18T11:48:05+01:00</time>
      </trkpt>
      <trkpt lat="46.92712" lon="4.32793">
        <ele>543.5</ele>
        <time>2020-02-18T11:48:10+01:00</time>
      </trkpt>
      <trkpt lat="46.92704" lon="4.32796">
        <ele>543.4004</ele>
        <time>2020-02-18T11:48:15+01:00</time>
      </trkpt>
      <trkpt lat="46.92682" lon="4.32802">
        <ele>543.5</ele>
        <time>2020-02-18T11:48:30+01:00</time>
      </trkpt>
      <trkpt lat="46.92659" lon="4.32805">
        <ele>544.9004</ele>
        <time>2020-02-18T11:48:45+01:00</time>
      </trkpt>
      <trkpt lat="46.92635" lon="4.32809">
        <ele>545.7002</ele>
        <time>2020-02-18T11:49:00+01:00</time>
      </trkpt>
      <trkpt lat="46.92621" lon="4.3281">
        <ele>548.9004</ele>
        <time>2020-02-18T11:49:10+01:00</time>
      </trkpt>
      <trkpt lat="46.92605" lon="4.32808">
        <ele>548.1006</ele>
        <time>2020-02-18T11:49:20+01:00</time>
      </trkpt>
      <trkpt lat="46.9258" lon="4.32801">
        <ele>549.6006</ele>
        <time>2020-02-18T11:49:35+01:00</time>
      </trkpt>
      <trkpt lat="46.92574" lon="4.328">
        <ele>550.2002</ele>
        <time>2020-02-18T11:49:40+01:00</time>
      </trkpt>
      <trkpt lat="46.92566" lon="4.32798">
        <ele>550.2002</ele>
        <time>2020-02-18T11:49:45+01:00</time>
      </trkpt>
      <trkpt lat="46.92545" lon="4.3279">
        <ele>550.5</ele>
        <time>2020-02-18T11:50:00+01:00</time>
      </trkpt>
      <trkpt lat="46.92536" lon="4.32786">
        <ele>551.2998</ele>
        <time>2020-02-18T11:50:05+01:00</time>
      </trkpt>
      <trkpt lat="46.92515" lon="4.32771">
        <ele>551</ele>
        <time>2020-02-18T11:50:20+01:00</time>
      </trkpt>
      <trkpt lat="46.9249" lon="4.32748">
        <ele>551.2002</ele>
        <time>2020-02-18T11:50:45+01:00</time>
      </trkpt>
      <trkpt lat="46.92483" lon="4.32741">
        <ele>551.2002</ele>
        <time>2020-02-18T11:50:50+01:00</time>
      </trkpt>
      <trkpt lat="46.92462" lon="4.32718">
        <ele>548.1</ele>
      </trkpt>
      <trkpt lat="46.92445" lon="4.32718">
        <ele>551.4004</ele>
        <time>2020-02-18T11:51:15+01:00</time>
      </trkpt>
      <trkpt lat="46.92414" lon="4.32709">
        <ele>552</ele>
        <time>2020-02-18T11:51:35+01:00</time>
      </trkpt>
      <trkpt lat="46.92407" lon="4.32708">
        <ele>552.1006</ele>
        <time>2020-02-18T11:51:40+01:00</time>
      </trkpt>
      <trkpt lat="46.92386" lon="4.32704">
        <ele>550.9004</ele>
        <time>2020-02-18T11:51:55+01:00</time>
      </trkpt>
      <trkpt lat="46.92378" lon="4.32704">
        <ele>550.9004</ele>
        <time>2020-02-18T11:52:00+01:00</time>
      </trkpt>
      <trkpt lat="46.92371" lon="4.32704">
        <ele>550.5</ele>
        <time>2020-02-18T11:52:05+01:00</time>
      </trkpt>
      <trkpt lat="46.92365" lon="4.32706">
        <ele>550.2002</ele>
        <time>2020-02-18T11:52:10+01:00</time>
      </trkpt>
      <trkpt lat="46.9236" lon="4.32713">
        <ele>550.9004</ele>
        <time>2020-02-18T11:52:15+01:00</time>
      </trkpt>
      <trkpt lat="46.92355" lon="4.32723">
        <ele>550.9004</ele>
        <time>2020-02-18T11:52:20+01:00</time>
      </trkpt>
      <trkpt lat="46.92351" lon="4.32731">
        <ele>551.2002</ele>
        <time>2020-02-18T11:52:25+01:00</time>
      </trkpt>
      <trkpt lat="46.92346" lon="4.32741">
        <ele>551.2002</ele>
        <time>2020-02-18T11:52:30+01:00</time>
      </trkpt>
      <trkpt lat="46.92342" lon="4.3275">
        <ele>552.1006</ele>
        <time>2020-02-18T11:52:35+01:00</time>
      </trkpt>
      <trkpt lat="46.92339" lon="4.32761">
        <ele>552.6006</ele>
        <time>2020-02-18T11:52:40+01:00</time>
      </trkpt>
      <trkpt lat="46.92335" lon="4.32771">
        <ele>552.6006</ele>
        <time>2020-02-18T11:52:45+01:00</time>
      </trkpt>
      <trkpt lat="46.92313" lon="4.32828">
        <ele>555.2002</ele>
        <time>2020-02-18T11:53:15+01:00</time>
      </trkpt>
      <trkpt lat="46.92308" lon="4.32837">
        <ele>555.2002</ele>
        <time>2020-02-18T11:53:20+01:00</time>
      </trkpt>
      <trkpt lat="46.92296" lon="4.32865">
        <ele>557.6006</ele>
        <time>2020-02-18T11:53:35+01:00</time>
      </trkpt>
      <trkpt lat="46.92289" lon="4.32882">
        <ele>558.2998</ele>
        <time>2020-02-18T11:53:45+01:00</time>
      </trkpt>
      <trkpt lat="46.92284" lon="4.3289">
        <ele>558.2998</ele>
        <time>2020-02-18T11:53:50+01:00</time>
      </trkpt>
      <trkpt lat="46.92268" lon="4.32915">
        <ele>559.5</ele>
        <time>2020-02-18T11:54:05+01:00</time>
      </trkpt>
      <trkpt lat="46.92252" lon="4.32937">
        <ele>560.1006</ele>
        <time>2020-02-18T11:54:20+01:00</time>
      </trkpt>
      <trkpt lat="46.92247" lon="4.32944">
        <ele>559.2002</ele>
        <time>2020-02-18T11:54:25+01:00</time>
      </trkpt>
      <trkpt lat="46.92239" lon="4.32951">
        <ele>560.4004</ele>
        <time>2020-02-18T11:54:30+01:00</time>
      </trkpt>
      <trkpt lat="46.92232" lon="4.32957">
        <ele>559.2998</ele>
        <time>2020-02-18T11:54:35+01:00</time>
      </trkpt>
      <trkpt lat="46.92225" lon="4.32962">
        <ele>559.2998</ele>
        <time>2020-02-18T11:54:40+01:00</time>
      </trkpt>
      <trkpt lat="46.92211" lon="4.3297">
        <ele>558.9004</ele>
        <time>2020-02-18T11:54:50+01:00</time>
      </trkpt>
      <trkpt lat="46.92198" lon="4.32977">
        <ele>558.2998</ele>
        <time>2020-02-18T11:55:00+01:00</time>
      </trkpt>
      <trkpt lat="46.92184" lon="4.32987">
        <ele>558.5</ele>
        <time>2020-02-18T11:55:10+01:00</time>
      </trkpt>
      <trkpt lat="46.92177" lon="4.32992">
        <ele>557.7998</ele>
        <time>2020-02-18T11:55:15+01:00</time>
      </trkpt>
      <trkpt lat="46.9217" lon="4.32996">
        <ele>557.7998</ele>
        <time>2020-02-18T11:55:20+01:00</time>
      </trkpt>
      <trkpt lat="46.92162" lon="4.33">
        <ele>558.7002</ele>
        <time>2020-02-18T11:55:25+01:00</time>
      </trkpt>
      <trkpt lat="46.92154" lon="4.33003">
        <ele>558.4004</ele>
        <time>2020-02-18T11:55:30+01:00</time>
      </trkpt>
      <trkpt lat="46.92146" lon="4.33009">
        <ele>558.4004</ele>
        <time>2020-02-18T11:55:35+01:00</time>
      </trkpt>
      <trkpt lat="46.92123" lon="4.33023">
        <ele>559.4004</ele>
        <time>2020-02-18T11:55:50+01:00</time>
      </trkpt>
      <trkpt lat="46.92107" lon="4.33032">
        <ele>558.5</ele>
        <time>2020-02-18T11:56:00+01:00</time>
      </trkpt>
      <trkpt lat="46.92078" lon="4.3305">
        <ele>560.6006</ele>
        <time>2020-02-18T11:56:20+01:00</time>
      </trkpt>
      <trkpt lat="46.92042" lon="4.33067">
        <ele>562.4004</ele>
        <time>2020-02-18T11:56:45+01:00</time>
      </trkpt>
      <trkpt lat="46.92035" lon="4.33071">
        <ele>562.9004</ele>
        <time>2020-02-18T11:56:50+01:00</time>
      </trkpt>
      <trkpt lat="46.92007" lon="4.33086">
        <ele>563.5</ele>
        <time>2020-02-18T11:57:10+01:00</time>
      </trkpt>
      <trkpt lat="46.92" lon="4.3309">
        <ele>563.9004</ele>
        <time>2020-02-18T11:57:15+01:00</time>
      </trkpt>
      <trkpt lat="46.91979" lon="4.33099">
        <ele>564.7998</ele>
        <time>2020-02-18T11:57:30+01:00</time>
      </trkpt>
      <trkpt lat="46.91966" lon="4.33105">
        <ele>567.7002</ele>
        <time>2020-02-18T11:57:40+01:00</time>
      </trkpt>
      <trkpt lat="46.9195" lon="4.33113">
        <ele>568</ele>
        <time>2020-02-18T11:57:50+01:00</time>
      </trkpt>
      <trkpt lat="46.91927" lon="4.33123">
        <ele>568.9004</ele>
        <time>2020-02-18T11:58:05+01:00</time>
      </trkpt>
      <trkpt lat="46.9192" lon="4.33126">
        <ele>568.9004</ele>
        <time>2020-02-18T11:58:10+01:00</time>
      </trkpt>
      <trkpt lat="46.91913" lon="4.33129">
        <ele>568.5</ele>
        <time>2020-02-18T11:58:15+01:00</time>
      </trkpt>
      <trkpt lat="46.91898" lon="4.33134">
        <ele>568.2002</ele>
        <time>2020-02-18T11:58:25+01:00</time>
      </trkpt>
      <trkpt lat="46.9189" lon="4.33136">
        <ele>569</ele>
        <time>2020-02-18T11:58:30+01:00</time>
      </trkpt>
      <trkpt lat="46.91851" lon="4.33148">
        <ele>568.2998</ele>
        <time>2020-02-18T11:58:55+01:00</time>
      </trkpt>
      <trkpt lat="46.91835" lon="4.33151">
        <ele>567.9004</ele>
        <time>2020-02-18T11:59:05+01:00</time>
      </trkpt>
      <trkpt lat="46.91827" lon="4.33154">
        <ele>568.7002</ele>
        <time>2020-02-18T11:59:10+01:00</time>
      </trkpt>
      <trkpt lat="46.9181" lon="4.33157">
        <ele>568.5</ele>
        <time>2020-02-18T11:59:20+01:00</time>
      </trkpt>
      <trkpt lat="46.91795" lon="4.3316">
        <ele>568.2998</ele>
        <time>2020-02-18T11:59:30+01:00</time>
      </trkpt>
      <trkpt lat="46.91781" lon="4.33164">
        <ele>568</ele>
        <time>2020-02-18T11:59:40+01:00</time>
      </trkpt>
      <trkpt lat="46.91773" lon="4.33166">
        <ele>567.7002</ele>
        <time>2020-02-18T11:59:45+01:00</time>
      </trkpt>
      <trkpt lat="46.91765" lon="4.33167">
        <ele>567.4004</ele>
        <time>2020-02-18T11:59:50+01:00</time>
      </trkpt>
      <trkpt lat="46.91758" lon="4.33168">
        <ele>567.4004</ele>
        <time>2020-02-18T11:59:55+01:00</time>
      </trkpt>
      <trkpt lat="46.9175" lon="4.3317">
        <ele>567.1006</ele>
        <time>2020-02-18T12:00:00+01:00</time>
      </trkpt>
      <trkpt lat="46.91727" lon="4.33173">
        <ele>567.7998</ele>
        <time>2020-02-18T12:00:15+01:00</time>
      </trkpt>
      <trkpt lat="46.91721" lon="4.33175">
        <ele>567.9004</ele>
        <time>2020-02-18T12:00:20+01:00</time>
      </trkpt>
      <trkpt lat="46.91674" lon="4.33185">
        <ele>567.7002</ele>
        <time>2020-02-18T12:00:50+01:00</time>
      </trkpt>
      <trkpt lat="46.91628" lon="4.33196">
        <ele>567.7998</ele>
        <time>2020-02-18T12:01:20+01:00</time>
      </trkpt>
      <trkpt lat="46.91614" lon="4.33196">
        <ele>567.2002</ele>
        <time>2020-02-18T12:01:30+01:00</time>
      </trkpt>
      <trkpt lat="46.91606" lon="4.33198">
        <ele>567.2002</ele>
        <time>2020-02-18T12:01:35+01:00</time>
      </trkpt>
      <trkpt lat="46.91599" lon="4.332">
        <ele>566.9004</ele>
        <time>2020-02-18T12:01:40+01:00</time>
      </trkpt>
      <trkpt lat="46.91585" lon="4.33203">
        <ele>566.6006</ele>
        <time>2020-02-18T12:01:50+01:00</time>
      </trkpt>
      <trkpt lat="46.91572" lon="4.33206">
        <ele>566.7998</ele>
        <time>2020-02-18T12:02:00+01:00</time>
      </trkpt>
      <trkpt lat="46.9153" lon="4.33225">
        <ele>566.2998</ele>
        <time>2020-02-18T12:02:25+01:00</time>
      </trkpt>
      <trkpt lat="46.91523" lon="4.33229">
        <ele>566.2998</ele>
        <time>2020-02-18T12:02:30+01:00</time>
      </trkpt>
      <trkpt lat="46.91515" lon="4.33232">
        <ele>566.1006</ele>
        <time>2020-02-18T12:02:35+01:00</time>
      </trkpt>
      <trkpt lat="46.91508" lon="4.33236">
        <ele>565.9004</ele>
        <time>2020-02-18T12:02:40+01:00</time>
      </trkpt>
      <trkpt lat="46.91481" lon="4.33255">
        <ele>566.5</ele>
        <time>2020-02-18T12:03:00+01:00</time>
      </trkpt>
      <trkpt lat="46.91474" lon="4.33262">
        <ele>567.4004</ele>
        <time>2020-02-18T12:03:05+01:00</time>
      </trkpt>
      <trkpt lat="46.91468" lon="4.33269">
        <ele>567.4004</ele>
        <time>2020-02-18T12:03:10+01:00</time>
      </trkpt>
      <trkpt lat="46.91462" lon="4.33274">
        <ele>568.2998</ele>
        <time>2020-02-18T12:03:15+01:00</time>
      </trkpt>
      <trkpt lat="46.91456" lon="4.33281">
        <ele>568.2998</ele>
        <time>2020-02-18T12:03:20+01:00</time>
      </trkpt>
      <trkpt lat="46.91444" lon="4.33294">
        <ele>569.5</ele>
        <time>2020-02-18T12:03:30+01:00</time>
      </trkpt>
      <trkpt lat="46.91438" lon="4.33301">
        <ele>569.2998</ele>
        <time>2020-02-18T12:03:35+01:00</time>
      </trkpt>
      <trkpt lat="46.91432" lon="4.33308">
        <ele>570.7002</ele>
        <time>2020-02-18T12:03:40+01:00</time>
      </trkpt>
      <trkpt lat="46.91426" lon="4.33314">
        <ele>570.4004</ele>
        <time>2020-02-18T12:03:45+01:00</time>
      </trkpt>
      <trkpt lat="46.9142" lon="4.3332">
        <ele>570.4004</ele>
        <time>2020-02-18T12:03:50+01:00</time>
      </trkpt>
      <trkpt lat="46.91414" lon="4.33327">
        <ele>571.6006</ele>
        <time>2020-02-18T12:03:55+01:00</time>
      </trkpt>
      <trkpt lat="46.91407" lon="4.33334">
        <ele>571.6006</ele>
        <time>2020-02-18T12:04:00+01:00</time>
      </trkpt>
      <trkpt lat="46.91389" lon="4.33356">
        <ele>572</ele>
        <time>2020-02-18T12:04:15+01:00</time>
      </trkpt>
      <trkpt lat="46.91383" lon="4.33364">
        <ele>573.4004</ele>
        <time>2020-02-18T12:04:20+01:00</time>
      </trkpt>
      <trkpt lat="46.91376" lon="4.3337">
        <ele>572.5</ele>
        <time>2020-02-18T12:04:25+01:00</time>
      </trkpt>
      <trkpt lat="46.9137" lon="4.33377">
        <ele>573.9004</ele>
        <time>2020-02-18T12:04:30+01:00</time>
      </trkpt>
      <trkpt lat="46.91358" lon="4.3339">
        <ele>573</ele>
        <time>2020-02-18T12:04:40+01:00</time>
      </trkpt>
      <trkpt lat="46.91346" lon="4.33404">
        <ele>573.2998</ele>
        <time>2020-02-18T12:04:50+01:00</time>
      </trkpt>
      <trkpt lat="46.9134" lon="4.33412">
        <ele>573.5</ele>
        <time>2020-02-18T12:04:55+01:00</time>
      </trkpt>
      <trkpt lat="46.91334" lon="4.33418">
        <ele>573.5</ele>
        <time>2020-02-18T12:05:00+01:00</time>
      </trkpt>
      <trkpt lat="46.91322" lon="4.33432">
        <ele>573.2002</ele>
        <time>2020-02-18T12:05:10+01:00</time>
      </trkpt>
      <trkpt lat="46.91309" lon="4.33446">
        <ele>573.4004</ele>
        <time>2020-02-18T12:05:20+01:00</time>
      </trkpt>
      <trkpt lat="46.91303" lon="4.33453">
        <ele>573.4004</ele>
        <time>2020-02-18T12:05:25+01:00</time>
      </trkpt>
      <trkpt lat="46.9129" lon="4.33467">
        <ele>573.9004</ele>
        <time>2020-02-18T12:05:35+01:00</time>
      </trkpt>
      <trkpt lat="46.91267" lon="4.33491">
        <ele>574.1006</ele>
        <time>2020-02-18T12:05:55+01:00</time>
      </trkpt>
      <trkpt lat="46.91256" lon="4.33505">
        <ele>575.1006</ele>
        <time>2020-02-18T12:06:05+01:00</time>
      </trkpt>
      <trkpt lat="46.9125" lon="4.33512">
        <ele>574.4004</ele>
        <time>2020-02-18T12:06:10+01:00</time>
      </trkpt>
      <trkpt lat="46.91237" lon="4.33525">
        <ele>574.4004</ele>
        <time>2020-02-18T12:06:20+01:00</time>
      </trkpt>
      <trkpt lat="46.91223" lon="4.33539">
        <ele>574.2002</ele>
        <time>2020-02-18T12:06:35+01:00</time>
      </trkpt>
      <trkpt lat="46.91219" lon="4.33544">
        <ele>574.2002</ele>
        <time>2020-02-18T12:06:40+01:00</time>
      </trkpt>
      <trkpt lat="46.91215" lon="4.33548">
        <ele>574.1006</ele>
        <time>2020-02-18T12:06:45+01:00</time>
      </trkpt>
      <trkpt lat="46.9121" lon="4.33553">
        <ele>574.1006</ele>
        <time>2020-02-18T12:06:50+01:00</time>
      </trkpt>
      <trkpt lat="46.91205" lon="4.33558">
        <ele>574.1006</ele>
        <time>2020-02-18T12:06:55+01:00</time>
      </trkpt>
      <trkpt lat="46.91193" lon="4.33572">
        <ele>572.9004</ele>
        <time>2020-02-18T12:07:05+01:00</time>
      </trkpt>
      <trkpt lat="46.91186" lon="4.33579">
        <ele>572.9004</ele>
        <time>2020-02-18T12:07:10+01:00</time>
      </trkpt>
      <trkpt lat="46.91178" lon="4.33588">
        <ele>573.7002</ele>
        <time>2020-02-18T12:07:15+01:00</time>
      </trkpt>
      <trkpt lat="46.9117" lon="4.33598">
        <ele>573.7002</ele>
        <time>2020-02-18T12:07:20+01:00</time>
      </trkpt>
      <trkpt lat="46.91163" lon="4.33608">
        <ele>574.6006</ele>
        <time>2020-02-18T12:07:25+01:00</time>
      </trkpt>
      <trkpt lat="46.91156" lon="4.33618">
        <ele>575.7998</ele>
        <time>2020-02-18T12:07:30+01:00</time>
      </trkpt>
      <trkpt lat="46.9115" lon="4.33626">
        <ele>575.7998</ele>
        <time>2020-02-18T12:07:35+01:00</time>
      </trkpt>
      <trkpt lat="46.91112" lon="4.33666">
        <ele>576.7998</ele>
        <time>2020-02-18T12:08:05+01:00</time>
      </trkpt>
      <trkpt lat="46.91087" lon="4.33694">
        <ele>577.1006</ele>
        <time>2020-02-18T12:08:25+01:00</time>
      </trkpt>
      <trkpt lat="46.91067" lon="4.33715">
        <ele>578</ele>
        <time>2020-02-18T12:08:40+01:00</time>
      </trkpt>
      <trkpt lat="46.9105" lon="4.33735">
        <ele>578</ele>
        <time>2020-02-18T12:09:00+01:00</time>
      </trkpt>
      <trkpt lat="46.91034" lon="4.33753">
        <ele>578.2998</ele>
        <time>2020-02-18T12:09:15+01:00</time>
      </trkpt>
      <trkpt lat="46.91027" lon="4.33763">
        <ele>578.2998</ele>
        <time>2020-02-18T12:09:20+01:00</time>
      </trkpt>
      <trkpt lat="46.9101" lon="4.33782">
        <ele>578.7002</ele>
        <time>2020-02-18T12:09:35+01:00</time>
      </trkpt>
      <trkpt lat="46.90994" lon="4.33799">
        <ele>578.5</ele>
        <time>2020-02-18T12:09:50+01:00</time>
      </trkpt>
      <trkpt lat="46.90984" lon="4.33811">
        <ele>579.1006</ele>
        <time>2020-02-18T12:10:00+01:00</time>
      </trkpt>
      <trkpt lat="46.90978" lon="4.33818">
        <ele>578.7002</ele>
        <time>2020-02-18T12:10:05+01:00</time>
      </trkpt>
      <trkpt lat="46.90955" lon="4.33843">
        <ele>578.6006</ele>
        <time>2020-02-18T12:10:25+01:00</time>
      </trkpt>
      <trkpt lat="46.90944" lon="4.33856">
        <ele>578.1006</ele>
        <time>2020-02-18T12:10:35+01:00</time>
      </trkpt>
      <trkpt lat="46.90915" lon="4.33888">
        <ele>578.6006</ele>
        <time>2020-02-18T12:10:55+01:00</time>
      </trkpt>
      <trkpt lat="46.90908" lon="4.33894">
        <ele>578.7002</ele>
        <time>2020-02-18T12:11:00+01:00</time>
      </trkpt>
      <trkpt lat="46.90894" lon="4.33908">
        <ele>578</ele>
        <time>2020-02-18T12:11:10+01:00</time>
      </trkpt>
      <trkpt lat="46.90793" lon="4.34024">
        <ele>576</ele>
        <time>2020-02-18T12:12:30+01:00</time>
      </trkpt>
      <trkpt lat="46.90786" lon="4.34032">
        <ele>576.6006</ele>
        <time>2020-02-18T12:12:35+01:00</time>
      </trkpt>
      <trkpt lat="46.90761" lon="4.3406">
        <ele>575.4004</ele>
        <time>2020-02-18T12:12:55+01:00</time>
      </trkpt>
      <trkpt lat="46.90756" lon="4.34067">
        <ele>574.9004</ele>
        <time>2020-02-18T12:13:00+01:00</time>
      </trkpt>
      <trkpt lat="46.90744" lon="4.34081">
        <ele>574.7002</ele>
        <time>2020-02-18T12:13:10+01:00</time>
      </trkpt>
      <trkpt lat="46.90726" lon="4.341">
        <ele>574.7998</ele>
        <time>2020-02-18T12:13:25+01:00</time>
      </trkpt>
      <trkpt lat="46.90719" lon="4.34106">
        <ele>574.2998</ele>
        <time>2020-02-18T12:13:30+01:00</time>
      </trkpt>
      <trkpt lat="46.90714" lon="4.34112">
        <ele>574.2998</ele>
        <time>2020-02-18T12:13:35+01:00</time>
      </trkpt>
      <trkpt lat="46.90709" lon="4.3412">
        <ele>574.7998</ele>
        <time>2020-02-18T12:13:40+01:00</time>
      </trkpt>
      <trkpt lat="46.90702" lon="4.34125">
        <ele>574.7998</ele>
        <time>2020-02-18T12:13:45+01:00</time>
      </trkpt>
      <trkpt lat="46.90696" lon="4.34131">
        <ele>574.5</ele>
        <time>2020-02-18T12:13:50+01:00</time>
      </trkpt>
      <trkpt lat="46.90688" lon="4.34135">
        <ele>575.5</ele>
        <time>2020-02-18T12:13:55+01:00</time>
      </trkpt>
      <trkpt lat="46.90682" lon="4.34142">
        <ele>575.5</ele>
        <time>2020-02-18T12:14:00+01:00</time>
      </trkpt>
      <trkpt lat="46.90676" lon="4.34149">
        <ele>576.6006</ele>
        <time>2020-02-18T12:14:05+01:00</time>
      </trkpt>
      <trkpt lat="46.90664" lon="4.34163">
        <ele>576.7002</ele>
        <time>2020-02-18T12:14:15+01:00</time>
      </trkpt>
      <trkpt lat="46.90652" lon="4.34176">
        <ele>577.7998</ele>
        <time>2020-02-18T12:14:25+01:00</time>
      </trkpt>
      <trkpt lat="46.90627" lon="4.34193">
        <ele>578.7002</ele>
        <time>2020-02-18T12:14:50+01:00</time>
      </trkpt>
      <trkpt lat="46.90625" lon="4.34192">
        <ele>578.7002</ele>
        <time>2020-02-18T12:15:00+01:00</time>
      </trkpt>
      <trkpt lat="46.90629" lon="4.34187">
        <ele>578.7002</ele>
        <time>2020-02-18T12:15:05+01:00</time>
      </trkpt>
      <trkpt lat="46.90606" lon="4.34234">
        <ele>579.7998</ele>
        <time>2020-02-18T12:15:40+01:00</time>
      </trkpt>
      <trkpt lat="46.90589" lon="4.34247">
        <ele>579.7998</ele>
        <time>2020-02-18T12:15:50+01:00</time>
      </trkpt>
      <trkpt lat="46.90585" lon="4.34258">
        <ele>580.6006</ele>
        <time>2020-02-18T12:15:55+01:00</time>
      </trkpt>
      <trkpt lat="46.9058" lon="4.34265">
        <ele>579.7998</ele>
        <time>2020-02-18T12:16:00+01:00</time>
      </trkpt>
      <trkpt lat="46.90567" lon="4.3428">
        <ele>579.6006</ele>
        <time>2020-02-18T12:16:10+01:00</time>
      </trkpt>
      <trkpt lat="46.9056" lon="4.34289">
        <ele>580.4004</ele>
        <time>2020-02-18T12:16:15+01:00</time>
      </trkpt>
      <trkpt lat="46.90555" lon="4.34292">
        <ele>579.4004</ele>
        <time>2020-02-18T12:16:20+01:00</time>
      </trkpt>
      <trkpt lat="46.90489" lon="4.34366">
        <ele>580.2002</ele>
        <time>2020-02-18T12:17:10+01:00</time>
      </trkpt>
      <trkpt lat="46.90475" lon="4.34381">
        <ele>581.2002</ele>
        <time>2020-02-18T12:17:20+01:00</time>
      </trkpt>
      <trkpt lat="46.90463" lon="4.34395">
        <ele>582.4004</ele>
        <time>2020-02-18T12:17:30+01:00</time>
      </trkpt>
      <trkpt lat="46.90452" lon="4.3441">
        <ele>583.5</ele>
        <time>2020-02-18T12:17:40+01:00</time>
      </trkpt>
      <trkpt lat="46.90434" lon="4.34429">
        <ele>584.6006</ele>
        <time>2020-02-18T12:17:55+01:00</time>
      </trkpt>
      <trkpt lat="46.90429" lon="4.34436">
        <ele>584.5</ele>
        <time>2020-02-18T12:18:00+01:00</time>
      </trkpt>
      <trkpt lat="46.90422" lon="4.34442">
        <ele>585.4004</ele>
        <time>2020-02-18T12:18:05+01:00</time>
      </trkpt>
      <trkpt lat="46.90416" lon="4.34448">
        <ele>585.4004</ele>
        <time>2020-02-18T12:18:10+01:00</time>
      </trkpt>
      <trkpt lat="46.9041" lon="4.34454">
        <ele>585.4004</ele>
        <time>2020-02-18T12:18:15+01:00</time>
      </trkpt>
      <trkpt lat="46.90403" lon="4.34461">
        <ele>586.2002</ele>
        <time>2020-02-18T12:18:20+01:00</time>
      </trkpt>
      <trkpt lat="46.90397" lon="4.34468">
        <ele>586.2002</ele>
        <time>2020-02-18T12:18:25+01:00</time>
      </trkpt>
      <trkpt lat="46.90391" lon="4.34475">
        <ele>586.2998</ele>
        <time>2020-02-18T12:18:30+01:00</time>
      </trkpt>
      <trkpt lat="46.90386" lon="4.34481">
        <ele>587</ele>
        <time>2020-02-18T12:18:35+01:00</time>
      </trkpt>
      <trkpt lat="46.90381" lon="4.34489">
        <ele>587.1006</ele>
        <time>2020-02-18T12:18:40+01:00</time>
      </trkpt>
      <trkpt lat="46.90349" lon="4.34521">
        <ele>588.6006</ele>
        <time>2020-02-18T12:19:05+01:00</time>
      </trkpt>
      <trkpt lat="46.90343" lon="4.34529">
        <ele>589.1006</ele>
        <time>2020-02-18T12:19:10+01:00</time>
      </trkpt>
      <trkpt lat="46.90337" lon="4.34537">
        <ele>589.1006</ele>
        <time>2020-02-18T12:19:15+01:00</time>
      </trkpt>
      <trkpt lat="46.90331" lon="4.34544">
        <ele>589.4004</ele>
        <time>2020-02-18T12:19:20+01:00</time>
      </trkpt>
      <trkpt lat="46.90324" lon="4.34552">
        <ele>589.5</ele>
        <time>2020-02-18T12:19:25+01:00</time>
      </trkpt>
      <trkpt lat="46.90316" lon="4.34557">
        <ele>589.5</ele>
        <time>2020-02-18T12:19:30+01:00</time>
      </trkpt>
      <trkpt lat="46.90309" lon="4.34563">
        <ele>589.9004</ele>
        <time>2020-02-18T12:19:35+01:00</time>
      </trkpt>
      <trkpt lat="46.90302" lon="4.34571">
        <ele>589.9004</ele>
        <time>2020-02-18T12:19:40+01:00</time>
      </trkpt>
      <trkpt lat="46.90296" lon="4.34578">
        <ele>590.2998</ele>
        <time>2020-02-18T12:19:45+01:00</time>
      </trkpt>
      <trkpt lat="46.90289" lon="4.34586">
        <ele>590.4004</ele>
        <time>2020-02-18T12:19:50+01:00</time>
      </trkpt>
      <trkpt lat="46.90284" lon="4.34594">
        <ele>590.4004</ele>
        <time>2020-02-18T12:19:55+01:00</time>
      </trkpt>
      <trkpt lat="46.90263" lon="4.34622">
        <ele>590.5</ele>
        <time>2020-02-18T12:20:15+01:00</time>
      </trkpt>
      <trkpt lat="46.90258" lon="4.34628">
        <ele>590.5</ele>
        <time>2020-02-18T12:20:20+01:00</time>
      </trkpt>
      <trkpt lat="46.90251" lon="4.34635">
        <ele>590.2002</ele>
        <time>2020-02-18T12:20:25+01:00</time>
      </trkpt>
      <trkpt lat="46.9024" lon="4.34648">
        <ele>589.7002</ele>
        <time>2020-02-18T12:20:35+01:00</time>
      </trkpt>
      <trkpt lat="46.90232" lon="4.34656">
        <ele>589.7002</ele>
        <time>2020-02-18T12:20:40+01:00</time>
      </trkpt>
      <trkpt lat="46.90223" lon="4.34664">
        <ele>589</ele>
        <time>2020-02-18T12:20:45+01:00</time>
      </trkpt>
      <trkpt lat="46.90217" lon="4.34672">
        <ele>588.6006</ele>
        <time>2020-02-18T12:20:50+01:00</time>
      </trkpt>
      <trkpt lat="46.90205" lon="4.34689">
        <ele>588</ele>
        <time>2020-02-18T12:21:00+01:00</time>
      </trkpt>
      <trkpt lat="46.90196" lon="4.34698">
        <ele>587.2998</ele>
        <time>2020-02-18T12:21:10+01:00</time>
      </trkpt>
      <trkpt lat="46.90191" lon="4.34703">
        <ele>587.2998</ele>
        <time>2020-02-18T12:21:15+01:00</time>
      </trkpt>
      <trkpt lat="46.90176" lon="4.34721">
        <ele>586.6006</ele>
        <time>2020-02-18T12:21:25+01:00</time>
      </trkpt>
      <trkpt lat="46.90163" lon="4.34735">
        <ele>585.9004</ele>
        <time>2020-02-18T12:21:35+01:00</time>
      </trkpt>
      <trkpt lat="46.90151" lon="4.34749">
        <ele>585.6006</ele>
        <time>2020-02-18T12:21:45+01:00</time>
      </trkpt>
      <trkpt lat="46.90144" lon="4.34756">
        <ele>584.9004</ele>
        <time>2020-02-18T12:21:50+01:00</time>
      </trkpt>
      <trkpt lat="46.90138" lon="4.34763">
        <ele>584.6006</ele>
        <time>2020-02-18T12:21:55+01:00</time>
      </trkpt>
      <trkpt lat="46.90131" lon="4.3477">
        <ele>584.2002</ele>
        <time>2020-02-18T12:22:00+01:00</time>
      </trkpt>
      <trkpt lat="46.90125" lon="4.34776">
        <ele>584</ele>
        <time>2020-02-18T12:22:05+01:00</time>
      </trkpt>
      <trkpt lat="46.90118" lon="4.34783">
        <ele>584</ele>
        <time>2020-02-18T12:22:10+01:00</time>
      </trkpt>
      <trkpt lat="46.90112" lon="4.3479">
        <ele>583.4004</ele>
        <time>2020-02-18T12:22:15+01:00</time>
      </trkpt>
      <trkpt lat="46.90105" lon="4.34797">
        <ele>583.4004</ele>
        <time>2020-02-18T12:22:20+01:00</time>
      </trkpt>
      <trkpt lat="46.90101" lon="4.34804">
        <ele>582.9004</ele>
        <time>2020-02-18T12:22:25+01:00</time>
      </trkpt>
      <trkpt lat="46.9009" lon="4.3482">
        <ele>582.2998</ele>
        <time>2020-02-18T12:22:35+01:00</time>
      </trkpt>
      <trkpt lat="46.90085" lon="4.34826">
        <ele>582.2998</ele>
        <time>2020-02-18T12:22:40+01:00</time>
      </trkpt>
      <trkpt lat="46.90072" lon="4.34841">
        <ele>581.7998</ele>
        <time>2020-02-18T12:22:50+01:00</time>
      </trkpt>
      <trkpt lat="46.90057" lon="4.34854">
        <ele>581.2998</ele>
        <time>2020-02-18T12:23:00+01:00</time>
      </trkpt>
      <trkpt lat="46.90051" lon="4.34862">
        <ele>581.4004</ele>
        <time>2020-02-18T12:23:05+01:00</time>
      </trkpt>
      <trkpt lat="46.90027" lon="4.34892">
        <ele>580.7998</ele>
        <time>2020-02-18T12:23:25+01:00</time>
      </trkpt>
      <trkpt lat="46.89994" lon="4.34926">
        <ele>580.7998</ele>
        <time>2020-02-18T12:23:50+01:00</time>
      </trkpt>
      <trkpt lat="46.89987" lon="4.34932">
        <ele>580.7998</ele>
        <time>2020-02-18T12:23:55+01:00</time>
      </trkpt>
      <trkpt lat="46.8998" lon="4.34939">
        <ele>580.6006</ele>
        <time>2020-02-18T12:24:00+01:00</time>
      </trkpt>
      <trkpt lat="46.89974" lon="4.34945">
        <ele>580.6006</ele>
        <time>2020-02-18T12:24:05+01:00</time>
      </trkpt>
      <trkpt lat="46.89967" lon="4.34953">
        <ele>580.7002</ele>
        <time>2020-02-18T12:24:10+01:00</time>
      </trkpt>
      <trkpt lat="46.89953" lon="4.34966">
        <ele>580.4004</ele>
        <time>2020-02-18T12:24:20+01:00</time>
      </trkpt>
      <trkpt lat="46.89946" lon="4.34972">
        <ele>580.4004</ele>
        <time>2020-02-18T12:24:25+01:00</time>
      </trkpt>
      <trkpt lat="46.89934" lon="4.34986">
        <ele>579.9004</ele>
        <time>2020-02-18T12:24:35+01:00</time>
      </trkpt>
      <trkpt lat="46.89927" lon="4.34993">
        <ele>579.1006</ele>
        <time>2020-02-18T12:24:40+01:00</time>
      </trkpt>
      <trkpt lat="46.89917" lon="4.35015">
        <ele>578.1006</ele>
        <time>2020-02-18T12:24:50+01:00</time>
      </trkpt>
      <trkpt lat="46.89905" lon="4.35031">
        <ele>576.7002</ele>
        <time>2020-02-18T12:25:00+01:00</time>
      </trkpt>
      <trkpt lat="46.89898" lon="4.35041">
        <ele>576.5</ele>
        <time>2020-02-18T12:25:05+01:00</time>
      </trkpt>
      <trkpt lat="46.89891" lon="4.35048">
        <ele>575.1006</ele>
        <time>2020-02-18T12:25:10+01:00</time>
      </trkpt>
      <trkpt lat="46.89879" lon="4.3506">
        <ele>573.2998</ele>
        <time>2020-02-18T12:25:20+01:00</time>
      </trkpt>
      <trkpt lat="46.89871" lon="4.35072">
        <ele>573.2998</ele>
        <time>2020-02-18T12:25:30+01:00</time>
      </trkpt>
      <trkpt lat="46.89853" lon="4.35082">
        <ele>571.2998</ele>
        <time>2020-02-18T12:25:40+01:00</time>
      </trkpt>
      <trkpt lat="46.8983" lon="4.35105">
        <ele>568.6006</ele>
        <time>2020-02-18T12:25:55+01:00</time>
      </trkpt>
      <trkpt lat="46.89812" lon="4.35126">
        <ele>566.9004</ele>
        <time>2020-02-18T12:26:10+01:00</time>
      </trkpt>
      <trkpt lat="46.89806" lon="4.35134">
        <ele>565.9004</ele>
        <time>2020-02-18T12:26:15+01:00</time>
      </trkpt>
      <trkpt lat="46.89801" lon="4.35139">
        <ele>565.9004</ele>
        <time>2020-02-18T12:26:20+01:00</time>
      </trkpt>
      <trkpt lat="46.89787" lon="4.35155">
        <ele>565</ele>
        <time>2020-02-18T12:26:30+01:00</time>
      </trkpt>
      <trkpt lat="46.89781" lon="4.35163">
        <ele>564.2998</ele>
        <time>2020-02-18T12:26:35+01:00</time>
      </trkpt>
      <trkpt lat="46.89763" lon="4.35184">
        <ele>563.9004</ele>
        <time>2020-02-18T12:26:50+01:00</time>
      </trkpt>
      <trkpt lat="46.89744" lon="4.35208">
        <ele>563.1006</ele>
        <time>2020-02-18T12:27:05+01:00</time>
      </trkpt>
      <trkpt lat="46.89719" lon="4.35236">
        <ele>562.7002</ele>
        <time>2020-02-18T12:27:25+01:00</time>
      </trkpt>
      <trkpt lat="46.89713" lon="4.35243">
        <ele>562.2002</ele>
        <time>2020-02-18T12:27:30+01:00</time>
      </trkpt>
      <trkpt lat="46.89708" lon="4.35247">
        <ele>562.2002</ele>
        <time>2020-02-18T12:27:35+01:00</time>
      </trkpt>
      <trkpt lat="46.89696" lon="4.35262">
        <ele>562</ele>
        <time>2020-02-18T12:27:45+01:00</time>
      </trkpt>
      <trkpt lat="46.8969" lon="4.35268">
        <ele>562</ele>
        <time>2020-02-18T12:27:50+01:00</time>
      </trkpt>
      <trkpt lat="46.89653" lon="4.35312">
        <ele>562</ele>
        <time>2020-02-18T12:28:20+01:00</time>
      </trkpt>
      <trkpt lat="46.89628" lon="4.3534">
        <ele>562.7002</ele>
        <time>2020-02-18T12:28:40+01:00</time>
      </trkpt>
      <trkpt lat="46.89622" lon="4.35347">
        <ele>562.7002</ele>
        <time>2020-02-18T12:28:45+01:00</time>
      </trkpt>
      <trkpt lat="46.89616" lon="4.35354">
        <ele>562.7998</ele>
        <time>2020-02-18T12:28:50+01:00</time>
      </trkpt>
      <trkpt lat="46.89606" lon="4.35367">
        <ele>562.5</ele>
        <time>2020-02-18T12:29:00+01:00</time>
      </trkpt>
      <trkpt lat="46.89587" lon="4.35388">
        <ele>562.4004</ele>
        <time>2020-02-18T12:29:15+01:00</time>
      </trkpt>
      <trkpt lat="46.89574" lon="4.35402">
        <ele>562.1006</ele>
        <time>2020-02-18T12:29:25+01:00</time>
      </trkpt>
      <trkpt lat="46.89562" lon="4.35416">
        <ele>562.1006</ele>
        <time>2020-02-18T12:29:35+01:00</time>
      </trkpt>
      <trkpt lat="46.89549" lon="4.3543">
        <ele>562.2002</ele>
        <time>2020-02-18T12:29:45+01:00</time>
      </trkpt>
      <trkpt lat="46.89543" lon="4.35437">
        <ele>562.4004</ele>
        <time>2020-02-18T12:29:50+01:00</time>
      </trkpt>
      <trkpt lat="46.89537" lon="4.35444">
        <ele>562.2998</ele>
        <time>2020-02-18T12:29:55+01:00</time>
      </trkpt>
      <trkpt lat="46.89531" lon="4.35452">
        <ele>562.2998</ele>
        <time>2020-02-18T12:30:00+01:00</time>
      </trkpt>
      <trkpt lat="46.89518" lon="4.35466">
        <ele>562.2998</ele>
        <time>2020-02-18T12:30:10+01:00</time>
      </trkpt>
      <trkpt lat="46.895" lon="4.35487">
        <ele>562</ele>
        <time>2020-02-18T12:30:25+01:00</time>
      </trkpt>
      <trkpt lat="46.89493" lon="4.35495">
        <ele>561.7998</ele>
        <time>2020-02-18T12:30:30+01:00</time>
      </trkpt>
      <trkpt lat="46.89487" lon="4.35502">
        <ele>561.6006</ele>
        <time>2020-02-18T12:30:35+01:00</time>
      </trkpt>
      <trkpt lat="46.89481" lon="4.35509">
        <ele>561.1006</ele>
        <time>2020-02-18T12:30:40+01:00</time>
      </trkpt>
      <trkpt lat="46.89475" lon="4.35517">
        <ele>560.7998</ele>
        <time>2020-02-18T12:30:45+01:00</time>
      </trkpt>
      <trkpt lat="46.89462" lon="4.35531">
        <ele>559.9004</ele>
        <time>2020-02-18T12:30:55+01:00</time>
      </trkpt>
      <trkpt lat="46.89455" lon="4.35538">
        <ele>559.5</ele>
        <time>2020-02-18T12:31:00+01:00</time>
      </trkpt>
      <trkpt lat="46.89449" lon="4.35545">
        <ele>559</ele>
        <time>2020-02-18T12:31:05+01:00</time>
      </trkpt>
      <trkpt lat="46.89436" lon="4.35559">
        <ele>558.1006</ele>
        <time>2020-02-18T12:31:15+01:00</time>
      </trkpt>
      <trkpt lat="46.89424" lon="4.35572">
        <ele>557.4004</ele>
        <time>2020-02-18T12:31:25+01:00</time>
      </trkpt>
      <trkpt lat="46.89399" lon="4.356">
        <ele>556.4004</ele>
        <time>2020-02-18T12:31:45+01:00</time>
      </trkpt>
      <trkpt lat="46.89388" lon="4.35614">
        <ele>555.9004</ele>
        <time>2020-02-18T12:31:55+01:00</time>
      </trkpt>
      <trkpt lat="46.89376" lon="4.35628">
        <ele>555.5</ele>
        <time>2020-02-18T12:32:05+01:00</time>
      </trkpt>
      <trkpt lat="46.8937" lon="4.35634">
        <ele>555.2002</ele>
        <time>2020-02-18T12:32:10+01:00</time>
      </trkpt>
      <trkpt lat="46.89357" lon="4.35648">
        <ele>554.4004</ele>
        <time>2020-02-18T12:32:20+01:00</time>
      </trkpt>
      <trkpt lat="46.8932" lon="4.35691">
        <ele>553.5</ele>
        <time>2020-02-18T12:32:50+01:00</time>
      </trkpt>
      <trkpt lat="46.89308" lon="4.35706">
        <ele>553.6006</ele>
        <time>2020-02-18T12:33:00+01:00</time>
      </trkpt>
      <trkpt lat="46.89289" lon="4.35727">
        <ele>553.5</ele>
        <time>2020-02-18T12:33:15+01:00</time>
      </trkpt>
      <trkpt lat="46.89254" lon="4.35762">
        <ele>552.5</ele>
        <time>2020-02-18T12:33:45+01:00</time>
      </trkpt>
      <trkpt lat="46.8925" lon="4.35765">
        <ele>552.2002</ele>
        <time>2020-02-18T12:33:50+01:00</time>
      </trkpt>
      <trkpt lat="46.89244" lon="4.35771">
        <ele>552</ele>
        <time>2020-02-18T12:33:55+01:00</time>
      </trkpt>
      <trkpt lat="46.89239" lon="4.35776">
        <ele>551.7998</ele>
        <time>2020-02-18T12:34:00+01:00</time>
      </trkpt>
      <trkpt lat="46.89217" lon="4.3579">
        <ele>551.1006</ele>
        <time>2020-02-18T12:34:15+01:00</time>
      </trkpt>
      <trkpt lat="46.89209" lon="4.35794">
        <ele>550.7002</ele>
        <time>2020-02-18T12:34:20+01:00</time>
      </trkpt>
      <trkpt lat="46.892" lon="4.35798">
        <ele>550.6006</ele>
        <time>2020-02-18T12:34:25+01:00</time>
      </trkpt>
      <trkpt lat="46.89183" lon="4.35804">
        <ele>550.2002</ele>
        <time>2020-02-18T12:34:35+01:00</time>
      </trkpt>
      <trkpt lat="46.89168" lon="4.35806">
        <ele>549.9004</ele>
        <time>2020-02-18T12:34:45+01:00</time>
      </trkpt>
      <trkpt lat="46.8915" lon="4.35808">
        <ele>549.7002</ele>
        <time>2020-02-18T12:34:55+01:00</time>
      </trkpt>
      <trkpt lat="46.89143" lon="4.35808">
        <ele>549.7002</ele>
        <time>2020-02-18T12:35:00+01:00</time>
      </trkpt>
      <trkpt lat="46.89135" lon="4.35808">
        <ele>549.6006</ele>
        <time>2020-02-18T12:35:05+01:00</time>
      </trkpt>
      <trkpt lat="46.89127" lon="4.35808">
        <ele>549.4004</ele>
        <time>2020-02-18T12:35:10+01:00</time>
      </trkpt>
      <trkpt lat="46.89111" lon="4.35808">
        <ele>549.2002</ele>
        <time>2020-02-18T12:35:20+01:00</time>
      </trkpt>
      <trkpt lat="46.89103" lon="4.35808">
        <ele>549.1006</ele>
        <time>2020-02-18T12:35:25+01:00</time>
      </trkpt>
      <trkpt lat="46.89095" lon="4.35808">
        <ele>549.1006</ele>
        <time>2020-02-18T12:35:30+01:00</time>
      </trkpt>
      <trkpt lat="46.89057" lon="4.35807">
        <ele>549.4004</ele>
        <time>2020-02-18T12:35:55+01:00</time>
      </trkpt>
      <trkpt lat="46.89048" lon="4.35807">
        <ele>549.6006</ele>
        <time>2020-02-18T12:36:00+01:00</time>
      </trkpt>
      <trkpt lat="46.8904" lon="4.35808">
        <ele>549.9004</ele>
        <time>2020-02-18T12:36:05+01:00</time>
      </trkpt>
      <trkpt lat="46.89019" lon="4.35806">
        <ele>550.2998</ele>
        <time>2020-02-18T12:36:20+01:00</time>
      </trkpt>
      <trkpt lat="46.89013" lon="4.35807">
        <ele>550.5</ele>
        <time>2020-02-18T12:36:25+01:00</time>
      </trkpt>
      <trkpt lat="46.89003" lon="4.35806">
        <ele>550.7002</ele>
        <time>2020-02-18T12:36:30+01:00</time>
      </trkpt>
      <trkpt lat="46.88996" lon="4.35807">
        <ele>550.9004</ele>
        <time>2020-02-18T12:36:35+01:00</time>
      </trkpt>
      <trkpt lat="46.88988" lon="4.35808">
        <ele>551.1006</ele>
        <time>2020-02-18T12:36:40+01:00</time>
      </trkpt>
      <trkpt lat="46.88974" lon="4.35808">
        <ele>551.4004</ele>
        <time>2020-02-18T12:36:50+01:00</time>
      </trkpt>
      <trkpt lat="46.88958" lon="4.35809">
        <ele>552</ele>
        <time>2020-02-18T12:37:00+01:00</time>
      </trkpt>
      <trkpt lat="46.88936" lon="4.35807">
        <ele>552.6006</ele>
        <time>2020-02-18T12:37:15+01:00</time>
      </trkpt>
      <trkpt lat="46.88929" lon="4.35806">
        <ele>552.9004</ele>
        <time>2020-02-18T12:37:20+01:00</time>
      </trkpt>
      <trkpt lat="46.88922" lon="4.35806">
        <ele>553.2002</ele>
        <time>2020-02-18T12:37:25+01:00</time>
      </trkpt>
      <trkpt lat="46.88893" lon="4.3581">
        <ele>552.9004</ele>
        <time>2020-02-18T12:37:45+01:00</time>
      </trkpt>
      <trkpt lat="46.88889" lon="4.35816">
        <ele>552.9004</ele>
        <time>2020-02-18T12:37:50+01:00</time>
      </trkpt>
      <trkpt lat="46.88888" lon="4.35825">
        <ele>552.7998</ele>
        <time>2020-02-18T12:37:55+01:00</time>
      </trkpt>
      <trkpt lat="46.88887" lon="4.35835">
        <ele>552.7998</ele>
        <time>2020-02-18T12:38:00+01:00</time>
      </trkpt>
      <trkpt lat="46.88884" lon="4.35854">
        <ele>553</ele>
        <time>2020-02-18T12:38:10+01:00</time>
      </trkpt>
      <trkpt lat="46.88882" lon="4.35865">
        <ele>553.1006</ele>
        <time>2020-02-18T12:38:15+01:00</time>
      </trkpt>
      <trkpt lat="46.88877" lon="4.35887">
        <ele>553.2002</ele>
        <time>2020-02-18T12:38:25+01:00</time>
      </trkpt>
      <trkpt lat="46.88871" lon="4.35906">
        <ele>553.1006</ele>
        <time>2020-02-18T12:38:35+01:00</time>
      </trkpt>
      <trkpt lat="46.88865" lon="4.35925">
        <ele>553.7002</ele>
        <time>2020-02-18T12:38:45+01:00</time>
      </trkpt>
      <trkpt lat="46.88863" lon="4.35933">
        <ele>554</ele>
        <time>2020-02-18T12:38:50+01:00</time>
      </trkpt>
      <trkpt lat="46.88861" lon="4.35944">
        <ele>555.1006</ele>
        <time>2020-02-18T12:38:55+01:00</time>
      </trkpt>
      <trkpt lat="46.88861" lon="4.35978">
        <ele>557.9004</ele>
        <time>2020-02-18T12:39:10+01:00</time>
      </trkpt>
      <trkpt lat="46.88858" lon="4.36003">
        <ele>559.7998</ele>
        <time>2020-02-18T12:39:25+01:00</time>
      </trkpt>
      <trkpt lat="46.88839" lon="4.36008">
        <ele>560.7998</ele>
        <time>2020-02-18T12:39:35+01:00</time>
      </trkpt>
      <trkpt lat="46.88818" lon="4.36">
        <ele>560.6</ele>
      </trkpt>
      <trkpt lat="46.88803" lon="4.36024">
        <ele>562.6006</ele>
        <time>2020-02-18T12:40:00+01:00</time>
      </trkpt>
      <trkpt lat="46.88788" lon="4.3604">
        <ele>563.7998</ele>
        <time>2020-02-18T12:40:15+01:00</time>
      </trkpt>
      <trkpt lat="46.88782" lon="4.36045">
        <ele>563.6006</ele>
        <time>2020-02-18T12:40:20+01:00</time>
      </trkpt>
      <trkpt lat="46.88759" lon="4.36066">
        <ele>565.2002</ele>
        <time>2020-02-18T12:40:35+01:00</time>
      </trkpt>
      <trkpt lat="46.88728" lon="4.36089">
        <ele>564.7998</ele>
        <time>2020-02-18T12:40:55+01:00</time>
      </trkpt>
      <trkpt lat="46.88714" lon="4.36101">
        <ele>564.6006</ele>
        <time>2020-02-18T12:41:05+01:00</time>
      </trkpt>
      <trkpt lat="46.88699" lon="4.36096">
        <ele>562.4</ele>
        <time>2020-02-18T12:41:15+01:00</time>
      </trkpt>
      <trkpt lat="46.88687" lon="4.36119">
        <ele>561.6</ele>
        <time>2020-02-18T12:41:20+01:00</time>
      </trkpt>
      <trkpt lat="46.88668" lon="4.36142">
        <ele>560.4</ele>
        <time>2020-02-18T12:41:40+01:00</time>
      </trkpt>
      <trkpt lat="46.88662" lon="4.36151">
        <ele>560</ele>
        <time>2020-02-18T12:41:45+01:00</time>
      </trkpt>
      <trkpt lat="46.88653" lon="4.3616">
        <ele>559.4</ele>
        <time>2020-02-18T12:41:50+01:00</time>
      </trkpt>
      <trkpt lat="46.88647" lon="4.3618">
        <ele>559.2</ele>
        <time>2020-02-18T12:42:05+01:00</time>
      </trkpt>
      <trkpt lat="46.88643" lon="4.36188">
        <ele>561.9004</ele>
        <time>2020-02-18T12:42:10+01:00</time>
      </trkpt>
      <trkpt lat="46.88636" lon="4.36195">
        <ele>561.4004</ele>
        <time>2020-02-18T12:42:15+01:00</time>
      </trkpt>
      <trkpt lat="46.88629" lon="4.362">
        <ele>561.1006</ele>
        <time>2020-02-18T12:42:20+01:00</time>
      </trkpt>
      <trkpt lat="46.88618" lon="4.36215">
        <ele>560.6006</ele>
        <time>2020-02-18T12:42:30+01:00</time>
      </trkpt>
      <trkpt lat="46.88599" lon="4.36232">
        <ele>559.7998</ele>
        <time>2020-02-18T12:42:45+01:00</time>
      </trkpt>
      <trkpt lat="46.88529" lon="4.36283">
        <ele>557.7998</ele>
        <time>2020-02-18T12:43:40+01:00</time>
      </trkpt>
      <trkpt lat="46.88516" lon="4.36297">
        <ele>556.7998</ele>
        <time>2020-02-18T12:43:50+01:00</time>
      </trkpt>
      <trkpt lat="46.88509" lon="4.36303">
        <ele>556.2998</ele>
        <time>2020-02-18T12:43:55+01:00</time>
      </trkpt>
      <trkpt lat="46.88501" lon="4.36311">
        <ele>555.7002</ele>
        <time>2020-02-18T12:44:00+01:00</time>
      </trkpt>
      <trkpt lat="46.88482" lon="4.36317">
        <ele>553.6</ele>
        <time>2020-02-18T12:44:10+01:00</time>
      </trkpt>
      <trkpt lat="46.88467" lon="4.36329">
        <ele>552.5</ele>
        <time>2020-02-18T12:44:25+01:00</time>
      </trkpt>
      <trkpt lat="46.88453" lon="4.36341">
        <ele>551.1</ele>
        <time>2020-02-18T12:44:35+01:00</time>
      </trkpt>
      <trkpt lat="46.88451" lon="4.36349">
        <ele>551.6006</ele>
        <time>2020-02-18T12:44:40+01:00</time>
      </trkpt>
      <trkpt lat="46.88443" lon="4.36355">
        <ele>550.5</ele>
        <time>2020-02-18T12:44:45+01:00</time>
      </trkpt>
      <trkpt lat="46.88437" lon="4.36357">
        <ele>549.1006</ele>
        <time>2020-02-18T12:44:50+01:00</time>
      </trkpt>
      <trkpt lat="46.88426" lon="4.36363">
        <ele>548.4004</ele>
        <time>2020-02-18T12:45:00+01:00</time>
      </trkpt>
      <trkpt lat="46.88421" lon="4.36369">
        <ele>547.1006</ele>
        <time>2020-02-18T12:45:05+01:00</time>
      </trkpt>
      <trkpt lat="46.88399" lon="4.36375">
        <ele>544.1006</ele>
        <time>2020-02-18T12:45:20+01:00</time>
      </trkpt>
      <trkpt lat="46.88379" lon="4.3638">
        <ele>543.1006</ele>
        <time>2020-02-18T12:45:35+01:00</time>
      </trkpt>
      <trkpt lat="46.88368" lon="4.3638">
        <ele>540.9</ele>
        <time>2020-02-18T12:45:45+01:00</time>
      </trkpt>
      <trkpt lat="46.88356" lon="4.36379">
        <ele>540</ele>
        <time>2020-02-18T12:45:55+01:00</time>
      </trkpt>
      <trkpt lat="46.88346" lon="4.36382">
        <ele>538.9</ele>
        <time>2020-02-18T12:46:00+01:00</time>
      </trkpt>
      <trkpt lat="46.88335" lon="4.36383">
        <ele>538</ele>
        <time>2020-02-18T12:46:05+01:00</time>
      </trkpt>
      <trkpt lat="46.88297" lon="4.36385">
        <ele>535.6</ele>
        <time>2020-02-18T12:46:30+01:00</time>
      </trkpt>
      <trkpt lat="46.88278" lon="4.36391">
        <ele>537.4004</ele>
        <time>2020-02-18T12:46:45+01:00</time>
      </trkpt>
      <trkpt lat="46.8826" lon="4.3639">
        <ele>536.1006</ele>
        <time>2020-02-18T12:47:00+01:00</time>
      </trkpt>
      <trkpt lat="46.88252" lon="4.36394">
        <ele>535.7002</ele>
        <time>2020-02-18T12:47:05+01:00</time>
      </trkpt>
      <trkpt lat="46.8824" lon="4.36399">
        <ele>534.1006</ele>
        <time>2020-02-18T12:47:15+01:00</time>
      </trkpt>
      <trkpt lat="46.88228" lon="4.36408">
        <ele>532.7002</ele>
        <time>2020-02-18T12:47:25+01:00</time>
      </trkpt>
      <trkpt lat="46.88223" lon="4.36414">
        <ele>532.4004</ele>
        <time>2020-02-18T12:47:30+01:00</time>
      </trkpt>
      <trkpt lat="46.88205" lon="4.36433">
        <ele>531</ele>
        <time>2020-02-18T12:47:45+01:00</time>
      </trkpt>
      <trkpt lat="46.88185" lon="4.36445">
        <ele>530.7002</ele>
        <time>2020-02-18T12:47:55+01:00</time>
      </trkpt>
      <trkpt lat="46.88178" lon="4.36445">
        <ele>530.5</ele>
        <time>2020-02-18T12:48:00+01:00</time>
      </trkpt>
      <trkpt lat="46.88164" lon="4.36451">
        <ele>530.2998</ele>
        <time>2020-02-18T12:48:10+01:00</time>
      </trkpt>
      <trkpt lat="46.88162" lon="4.36455">
        <ele>530.2998</ele>
        <time>2020-02-18T12:48:15+01:00</time>
      </trkpt>
      <trkpt lat="46.88163" lon="4.36461">
        <ele>530.5</ele>
        <time>2020-02-18T12:48:20+01:00</time>
      </trkpt>
      <trkpt lat="46.88166" lon="4.36471">
        <ele>530.7002</ele>
        <time>2020-02-18T12:48:25+01:00</time>
      </trkpt>
      <trkpt lat="46.88168" lon="4.36478">
        <ele>530.9004</ele>
        <time>2020-02-18T12:48:30+01:00</time>
      </trkpt>
      <trkpt lat="46.88174" lon="4.36491">
        <ele>531.2002</ele>
        <time>2020-02-18T12:48:40+01:00</time>
      </trkpt>
      <trkpt lat="46.88189" lon="4.36501">
        <ele>528.8</ele>
      </trkpt>
      <trkpt lat="46.882" lon="4.36524">
        <ele>532.5</ele>
        <time>2020-02-18T12:49:10+01:00</time>
      </trkpt>
      <trkpt lat="46.88207" lon="4.36544">
        <ele>533.7998</ele>
        <time>2020-02-18T12:49:20+01:00</time>
      </trkpt>
      <trkpt lat="46.8821" lon="4.36561">
        <ele>534.4004</ele>
        <time>2020-02-18T12:49:30+01:00</time>
      </trkpt>
      <trkpt lat="46.8821" lon="4.3657">
        <ele>535</ele>
        <time>2020-02-18T12:49:35+01:00</time>
      </trkpt>
      <trkpt lat="46.88222" lon="4.366">
        <ele>536.2998</ele>
        <time>2020-02-18T12:49:50+01:00</time>
      </trkpt>
      <trkpt lat="46.88226" lon="4.3661">
        <ele>536.9004</ele>
        <time>2020-02-18T12:49:55+01:00</time>
      </trkpt>
      <trkpt lat="46.88235" lon="4.36633">
        <ele>539.7998</ele>
        <time>2020-02-18T12:50:10+01:00</time>
      </trkpt>
      <trkpt lat="46.88237" lon="4.36639">
        <ele>540.6006</ele>
        <time>2020-02-18T12:50:15+01:00</time>
      </trkpt>
      <trkpt lat="46.88239" lon="4.36645">
        <ele>540.6006</ele>
        <time>2020-02-18T12:50:20+01:00</time>
      </trkpt>
      <trkpt lat="46.88242" lon="4.36654">
        <ele>541.4004</ele>
        <time>2020-02-18T12:50:30+01:00</time>
      </trkpt>
      <trkpt lat="46.88246" lon="4.36659">
        <ele>541.9004</ele>
        <time>2020-02-18T12:50:35+01:00</time>
      </trkpt>
      <trkpt lat="46.88247" lon="4.36667">
        <ele>542.7002</ele>
        <time>2020-02-18T12:50:45+01:00</time>
      </trkpt>
      <trkpt lat="46.88251" lon="4.36676">
        <ele>543.2002</ele>
        <time>2020-02-18T12:50:50+01:00</time>
      </trkpt>
      <trkpt lat="46.88254" lon="4.36682">
        <ele>544</ele>
        <time>2020-02-18T12:50:55+01:00</time>
      </trkpt>
      <trkpt lat="46.88257" lon="4.36686">
        <ele>543.7998</ele>
        <time>2020-02-18T12:51:00+01:00</time>
      </trkpt>
      <trkpt lat="46.88263" lon="4.36694">
        <ele>544.5</ele>
        <time>2020-02-18T12:51:05+01:00</time>
      </trkpt>
      <trkpt lat="46.8827" lon="4.36705">
        <ele>545.2998</ele>
        <time>2020-02-18T12:51:15+01:00</time>
      </trkpt>
      <trkpt lat="46.8828" lon="4.36718">
        <ele>546.7998</ele>
        <time>2020-02-18T12:51:25+01:00</time>
      </trkpt>
      <trkpt lat="46.88285" lon="4.36725">
        <ele>547.6006</ele>
        <time>2020-02-18T12:51:30+01:00</time>
      </trkpt>
      <trkpt lat="46.8829" lon="4.36733">
        <ele>548.4004</ele>
        <time>2020-02-18T12:51:35+01:00</time>
      </trkpt>
      <trkpt lat="46.88291" lon="4.3674">
        <ele>548.4004</ele>
        <time>2020-02-18T12:51:40+01:00</time>
      </trkpt>
      <trkpt lat="46.88291" lon="4.3677">
        <ele>550.7002</ele>
        <time>2020-02-18T12:51:55+01:00</time>
      </trkpt>
      <trkpt lat="46.8829" lon="4.36778">
        <ele>551.1006</ele>
        <time>2020-02-18T12:52:00+01:00</time>
      </trkpt>
      <trkpt lat="46.88288" lon="4.368">
        <ele>551.9004</ele>
        <time>2020-02-18T12:52:10+01:00</time>
      </trkpt>
      <trkpt lat="46.88284" lon="4.36838">
        <ele>552.9004</ele>
        <time>2020-02-18T12:52:30+01:00</time>
      </trkpt>
      <trkpt lat="46.88285" lon="4.36847">
        <ele>552.9004</ele>
        <time>2020-02-18T12:52:35+01:00</time>
      </trkpt>
      <trkpt lat="46.88289" lon="4.36876">
        <ele>553</ele>
        <time>2020-02-18T12:52:50+01:00</time>
      </trkpt>
      <trkpt lat="46.8829" lon="4.36895">
        <ele>553.1006</ele>
        <time>2020-02-18T12:53:00+01:00</time>
      </trkpt>
      <trkpt lat="46.88291" lon="4.36904">
        <ele>553.2998</ele>
        <time>2020-02-18T12:53:05+01:00</time>
      </trkpt>
      <trkpt lat="46.88292" lon="4.36915">
        <ele>553.4004</ele>
        <time>2020-02-18T12:53:10+01:00</time>
      </trkpt>
      <trkpt lat="46.88293" lon="4.36925">
        <ele>553.5</ele>
        <time>2020-02-18T12:53:15+01:00</time>
      </trkpt>
      <trkpt lat="46.88297" lon="4.36956">
        <ele>554.1006</ele>
        <time>2020-02-18T12:53:30+01:00</time>
      </trkpt>
      <trkpt lat="46.88298" lon="4.36972">
        <ele>554.2002</ele>
        <time>2020-02-18T12:53:40+01:00</time>
      </trkpt>
      <trkpt lat="46.88284" lon="4.36982">
        <ele>553.9004</ele>
        <time>2020-02-18T12:53:50+01:00</time>
      </trkpt>
      <trkpt lat="46.88269" lon="4.36992">
        <ele>553.7002</ele>
        <time>2020-02-18T12:54:00+01:00</time>
      </trkpt>
      <trkpt lat="46.88259" lon="4.36999">
        <ele>553.2998</ele>
        <time>2020-02-18T12:54:05+01:00</time>
      </trkpt>
      <trkpt lat="46.88231" lon="4.37018">
        <ele>552.7998</ele>
        <time>2020-02-18T12:54:25+01:00</time>
      </trkpt>
      <trkpt lat="46.88225" lon="4.37023">
        <ele>552.7002</ele>
        <time>2020-02-18T12:54:30+01:00</time>
      </trkpt>
      <trkpt lat="46.88218" lon="4.37029">
        <ele>552.7002</ele>
        <time>2020-02-18T12:54:35+01:00</time>
      </trkpt>
      <trkpt lat="46.88211" lon="4.37034">
        <ele>552.6006</ele>
        <time>2020-02-18T12:54:40+01:00</time>
      </trkpt>
      <trkpt lat="46.88203" lon="4.3704">
        <ele>552.4004</ele>
        <time>2020-02-18T12:54:45+01:00</time>
      </trkpt>
      <trkpt lat="46.88197" lon="4.37046">
        <ele>552</ele>
        <time>2020-02-18T12:54:50+01:00</time>
      </trkpt>
      <trkpt lat="46.88186" lon="4.37061">
        <ele>550.7998</ele>
        <time>2020-02-18T12:55:00+01:00</time>
      </trkpt>
      <trkpt lat="46.88177" lon="4.37079">
        <ele>549.2002</ele>
        <time>2020-02-18T12:55:10+01:00</time>
      </trkpt>
      <trkpt lat="46.88168" lon="4.37093">
        <ele>548.1006</ele>
        <time>2020-02-18T12:55:20+01:00</time>
      </trkpt>
      <trkpt lat="46.88162" lon="4.37102">
        <ele>547.1006</ele>
        <time>2020-02-18T12:55:25+01:00</time>
      </trkpt>
      <trkpt lat="46.88158" lon="4.3711">
        <ele>546.4004</ele>
        <time>2020-02-18T12:55:30+01:00</time>
      </trkpt>
      <trkpt lat="46.88154" lon="4.37118">
        <ele>545.4004</ele>
        <time>2020-02-18T12:55:35+01:00</time>
      </trkpt>
      <trkpt lat="46.88148" lon="4.37125">
        <ele>544.5</ele>
        <time>2020-02-18T12:55:40+01:00</time>
      </trkpt>
      <trkpt lat="46.88143" lon="4.37133">
        <ele>543.6006</ele>
        <time>2020-02-18T12:55:45+01:00</time>
      </trkpt>
      <trkpt lat="46.88137" lon="4.37138">
        <ele>542.7998</ele>
        <time>2020-02-18T12:55:50+01:00</time>
      </trkpt>
      <trkpt lat="46.88125" lon="4.3715">
        <ele>541.7002</ele>
        <time>2020-02-18T12:56:00+01:00</time>
      </trkpt>
      <trkpt lat="46.88115" lon="4.37166">
        <ele>541</ele>
        <time>2020-02-18T12:56:15+01:00</time>
      </trkpt>
      <trkpt lat="46.88107" lon="4.37177">
        <ele>540.2998</ele>
        <time>2020-02-18T12:56:25+01:00</time>
      </trkpt>
      <trkpt lat="46.88102" lon="4.37185">
        <ele>540.1006</ele>
        <time>2020-02-18T12:56:30+01:00</time>
      </trkpt>
      <trkpt lat="46.8806" lon="4.37231">
        <ele>537.7998</ele>
        <time>2020-02-18T12:57:05+01:00</time>
      </trkpt>
      <trkpt lat="46.88054" lon="4.37239">
        <ele>537.7002</ele>
        <time>2020-02-18T12:57:10+01:00</time>
      </trkpt>
      <trkpt lat="46.88049" lon="4.37246">
        <ele>537.7002</ele>
        <time>2020-02-18T12:57:15+01:00</time>
      </trkpt>
      <trkpt lat="46.88045" lon="4.37253">
        <ele>537.7002</ele>
        <time>2020-02-18T12:57:20+01:00</time>
      </trkpt>
      <trkpt lat="46.88038" lon="4.37271">
        <ele>537.7998</ele>
        <time>2020-02-18T12:57:30+01:00</time>
      </trkpt>
      <trkpt lat="46.88034" lon="4.3728">
        <ele>537.7998</ele>
        <time>2020-02-18T12:57:35+01:00</time>
      </trkpt>
      <trkpt lat="46.88025" lon="4.37299">
        <ele>537.6006</ele>
        <time>2020-02-18T12:57:45+01:00</time>
      </trkpt>
      <trkpt lat="46.8802" lon="4.37323">
        <ele>537.7002</ele>
        <time>2020-02-18T12:57:55+01:00</time>
      </trkpt>
      <trkpt lat="46.88015" lon="4.37344">
        <ele>537.2998</ele>
        <time>2020-02-18T12:58:05+01:00</time>
      </trkpt>
      <trkpt lat="46.88012" lon="4.37356">
        <ele>537.1006</ele>
        <time>2020-02-18T12:58:10+01:00</time>
      </trkpt>
      <trkpt lat="46.88002" lon="4.37392">
        <ele>536.2998</ele>
        <time>2020-02-18T12:58:25+01:00</time>
      </trkpt>
      <trkpt lat="46.87993" lon="4.37412">
        <ele>535.6006</ele>
        <time>2020-02-18T12:58:35+01:00</time>
      </trkpt>
      <trkpt lat="46.87984" lon="4.37431">
        <ele>535.4004</ele>
        <time>2020-02-18T12:58:45+01:00</time>
      </trkpt>
      <trkpt lat="46.87975" lon="4.37459">
        <ele>535</ele>
        <time>2020-02-18T12:59:00+01:00</time>
      </trkpt>
      <trkpt lat="46.87972" lon="4.37468">
        <ele>535</ele>
        <time>2020-02-18T12:59:05+01:00</time>
      </trkpt>
      <trkpt lat="46.87969" lon="4.37476">
        <ele>534.7998</ele>
        <time>2020-02-18T12:59:10+01:00</time>
      </trkpt>
      <trkpt lat="46.87962" lon="4.3751">
        <ele>534.2002</ele>
        <time>2020-02-18T12:59:30+01:00</time>
      </trkpt>
      <trkpt lat="46.87958" lon="4.37526">
        <ele>533.7998</ele>
        <time>2020-02-18T12:59:40+01:00</time>
      </trkpt>
      <trkpt lat="46.87954" lon="4.37537">
        <ele>533.5</ele>
        <time>2020-02-18T12:59:45+01:00</time>
      </trkpt>
      <trkpt lat="46.87944" lon="4.37564">
        <ele>532.5</ele>
        <time>2020-02-18T13:00:00+01:00</time>
      </trkpt>
      <trkpt lat="46.87937" lon="4.37572">
        <ele>532.2998</ele>
        <time>2020-02-18T13:00:05+01:00</time>
      </trkpt>
      <trkpt lat="46.87931" lon="4.37581">
        <ele>531.9004</ele>
        <time>2020-02-18T13:00:10+01:00</time>
      </trkpt>
      <trkpt lat="46.87925" lon="4.3759">
        <ele>531.5</ele>
        <time>2020-02-18T13:00:15+01:00</time>
      </trkpt>
      <trkpt lat="46.87916" lon="4.37604">
        <ele>530.7002</ele>
        <time>2020-02-18T13:00:25+01:00</time>
      </trkpt>
      <trkpt lat="46.87913" lon="4.37608">
        <ele>530.2002</ele>
        <time>2020-02-18T13:00:30+01:00</time>
      </trkpt>
      <trkpt lat="46.87902" lon="4.37622">
        <ele>529.7002</ele>
        <time>2020-02-18T13:00:40+01:00</time>
      </trkpt>
      <trkpt lat="46.87894" lon="4.37629">
        <ele>529.2002</ele>
        <time>2020-02-18T13:00:45+01:00</time>
      </trkpt>
      <trkpt lat="46.87888" lon="4.37631">
        <ele>529.1006</ele>
        <time>2020-02-18T13:00:50+01:00</time>
      </trkpt>
      <trkpt lat="46.87883" lon="4.37638">
        <ele>528.6006</ele>
        <time>2020-02-18T13:00:55+01:00</time>
      </trkpt>
      <trkpt lat="46.87872" lon="4.37653">
        <ele>527.7002</ele>
        <time>2020-02-18T13:01:05+01:00</time>
      </trkpt>
      <trkpt lat="46.87866" lon="4.37663">
        <ele>527.2002</ele>
        <time>2020-02-18T13:01:10+01:00</time>
      </trkpt>
      <trkpt lat="46.87857" lon="4.37677">
        <ele>526.6006</ele>
        <time>2020-02-18T13:01:20+01:00</time>
      </trkpt>
      <trkpt lat="46.87841" lon="4.37691">
        <ele>526</ele>
        <time>2020-02-18T13:01:35+01:00</time>
      </trkpt>
      <trkpt lat="46.87835" lon="4.37698">
        <ele>525.7002</ele>
        <time>2020-02-18T13:01:40+01:00</time>
      </trkpt>
      <trkpt lat="46.87832" lon="4.37706">
        <ele>525.7002</ele>
        <time>2020-02-18T13:01:45+01:00</time>
      </trkpt>
      <trkpt lat="46.87827" lon="4.37712">
        <ele>525.4004</ele>
        <time>2020-02-18T13:01:50+01:00</time>
      </trkpt>
      <trkpt lat="46.87807" lon="4.37721">
        <ele>524.2002</ele>
        <time>2020-02-18T13:02:05+01:00</time>
      </trkpt>
      <trkpt lat="46.87801" lon="4.37719">
        <ele>523.6006</ele>
        <time>2020-02-18T13:02:10+01:00</time>
      </trkpt>
      <trkpt lat="46.87793" lon="4.37717">
        <ele>523.1006</ele>
        <time>2020-02-18T13:02:15+01:00</time>
      </trkpt>
      <trkpt lat="46.87786" lon="4.37715">
        <ele>522.6006</ele>
        <time>2020-02-18T13:02:20+01:00</time>
      </trkpt>
      <trkpt lat="46.87773" lon="4.37708">
        <ele>520.7998</ele>
        <time>2020-02-18T13:02:30+01:00</time>
      </trkpt>
      <trkpt lat="46.87759" lon="4.37692">
        <ele>517.5</ele>
        <time>2020-02-18T13:02:40+01:00</time>
      </trkpt>
      <trkpt lat="46.87751" lon="4.37696">
        <ele>519.1006</ele>
        <time>2020-02-18T13:02:45+01:00</time>
      </trkpt>
      <trkpt lat="46.87746" lon="4.37694">
        <ele>518.2998</ele>
        <time>2020-02-18T13:02:50+01:00</time>
      </trkpt>
      <trkpt lat="46.87735" lon="4.37686">
        <ele>516.1006</ele>
        <time>2020-02-18T13:03:00+01:00</time>
      </trkpt>
      <trkpt lat="46.87727" lon="4.37682">
        <ele>514.9004</ele>
        <time>2020-02-18T13:03:05+01:00</time>
      </trkpt>
      <trkpt lat="46.87717" lon="4.37677">
        <ele>512.9004</ele>
        <time>2020-02-18T13:03:15+01:00</time>
      </trkpt>
      <trkpt lat="46.8771" lon="4.37676">
        <ele>511.7002</ele>
        <time>2020-02-18T13:03:20+01:00</time>
      </trkpt>
      <trkpt lat="46.87705" lon="4.37674">
        <ele>510.7002</ele>
        <time>2020-02-18T13:03:25+01:00</time>
      </trkpt>
      <trkpt lat="46.8769" lon="4.37669">
        <ele>507.9004</ele>
        <time>2020-02-18T13:03:40+01:00</time>
      </trkpt>
      <trkpt lat="46.87685" lon="4.3767">
        <ele>506.9004</ele>
        <time>2020-02-18T13:03:45+01:00</time>
      </trkpt>
      <trkpt lat="46.87684" lon="4.37668">
        <ele>506.9004</ele>
        <time>2020-02-18T13:12:03+01:00</time>
      </trkpt>
      <trkpt lat="46.87686" lon="4.37663">
        <ele>507.6006</ele>
        <time>2020-02-18T13:12:08+01:00</time>
      </trkpt>
      <trkpt lat="46.87685" lon="4.37659">
        <ele>506.2002</ele>
        <time>2020-02-18T13:12:13+01:00</time>
      </trkpt>
      <trkpt lat="46.87684" lon="4.37656">
        <ele>506.2002</ele>
        <time>2020-02-18T13:12:18+01:00</time>
      </trkpt>
      <trkpt lat="46.87684" lon="4.37652">
        <ele>506.2002</ele>
        <time>2020-02-18T13:12:23+01:00</time>
      </trkpt>
      <trkpt lat="46.87686" lon="4.37648">
        <ele>507</ele>
        <time>2020-02-18T13:12:28+01:00</time>
      </trkpt>
      <trkpt lat="46.87689" lon="4.37643">
        <ele>507</ele>
        <time>2020-02-18T13:12:33+01:00</time>
      </trkpt>
      <trkpt lat="46.87695" lon="4.3763">
        <ele>504.3</ele>
        <time>2020-02-18T13:12:48+01:00</time>
      </trkpt>
      <trkpt lat="46.87697" lon="4.37623">
        <ele>504.4</ele>
        <time>2020-02-18T13:12:53+01:00</time>
      </trkpt>
      <trkpt lat="46.87698" lon="4.37599">
        <ele>503.9</ele>
        <time>2020-02-18T13:13:13+01:00</time>
      </trkpt>
      <trkpt lat="46.87689" lon="4.3758">
        <ele>501.8</ele>
        <time>2020-02-18T13:13:28+01:00</time>
      </trkpt>
      <trkpt lat="46.87677" lon="4.37582">
        <ele>504.2002</ele>
        <time>2020-02-18T13:13:38+01:00</time>
      </trkpt>
      <trkpt lat="46.87674" lon="4.37572">
        <ele>499</ele>
        <time>2020-02-18T13:13:43+01:00</time>
      </trkpt>
      <trkpt lat="46.87663" lon="4.3758">
        <ele>502</ele>
        <time>2020-02-18T13:13:53+01:00</time>
      </trkpt>
      <trkpt lat="46.87658" lon="4.37581">
        <ele>495.6</ele>
      </trkpt>
      <trkpt lat="46.87652" lon="4.37581">
        <ele>499.7998</ele>
        <time>2020-02-18T13:14:03+01:00</time>
      </trkpt>
      <trkpt lat="46.87646" lon="4.37581">
        <ele>498.7002</ele>
        <time>2020-02-18T13:14:08+01:00</time>
      </trkpt>
      <trkpt lat="46.87639" lon="4.37582">
        <ele>497.7998</ele>
        <time>2020-02-18T13:14:13+01:00</time>
      </trkpt>
      <trkpt lat="46.87633" lon="4.37581">
        <ele>495.6006</ele>
        <time>2020-02-18T13:14:18+01:00</time>
      </trkpt>
      <trkpt lat="46.87613" lon="4.37581">
        <ele>492.2998</ele>
        <time>2020-02-18T13:14:33+01:00</time>
      </trkpt>
      <trkpt lat="46.87606" lon="4.37581">
        <ele>491.2002</ele>
        <time>2020-02-18T13:14:38+01:00</time>
      </trkpt>
      <trkpt lat="46.87585" lon="4.3758">
        <ele>486.7998</ele>
        <time>2020-02-18T13:14:53+01:00</time>
      </trkpt>
      <trkpt lat="46.87578" lon="4.37579">
        <ele>485.7998</ele>
        <time>2020-02-18T13:14:58+01:00</time>
      </trkpt>
      <trkpt lat="46.87573" lon="4.37579">
        <ele>484.7998</ele>
        <time>2020-02-18T13:15:03+01:00</time>
      </trkpt>
      <trkpt lat="46.87563" lon="4.37582">
        <ele>484.2998</ele>
        <time>2020-02-18T13:15:13+01:00</time>
      </trkpt>
      <trkpt lat="46.8755" lon="4.37584">
        <ele>481.7998</ele>
        <time>2020-02-18T13:15:23+01:00</time>
      </trkpt>
      <trkpt lat="46.87548" lon="4.37586">
        <ele>481.7998</ele>
        <time>2020-02-18T13:15:28+01:00</time>
      </trkpt>
      <trkpt lat="46.8754" lon="4.37589">
        <ele>481.1006</ele>
        <time>2020-02-18T13:15:38+01:00</time>
      </trkpt>
      <trkpt lat="46.87518" lon="4.37575">
        <ele>478.2998</ele>
        <time>2020-02-18T13:16:03+01:00</time>
      </trkpt>
      <trkpt lat="46.87513" lon="4.3757">
        <ele>477.2998</ele>
        <time>2020-02-18T13:16:08+01:00</time>
      </trkpt>
      <trkpt lat="46.87508" lon="4.37566">
        <ele>476.6006</ele>
        <time>2020-02-18T13:16:13+01:00</time>
      </trkpt>
      <trkpt lat="46.87504" lon="4.37564">
        <ele>476.1006</ele>
        <time>2020-02-18T13:16:18+01:00</time>
      </trkpt>
      <trkpt lat="46.87487" lon="4.37552">
        <ele>474.6006</ele>
        <time>2020-02-18T13:16:33+01:00</time>
      </trkpt>
      <trkpt lat="46.87481" lon="4.37546">
        <ele>474.2998</ele>
        <time>2020-02-18T13:16:38+01:00</time>
      </trkpt>
      <trkpt lat="46.87463" lon="4.37532">
        <ele>474.1006</ele>
        <time>2020-02-18T13:16:53+01:00</time>
      </trkpt>
      <trkpt lat="46.87458" lon="4.37527">
        <ele>473.7998</ele>
        <time>2020-02-18T13:16:58+01:00</time>
      </trkpt>
      <trkpt lat="46.87449" lon="4.37517">
        <ele>473.6006</ele>
        <time>2020-02-18T13:17:08+01:00</time>
      </trkpt>
      <trkpt lat="46.87443" lon="4.37511">
        <ele>473.5</ele>
        <time>2020-02-18T13:17:13+01:00</time>
      </trkpt>
      <trkpt lat="46.87438" lon="4.37507">
        <ele>473.7998</ele>
        <time>2020-02-18T13:17:18+01:00</time>
      </trkpt>
      <trkpt lat="46.87427" lon="4.37496">
        <ele>474.1006</ele>
        <time>2020-02-18T13:17:28+01:00</time>
      </trkpt>
      <trkpt lat="46.87421" lon="4.37491">
        <ele>474.1006</ele>
        <time>2020-02-18T13:17:33+01:00</time>
      </trkpt>
      <trkpt lat="46.87413" lon="4.37485">
        <ele>474.2998</ele>
        <time>2020-02-18T13:17:43+01:00</time>
      </trkpt>
      <trkpt lat="46.87392" lon="4.37479">
        <ele>476.4004</ele>
        <time>2020-02-18T13:17:53+01:00</time>
      </trkpt>
      <trkpt lat="46.87389" lon="4.37482">
        <ele>476.6006</ele>
        <time>2020-02-18T13:17:58+01:00</time>
      </trkpt>
      <trkpt lat="46.87376" lon="4.37489">
        <ele>478.2002</ele>
        <time>2020-02-18T13:18:19+01:00</time>
      </trkpt>
      <trkpt lat="46.87368" lon="4.37495">
        <ele>479.7998</ele>
        <time>2020-02-18T13:18:29+01:00</time>
      </trkpt>
      <trkpt lat="46.87353" lon="4.37509">
        <ele>481.9004</ele>
        <time>2020-02-18T13:18:44+01:00</time>
      </trkpt>
      <trkpt lat="46.87302" lon="4.37483">
        <ele>487.2998</ele>
        <time>2020-02-18T13:19:29+01:00</time>
      </trkpt>
      <trkpt lat="46.87297" lon="4.37476">
        <ele>487.9004</ele>
        <time>2020-02-18T13:19:34+01:00</time>
      </trkpt>
      <trkpt lat="46.8728" lon="4.37447">
        <ele>490.2998</ele>
        <time>2020-02-18T13:19:54+01:00</time>
      </trkpt>
      <trkpt lat="46.87278" lon="4.37432">
        <ele>490</ele>
        <time>2020-02-18T13:20:04+01:00</time>
      </trkpt>
      <trkpt lat="46.87278" lon="4.37425">
        <ele>489.7998</ele>
        <time>2020-02-18T13:20:09+01:00</time>
      </trkpt>
      <trkpt lat="46.87276" lon="4.37404">
        <ele>489.5</ele>
        <time>2020-02-18T13:20:19+01:00</time>
      </trkpt>
      <trkpt lat="46.87273" lon="4.37392">
        <ele>490.7002</ele>
        <time>2020-02-18T13:20:24+01:00</time>
      </trkpt>
      <trkpt lat="46.87272" lon="4.37384">
        <ele>490.9004</ele>
        <time>2020-02-18T13:20:29+01:00</time>
      </trkpt>
      <trkpt lat="46.87277" lon="4.3735">
        <ele>491</ele>
        <time>2020-02-18T13:20:49+01:00</time>
      </trkpt>
      <trkpt lat="46.87281" lon="4.37334">
        <ele>490.2998</ele>
        <time>2020-02-18T13:20:59+01:00</time>
      </trkpt>
      <trkpt lat="46.87284" lon="4.37325">
        <ele>490.5</ele>
        <time>2020-02-18T13:21:04+01:00</time>
      </trkpt>
      <trkpt lat="46.87286" lon="4.37309">
        <ele>490.5</ele>
        <time>2020-02-18T13:21:14+01:00</time>
      </trkpt>
      <trkpt lat="46.87293" lon="4.37283">
        <ele>487.7</ele>
        <time>2020-02-18T13:21:24+01:00</time>
      </trkpt>
      <trkpt lat="46.87289" lon="4.37261">
        <ele>490</ele>
        <time>2020-02-18T13:21:39+01:00</time>
      </trkpt>
      <trkpt lat="46.87283" lon="4.37241">
        <ele>491.8</ele>
        <time>2020-02-18T13:21:44+01:00</time>
      </trkpt>
      <trkpt lat="46.87282" lon="4.37231">
        <ele>492</ele>
        <time>2020-02-18T13:21:49+01:00</time>
      </trkpt>
      <trkpt lat="46.87275" lon="4.37205">
        <ele>493.2</ele>
        <time>2020-02-18T13:22:04+01:00</time>
      </trkpt>
      <trkpt lat="46.87272" lon="4.37172">
        <ele>493.5</ele>
        <time>2020-02-18T13:22:24+01:00</time>
      </trkpt>
      <trkpt lat="46.87258" lon="4.37184">
        <ele>496.5</ele>
        <time>2020-02-18T13:22:39+01:00</time>
      </trkpt>
      <trkpt lat="46.87255" lon="4.37183">
        <ele>497.1</ele>
        <time>2020-02-18T13:22:44+01:00</time>
      </trkpt>
      <trkpt lat="46.87243" lon="4.372">
        <ele>499.5</ele>
        <time>2020-02-18T13:22:59+01:00</time>
      </trkpt>
      <trkpt lat="46.8724" lon="4.37209">
        <ele>500.5</ele>
        <time>2020-02-18T13:23:04+01:00</time>
      </trkpt>
      <trkpt lat="46.87234" lon="4.37225">
        <ele>499.7998</ele>
        <time>2020-02-18T13:23:14+01:00</time>
      </trkpt>
      <trkpt lat="46.87232" lon="4.37233">
        <ele>500.6006</ele>
        <time>2020-02-18T13:23:19+01:00</time>
      </trkpt>
      <trkpt lat="46.87228" lon="4.37251">
        <ele>501.2002</ele>
        <time>2020-02-18T13:23:29+01:00</time>
      </trkpt>
      <trkpt lat="46.87225" lon="4.37259">
        <ele>501</ele>
        <time>2020-02-18T13:23:34+01:00</time>
      </trkpt>
      <trkpt lat="46.87222" lon="4.37266">
        <ele>500.7998</ele>
        <time>2020-02-18T13:23:39+01:00</time>
      </trkpt>
      <trkpt lat="46.87217" lon="4.37278">
        <ele>502</ele>
        <time>2020-02-18T13:23:49+01:00</time>
      </trkpt>
      <trkpt lat="46.87216" lon="4.37287">
        <ele>503.2002</ele>
        <time>2020-02-18T13:23:54+01:00</time>
      </trkpt>
      <trkpt lat="46.87214" lon="4.37296">
        <ele>503.2002</ele>
        <time>2020-02-18T13:23:59+01:00</time>
      </trkpt>
      <trkpt lat="46.8721" lon="4.37302">
        <ele>504.5</ele>
        <time>2020-02-18T13:24:04+01:00</time>
      </trkpt>
      <trkpt lat="46.87206" lon="4.3731">
        <ele>504.4004</ele>
        <time>2020-02-18T13:24:09+01:00</time>
      </trkpt>
      <trkpt lat="46.87203" lon="4.37316">
        <ele>506</ele>
        <time>2020-02-18T13:24:14+01:00</time>
      </trkpt>
      <trkpt lat="46.872" lon="4.37339">
        <ele>509.9</ele>
        <time>2020-02-18T13:24:24+01:00</time>
      </trkpt>
      <trkpt lat="46.87197" lon="4.3736">
        <ele>510.5</ele>
        <time>2020-02-18T13:24:39+01:00</time>
      </trkpt>
      <trkpt lat="46.87194" lon="4.37371">
        <ele>511</ele>
        <time>2020-02-18T13:24:44+01:00</time>
      </trkpt>
      <trkpt lat="46.87192" lon="4.37385">
        <ele>511.3</ele>
      </trkpt>
      <trkpt lat="46.87186" lon="4.37399">
        <ele>513.1</ele>
        <time>2020-02-18T13:24:59+01:00</time>
      </trkpt>
      <trkpt lat="46.8718" lon="4.37409">
        <ele>514.9</ele>
      </trkpt>
      <trkpt lat="46.87176" lon="4.37414">
        <ele>515.9</ele>
        <time>2020-02-18T13:25:09+01:00</time>
      </trkpt>
      <trkpt lat="46.87169" lon="4.37419">
        <ele>518.3</ele>
        <time>2020-02-18T13:25:14+01:00</time>
      </trkpt>
      <trkpt lat="46.87166" lon="4.37415">
        <ele>519.2</ele>
        <time>2020-02-18T13:25:19+01:00</time>
      </trkpt>
      <trkpt lat="46.87162" lon="4.37423">
        <ele>518.2002</ele>
        <time>2020-02-18T13:25:29+01:00</time>
      </trkpt>
      <trkpt lat="46.87154" lon="4.37422">
        <ele>519.7002</ele>
        <time>2020-02-18T13:25:39+01:00</time>
      </trkpt>
      <trkpt lat="46.87148" lon="4.37427">
        <ele>521.2998</ele>
        <time>2020-02-18T13:25:54+01:00</time>
      </trkpt>
      <trkpt lat="46.87138" lon="4.37427">
        <ele>524.5</ele>
        <time>2020-02-18T13:26:09+01:00</time>
      </trkpt>
      <trkpt lat="46.8713" lon="4.37426">
        <ele>526.1006</ele>
        <time>2020-02-18T13:26:19+01:00</time>
      </trkpt>
      <trkpt lat="46.8713" lon="4.3743">
        <ele>526</ele>
        <time>2020-02-18T13:26:24+01:00</time>
      </trkpt>
      <trkpt lat="46.87128" lon="4.3743">
        <ele>526</ele>
        <time>2020-02-18T13:26:29+01:00</time>
      </trkpt>
      <trkpt lat="46.87126" lon="4.3743">
        <ele>527.5</ele>
        <time>2020-02-18T13:26:34+01:00</time>
      </trkpt>
      <trkpt lat="46.87124" lon="4.37431">
        <ele>527.5</ele>
        <time>2020-02-18T13:26:39+01:00</time>
      </trkpt>
      <trkpt lat="46.87118" lon="4.37433">
        <ele>528.9004</ele>
        <time>2020-02-18T13:26:49+01:00</time>
      </trkpt>
      <trkpt lat="46.87118" lon="4.37438">
        <ele>528.7002</ele>
        <time>2020-02-18T13:27:09+01:00</time>
      </trkpt>
      <trkpt lat="46.87115" lon="4.3744">
        <ele>530</ele>
        <time>2020-02-18T13:27:14+01:00</time>
      </trkpt>
      <trkpt lat="46.87107" lon="4.3744">
        <ele>531.2002</ele>
        <time>2020-02-18T13:27:24+01:00</time>
      </trkpt>
      <trkpt lat="46.87104" lon="4.37439">
        <ele>532.5</ele>
        <time>2020-02-18T13:27:29+01:00</time>
      </trkpt>
      <trkpt lat="46.87101" lon="4.37438">
        <ele>532.5</ele>
        <time>2020-02-18T13:27:34+01:00</time>
      </trkpt>
      <trkpt lat="46.87096" lon="4.37438">
        <ele>533.7998</ele>
        <time>2020-02-18T13:27:39+01:00</time>
      </trkpt>
      <trkpt lat="46.87084" lon="4.3744">
        <ele>536.2998</ele>
        <time>2020-02-18T13:27:54+01:00</time>
      </trkpt>
      <trkpt lat="46.87079" lon="4.37441">
        <ele>537.5</ele>
        <time>2020-02-18T13:27:59+01:00</time>
      </trkpt>
      <trkpt lat="46.87064" lon="4.37443">
        <ele>540.7998</ele>
        <time>2020-02-18T13:28:15+01:00</time>
      </trkpt>
      <trkpt lat="46.87059" lon="4.37443">
        <ele>540.7998</ele>
        <time>2020-02-18T13:28:20+01:00</time>
      </trkpt>
      <trkpt lat="46.8705" lon="4.37442">
        <ele>542.7002</ele>
        <time>2020-02-18T13:28:30+01:00</time>
      </trkpt>
      <trkpt lat="46.87027" lon="4.37452">
        <ele>545.4004</ele>
        <time>2020-02-18T13:28:55+01:00</time>
      </trkpt>
      <trkpt lat="46.87021" lon="4.37452">
        <ele>545.9004</ele>
        <time>2020-02-18T13:29:00+01:00</time>
      </trkpt>
      <trkpt lat="46.87017" lon="4.37452">
        <ele>546.2002</ele>
        <time>2020-02-18T13:29:05+01:00</time>
      </trkpt>
      <trkpt lat="46.87011" lon="4.37452">
        <ele>546.2002</ele>
        <time>2020-02-18T13:29:10+01:00</time>
      </trkpt>
      <trkpt lat="46.87006" lon="4.37452">
        <ele>546.4004</ele>
        <time>2020-02-18T13:29:15+01:00</time>
      </trkpt>
      <trkpt lat="46.87001" lon="4.37452">
        <ele>546.5</ele>
        <time>2020-02-18T13:29:20+01:00</time>
      </trkpt>
      <trkpt lat="46.86994" lon="4.37452">
        <ele>546.6006</ele>
        <time>2020-02-18T13:29:26+01:00</time>
      </trkpt>
      <trkpt lat="46.86988" lon="4.37452">
        <ele>546.7002</ele>
        <time>2020-02-18T13:29:31+01:00</time>
      </trkpt>
      <trkpt lat="46.86983" lon="4.3745">
        <ele>546.7998</ele>
        <time>2020-02-18T13:29:36+01:00</time>
      </trkpt>
      <trkpt lat="46.86958" lon="4.37451">
        <ele>546.9004</ele>
        <time>2020-02-18T13:29:57+01:00</time>
      </trkpt>
      <trkpt lat="46.8695" lon="4.37453">
        <ele>546.9004</ele>
        <time>2020-02-18T13:30:03+01:00</time>
      </trkpt>
      <trkpt lat="46.86945" lon="4.37451">
        <ele>546.9004</ele>
        <time>2020-02-18T13:30:08+01:00</time>
      </trkpt>
      <trkpt lat="46.86933" lon="4.37453">
        <ele>546.9004</ele>
        <time>2020-02-18T13:30:18+01:00</time>
      </trkpt>
      <trkpt lat="46.86909" lon="4.37456">
        <ele>546.9004</ele>
        <time>2020-02-18T13:30:34+01:00</time>
      </trkpt>
      <trkpt lat="46.86862" lon="4.37469">
        <ele>546.9004</ele>
        <time>2020-02-18T13:31:10+01:00</time>
      </trkpt>
      <trkpt lat="46.86852" lon="4.37471">
        <ele>546.9004</ele>
        <time>2020-02-18T13:31:21+01:00</time>
      </trkpt>
      <trkpt lat="46.86837" lon="4.37468">
        <ele>546.9004</ele>
        <time>2020-02-18T13:31:31+01:00</time>
      </trkpt>
      <trkpt lat="46.86828" lon="4.37465">
        <ele>546.9004</ele>
        <time>2020-02-18T13:31:41+01:00</time>
      </trkpt>
      <trkpt lat="46.86824" lon="4.37464">
        <ele>546.9004</ele>
        <time>2020-02-18T13:31:46+01:00</time>
      </trkpt>
      <trkpt lat="46.86817" lon="4.37464">
        <ele>546.7998</ele>
        <time>2020-02-18T13:31:51+01:00</time>
      </trkpt>
      <trkpt lat="46.8681" lon="4.37464">
        <ele>546.7002</ele>
        <time>2020-02-18T13:31:56+01:00</time>
      </trkpt>
      <trkpt lat="46.86791" lon="4.37464">
        <ele>546.6006</ele>
        <time>2020-02-18T13:32:11+01:00</time>
      </trkpt>
      <trkpt lat="46.86784" lon="4.37464">
        <ele>546.5</ele>
        <time>2020-02-18T13:32:16+01:00</time>
      </trkpt>
      <trkpt lat="46.86777" lon="4.37468">
        <ele>546.5</ele>
        <time>2020-02-18T13:32:21+01:00</time>
      </trkpt>
      <trkpt lat="46.8677" lon="4.3747">
        <ele>546.4004</ele>
        <time>2020-02-18T13:32:26+01:00</time>
      </trkpt>
      <trkpt lat="46.86763" lon="4.3747">
        <ele>546.2998</ele>
        <time>2020-02-18T13:32:31+01:00</time>
      </trkpt>
      <trkpt lat="46.86759" lon="4.3747">
        <ele>546.2998</ele>
        <time>2020-02-18T13:32:36+01:00</time>
      </trkpt>
      <trkpt lat="46.86754" lon="4.3747">
        <ele>546.2998</ele>
        <time>2020-02-18T13:32:41+01:00</time>
      </trkpt>
      <trkpt lat="46.86746" lon="4.37474">
        <ele>546.4004</ele>
        <time>2020-02-18T13:32:46+01:00</time>
      </trkpt>
      <trkpt lat="46.86738" lon="4.37486">
        <ele>546.6006</ele>
        <time>2020-02-18T13:32:56+01:00</time>
      </trkpt>
      <trkpt lat="46.86732" lon="4.37486">
        <ele>546.6006</ele>
        <time>2020-02-18T13:33:01+01:00</time>
      </trkpt>
      <trkpt lat="46.86719" lon="4.37488">
        <ele>546.7998</ele>
        <time>2020-02-18T13:33:11+01:00</time>
      </trkpt>
      <trkpt lat="46.86702" lon="4.37491">
        <ele>546.9004</ele>
        <time>2020-02-18T13:33:21+01:00</time>
      </trkpt>
      <trkpt lat="46.86695" lon="4.3749">
        <ele>547</ele>
        <time>2020-02-18T13:33:26+01:00</time>
      </trkpt>
      <trkpt lat="46.86689" lon="4.37491">
        <ele>547</ele>
        <time>2020-02-18T13:33:31+01:00</time>
      </trkpt>
      <trkpt lat="46.86678" lon="4.3749">
        <ele>547.2998</ele>
        <time>2020-02-18T13:33:41+01:00</time>
      </trkpt>
      <trkpt lat="46.8666" lon="4.37482">
        <ele>547.5</ele>
        <time>2020-02-18T13:34:01+01:00</time>
      </trkpt>
      <trkpt lat="46.86654" lon="4.37482">
        <ele>547.6006</ele>
        <time>2020-02-18T13:34:06+01:00</time>
      </trkpt>
      <trkpt lat="46.86638" lon="4.37486">
        <ele>548.2002</ele>
        <time>2020-02-18T13:34:21+01:00</time>
      </trkpt>
      <trkpt lat="46.86631" lon="4.37489">
        <ele>548.5</ele>
        <time>2020-02-18T13:34:26+01:00</time>
      </trkpt>
      <trkpt lat="46.86613" lon="4.37487">
        <ele>548.7998</ele>
        <time>2020-02-18T13:34:41+01:00</time>
      </trkpt>
      <trkpt lat="46.86569" lon="4.37488">
        <ele>550</ele>
        <time>2020-02-18T13:35:16+01:00</time>
      </trkpt>
      <trkpt lat="46.86562" lon="4.37489">
        <ele>550</ele>
        <time>2020-02-18T13:35:21+01:00</time>
      </trkpt>
      <trkpt lat="46.8655" lon="4.37489">
        <ele>550</ele>
        <time>2020-02-18T13:35:31+01:00</time>
      </trkpt>
      <trkpt lat="46.86544" lon="4.3749">
        <ele>550</ele>
        <time>2020-02-18T13:35:36+01:00</time>
      </trkpt>
      <trkpt lat="46.86539" lon="4.37491">
        <ele>550</ele>
        <time>2020-02-18T13:35:41+01:00</time>
      </trkpt>
      <trkpt lat="46.86531" lon="4.37493">
        <ele>550</ele>
        <time>2020-02-18T13:35:46+01:00</time>
      </trkpt>
      <trkpt lat="46.86524" lon="4.37494">
        <ele>550</ele>
        <time>2020-02-18T13:35:51+01:00</time>
      </trkpt>
      <trkpt lat="46.86507" lon="4.37491">
        <ele>550</ele>
        <time>2020-02-18T13:36:06+01:00</time>
      </trkpt>
      <trkpt lat="46.86478" lon="4.37492">
        <ele>549.9004</ele>
        <time>2020-02-18T13:36:26+01:00</time>
      </trkpt>
      <trkpt lat="46.86462" lon="4.37496">
        <ele>549.6006</ele>
        <time>2020-02-18T13:36:41+01:00</time>
      </trkpt>
      <trkpt lat="46.86457" lon="4.37498">
        <ele>549.6006</ele>
        <time>2020-02-18T13:36:46+01:00</time>
      </trkpt>
      <trkpt lat="46.86452" lon="4.37497">
        <ele>549.4004</ele>
        <time>2020-02-18T13:36:51+01:00</time>
      </trkpt>
      <trkpt lat="46.86445" lon="4.37497">
        <ele>549.2002</ele>
        <time>2020-02-18T13:36:56+01:00</time>
      </trkpt>
      <trkpt lat="46.86436" lon="4.37498">
        <ele>548.9004</ele>
        <time>2020-02-18T13:37:01+01:00</time>
      </trkpt>
      <trkpt lat="46.86429" lon="4.37497">
        <ele>548.2998</ele>
        <time>2020-02-18T13:37:06+01:00</time>
      </trkpt>
      <trkpt lat="46.86419" lon="4.37526">
        <ele>548.2998</ele>
        <time>2020-02-18T13:37:26+01:00</time>
      </trkpt>
      <trkpt lat="46.86418" lon="4.37535">
        <ele>548</ele>
        <time>2020-02-18T13:37:31+01:00</time>
      </trkpt>
      <trkpt lat="46.86416" lon="4.37545">
        <ele>548.2002</ele>
        <time>2020-02-18T13:37:36+01:00</time>
      </trkpt>
      <trkpt lat="46.86413" lon="4.37554">
        <ele>548.4004</ele>
        <time>2020-02-18T13:37:41+01:00</time>
      </trkpt>
      <trkpt lat="46.86411" lon="4.37565">
        <ele>548.1006</ele>
        <time>2020-02-18T13:37:46+01:00</time>
      </trkpt>
      <trkpt lat="46.86409" lon="4.37574">
        <ele>548.4004</ele>
        <time>2020-02-18T13:37:51+01:00</time>
      </trkpt>
      <trkpt lat="46.86407" lon="4.37583">
        <ele>548.5</ele>
        <time>2020-02-18T13:37:56+01:00</time>
      </trkpt>
      <trkpt lat="46.86398" lon="4.37579">
        <ele>547.6006</ele>
        <time>2020-02-18T13:38:16+01:00</time>
      </trkpt>
      <trkpt lat="46.86397" lon="4.37573">
        <ele>547.4004</ele>
        <time>2020-02-18T13:38:21+01:00</time>
      </trkpt>
      <trkpt lat="46.86401" lon="4.37603">
        <ele>548.2998</ele>
        <time>2020-02-18T13:38:26+01:00</time>
      </trkpt>
      <trkpt lat="46.86403" lon="4.37609">
        <ele>548.4004</ele>
        <time>2020-02-18T13:38:31+01:00</time>
      </trkpt>
      <trkpt lat="46.86405" lon="4.37621">
        <ele>548.4004</ele>
        <time>2020-02-18T13:38:41+01:00</time>
      </trkpt>
      <trkpt lat="46.86401" lon="4.37639">
        <ele>548.4004</ele>
        <time>2020-02-18T13:38:56+01:00</time>
      </trkpt>
      <trkpt lat="46.86399" lon="4.37656">
        <ele>548.1006</ele>
        <time>2020-02-18T13:39:06+01:00</time>
      </trkpt>
      <trkpt lat="46.86395" lon="4.37674">
        <ele>548.2002</ele>
        <time>2020-02-18T13:39:16+01:00</time>
      </trkpt>
      <trkpt lat="46.86389" lon="4.37696">
        <ele>548.4004</ele>
        <time>2020-02-18T13:39:26+01:00</time>
      </trkpt>
      <trkpt lat="46.86381" lon="4.37736">
        <ele>548.6006</ele>
        <time>2020-02-18T13:39:46+01:00</time>
      </trkpt>
      <trkpt lat="46.86377" lon="4.37755">
        <ele>548.9004</ele>
        <time>2020-02-18T13:39:56+01:00</time>
      </trkpt>
      <trkpt lat="46.86375" lon="4.37766">
        <ele>548.9004</ele>
        <time>2020-02-18T13:40:01+01:00</time>
      </trkpt>
      <trkpt lat="46.86364" lon="4.37811">
        <ele>548.7998</ele>
        <time>2020-02-18T13:40:26+01:00</time>
      </trkpt>
      <trkpt lat="46.86362" lon="4.37829">
        <ele>549</ele>
        <time>2020-02-18T13:40:36+01:00</time>
      </trkpt>
      <trkpt lat="46.86361" lon="4.3784">
        <ele>549.1006</ele>
        <time>2020-02-18T13:40:41+01:00</time>
      </trkpt>
      <trkpt lat="46.86362" lon="4.37852">
        <ele>549.2002</ele>
        <time>2020-02-18T13:40:46+01:00</time>
      </trkpt>
      <trkpt lat="46.86362" lon="4.37861">
        <ele>549.2998</ele>
        <time>2020-02-18T13:40:51+01:00</time>
      </trkpt>
      <trkpt lat="46.86356" lon="4.37919">
        <ele>549.9004</ele>
        <time>2020-02-18T13:41:21+01:00</time>
      </trkpt>
      <trkpt lat="46.86353" lon="4.37938">
        <ele>549.7002</ele>
        <time>2020-02-18T13:41:31+01:00</time>
      </trkpt>
      <trkpt lat="46.86353" lon="4.37946">
        <ele>549.7002</ele>
        <time>2020-02-18T13:41:36+01:00</time>
      </trkpt>
      <trkpt lat="46.86353" lon="4.37965">
        <ele>549.6006</ele>
        <time>2020-02-18T13:41:46+01:00</time>
      </trkpt>
      <trkpt lat="46.86351" lon="4.37986">
        <ele>549.2002</ele>
        <time>2020-02-18T13:41:56+01:00</time>
      </trkpt>
      <trkpt lat="46.86348" lon="4.38017">
        <ele>548.9004</ele>
        <time>2020-02-18T13:42:11+01:00</time>
      </trkpt>
      <trkpt lat="46.86346" lon="4.38027">
        <ele>548.9004</ele>
        <time>2020-02-18T13:42:16+01:00</time>
      </trkpt>
      <trkpt lat="46.86334" lon="4.38073">
        <ele>548.6006</ele>
        <time>2020-02-18T13:42:41+01:00</time>
      </trkpt>
      <trkpt lat="46.86332" lon="4.38082">
        <ele>548.6006</ele>
        <time>2020-02-18T13:42:46+01:00</time>
      </trkpt>
      <trkpt lat="46.86328" lon="4.38131">
        <ele>548.4004</ele>
        <time>2020-02-18T13:43:11+01:00</time>
      </trkpt>
      <trkpt lat="46.86327" lon="4.38141">
        <ele>548.4004</ele>
        <time>2020-02-18T13:43:16+01:00</time>
      </trkpt>
      <trkpt lat="46.86324" lon="4.38149">
        <ele>548.1006</ele>
        <time>2020-02-18T13:43:21+01:00</time>
      </trkpt>
      <trkpt lat="46.86321" lon="4.3817">
        <ele>548.1006</ele>
        <time>2020-02-18T13:43:36+01:00</time>
      </trkpt>
      <trkpt lat="46.86317" lon="4.38233">
        <ele>547.2002</ele>
        <time>2020-02-18T13:44:06+01:00</time>
      </trkpt>
      <trkpt lat="46.86317" lon="4.38243">
        <ele>547.1006</ele>
        <time>2020-02-18T13:44:11+01:00</time>
      </trkpt>
      <trkpt lat="46.86312" lon="4.38264">
        <ele>546.4004</ele>
        <time>2020-02-18T13:44:21+01:00</time>
      </trkpt>
      <trkpt lat="46.86311" lon="4.38274">
        <ele>546.2002</ele>
        <time>2020-02-18T13:44:26+01:00</time>
      </trkpt>
      <trkpt lat="46.86307" lon="4.38283">
        <ele>546.1006</ele>
        <time>2020-02-18T13:44:31+01:00</time>
      </trkpt>
      <trkpt lat="46.86308" lon="4.38292">
        <ele>546</ele>
        <time>2020-02-18T13:44:36+01:00</time>
      </trkpt>
      <trkpt lat="46.86302" lon="4.38321">
        <ele>545.1006</ele>
        <time>2020-02-18T13:44:51+01:00</time>
      </trkpt>
      <trkpt lat="46.86301" lon="4.3833">
        <ele>545.1006</ele>
        <time>2020-02-18T13:44:56+01:00</time>
      </trkpt>
      <trkpt lat="46.86299" lon="4.38338">
        <ele>544.6006</ele>
        <time>2020-02-18T13:45:01+01:00</time>
      </trkpt>
      <trkpt lat="46.86298" lon="4.38344">
        <ele>544.6006</ele>
        <time>2020-02-18T13:45:06+01:00</time>
      </trkpt>
      <trkpt lat="46.86298" lon="4.3835">
        <ele>544.7002</ele>
        <time>2020-02-18T13:45:11+01:00</time>
      </trkpt>
      <trkpt lat="46.86296" lon="4.38358">
        <ele>544.7998</ele>
        <time>2020-02-18T13:45:16+01:00</time>
      </trkpt>
      <trkpt lat="46.86291" lon="4.38375">
        <ele>544.1006</ele>
        <time>2020-02-18T13:45:26+01:00</time>
      </trkpt>
      <trkpt lat="46.8629" lon="4.38384">
        <ele>544.2002</ele>
        <time>2020-02-18T13:45:31+01:00</time>
      </trkpt>
      <trkpt lat="46.86295" lon="4.38405">
        <ele>544.4004</ele>
        <time>2020-02-18T13:45:51+01:00</time>
      </trkpt>
      <trkpt lat="46.86293" lon="4.38411">
        <ele>544.6006</ele>
        <time>2020-02-18T13:45:56+01:00</time>
      </trkpt>
      <trkpt lat="46.86291" lon="4.38418">
        <ele>544.7002</ele>
        <time>2020-02-18T13:46:01+01:00</time>
      </trkpt>
      <trkpt lat="46.86286" lon="4.38497">
        <ele>545.2002</ele>
        <time>2020-02-18T13:46:46+01:00</time>
      </trkpt>
      <trkpt lat="46.86283" lon="4.38516">
        <ele>544.4004</ele>
        <time>2020-02-18T13:46:56+01:00</time>
      </trkpt>
      <trkpt lat="46.86283" lon="4.38533">
        <ele>544.5</ele>
        <time>2020-02-18T13:47:06+01:00</time>
      </trkpt>
      <trkpt lat="46.86279" lon="4.38558">
        <ele>544.5</ele>
        <time>2020-02-18T13:47:21+01:00</time>
      </trkpt>
      <trkpt lat="46.86279" lon="4.38566">
        <ele>544.5</ele>
        <time>2020-02-18T13:47:26+01:00</time>
      </trkpt>
      <trkpt lat="46.86281" lon="4.38578">
        <ele>544.6006</ele>
        <time>2020-02-18T13:47:31+01:00</time>
      </trkpt>
      <trkpt lat="46.86283" lon="4.38588">
        <ele>544.6006</ele>
        <time>2020-02-18T13:47:36+01:00</time>
      </trkpt>
      <trkpt lat="46.86285" lon="4.38598">
        <ele>545.5</ele>
        <time>2020-02-18T13:47:41+01:00</time>
      </trkpt>
      <trkpt lat="46.86284" lon="4.38606">
        <ele>545.6006</ele>
        <time>2020-02-18T13:47:46+01:00</time>
      </trkpt>
      <trkpt lat="46.86288" lon="4.38617">
        <ele>545.6006</ele>
        <time>2020-02-18T13:47:51+01:00</time>
      </trkpt>
      <trkpt lat="46.86292" lon="4.38635">
        <ele>546.7002</ele>
        <time>2020-02-18T13:48:01+01:00</time>
      </trkpt>
      <trkpt lat="46.86291" lon="4.38663">
        <ele>547</ele>
        <time>2020-02-18T13:48:16+01:00</time>
      </trkpt>
      <trkpt lat="46.86292" lon="4.38675">
        <ele>547.5</ele>
        <time>2020-02-18T13:48:21+01:00</time>
      </trkpt>
      <trkpt lat="46.8629" lon="4.38695">
        <ele>547.9004</ele>
        <time>2020-02-18T13:48:31+01:00</time>
      </trkpt>
      <trkpt lat="46.8629" lon="4.38724">
        <ele>548.7002</ele>
        <time>2020-02-18T13:48:46+01:00</time>
      </trkpt>
      <trkpt lat="46.86289" lon="4.38734">
        <ele>548.4004</ele>
        <time>2020-02-18T13:48:51+01:00</time>
      </trkpt>
      <trkpt lat="46.86287" lon="4.38744">
        <ele>548.7002</ele>
        <time>2020-02-18T13:48:56+01:00</time>
      </trkpt>
      <trkpt lat="46.86285" lon="4.38757">
        <ele>548.9004</ele>
        <time>2020-02-18T13:49:01+01:00</time>
      </trkpt>
      <trkpt lat="46.86284" lon="4.38768">
        <ele>549.2998</ele>
        <time>2020-02-18T13:49:06+01:00</time>
      </trkpt>
      <trkpt lat="46.86282" lon="4.38778">
        <ele>549.2998</ele>
        <time>2020-02-18T13:49:11+01:00</time>
      </trkpt>
      <trkpt lat="46.86282" lon="4.3879">
        <ele>549.7998</ele>
        <time>2020-02-18T13:49:16+01:00</time>
      </trkpt>
      <trkpt lat="46.86281" lon="4.38812">
        <ele>550.2998</ele>
        <time>2020-02-18T13:49:26+01:00</time>
      </trkpt>
      <trkpt lat="46.86281" lon="4.3882">
        <ele>550.4004</ele>
        <time>2020-02-18T13:49:31+01:00</time>
      </trkpt>
      <trkpt lat="46.86282" lon="4.38831">
        <ele>550.4004</ele>
        <time>2020-02-18T13:49:36+01:00</time>
      </trkpt>
      <trkpt lat="46.86285" lon="4.38839">
        <ele>550.2002</ele>
        <time>2020-02-18T13:49:41+01:00</time>
      </trkpt>
      <trkpt lat="46.86285" lon="4.38846">
        <ele>550.2002</ele>
        <time>2020-02-18T13:49:46+01:00</time>
      </trkpt>
      <trkpt lat="46.86286" lon="4.38868">
        <ele>550.1006</ele>
        <time>2020-02-18T13:50:01+01:00</time>
      </trkpt>
      <trkpt lat="46.86287" lon="4.38881">
        <ele>549.9004</ele>
        <time>2020-02-18T13:50:06+01:00</time>
      </trkpt>
      <trkpt lat="46.86288" lon="4.38925">
        <ele>549.7998</ele>
        <time>2020-02-18T13:50:26+01:00</time>
      </trkpt>
      <trkpt lat="46.86289" lon="4.38935">
        <ele>549.7998</ele>
        <time>2020-02-18T13:50:31+01:00</time>
      </trkpt>
      <trkpt lat="46.86294" lon="4.38953">
        <ele>550.9004</ele>
        <time>2020-02-18T13:50:41+01:00</time>
      </trkpt>
      <trkpt lat="46.86297" lon="4.38962">
        <ele>550.7002</ele>
        <time>2020-02-18T13:50:46+01:00</time>
      </trkpt>
      <trkpt lat="46.86302" lon="4.38984">
        <ele>551.7998</ele>
        <time>2020-02-18T13:50:56+01:00</time>
      </trkpt>
      <trkpt lat="46.86309" lon="4.39015">
        <ele>551.4004</ele>
        <time>2020-02-18T13:51:11+01:00</time>
      </trkpt>
      <trkpt lat="46.86311" lon="4.39024">
        <ele>551.4004</ele>
        <time>2020-02-18T13:51:16+01:00</time>
      </trkpt>
      <trkpt lat="46.86319" lon="4.39048">
        <ele>551.2002</ele>
        <time>2020-02-18T13:51:31+01:00</time>
      </trkpt>
      <trkpt lat="46.86338" lon="4.39118">
        <ele>549.6006</ele>
        <time>2020-02-18T13:52:06+01:00</time>
      </trkpt>
      <trkpt lat="46.86341" lon="4.39127">
        <ele>549.6006</ele>
        <time>2020-02-18T13:52:11+01:00</time>
      </trkpt>
      <trkpt lat="46.86344" lon="4.39149">
        <ele>548</ele>
        <time>2020-02-18T13:52:21+01:00</time>
      </trkpt>
      <trkpt lat="46.86345" lon="4.39158">
        <ele>548</ele>
        <time>2020-02-18T13:52:26+01:00</time>
      </trkpt>
      <trkpt lat="46.86348" lon="4.39166">
        <ele>548.7002</ele>
        <time>2020-02-18T13:52:31+01:00</time>
      </trkpt>
      <trkpt lat="46.86351" lon="4.39178">
        <ele>548.7002</ele>
        <time>2020-02-18T13:52:36+01:00</time>
      </trkpt>
      <trkpt lat="46.86351" lon="4.39191">
        <ele>548.4004</ele>
        <time>2020-02-18T13:52:41+01:00</time>
      </trkpt>
      <trkpt lat="46.86352" lon="4.39202">
        <ele>548.2002</ele>
        <time>2020-02-18T13:52:46+01:00</time>
      </trkpt>
      <trkpt lat="46.86351" lon="4.39226">
        <ele>547.9004</ele>
        <time>2020-02-18T13:52:56+01:00</time>
      </trkpt>
      <trkpt lat="46.86348" lon="4.39264">
        <ele>546.2998</ele>
        <time>2020-02-18T13:53:16+01:00</time>
      </trkpt>
      <trkpt lat="46.86348" lon="4.39272">
        <ele>546.9004</ele>
        <time>2020-02-18T13:53:21+01:00</time>
      </trkpt>
      <trkpt lat="46.8635" lon="4.39283">
        <ele>546.6006</ele>
        <time>2020-02-18T13:53:26+01:00</time>
      </trkpt>
      <trkpt lat="46.86351" lon="4.39293">
        <ele>546.6006</ele>
        <time>2020-02-18T13:53:31+01:00</time>
      </trkpt>
      <trkpt lat="46.86352" lon="4.39303">
        <ele>546.2002</ele>
        <time>2020-02-18T13:53:36+01:00</time>
      </trkpt>
      <trkpt lat="46.86351" lon="4.39312">
        <ele>546.2002</ele>
        <time>2020-02-18T13:53:41+01:00</time>
      </trkpt>
      <trkpt lat="46.8635" lon="4.39342">
        <ele>545.5</ele>
        <time>2020-02-18T13:53:56+01:00</time>
      </trkpt>
      <trkpt lat="46.86351" lon="4.39354">
        <ele>545</ele>
        <time>2020-02-18T13:54:01+01:00</time>
      </trkpt>
      <trkpt lat="46.8635" lon="4.3939">
        <ele>543.9004</ele>
        <time>2020-02-18T13:54:16+01:00</time>
      </trkpt>
      <trkpt lat="46.86352" lon="4.39419">
        <ele>542.5</ele>
        <time>2020-02-18T13:54:31+01:00</time>
      </trkpt>
      <trkpt lat="46.86353" lon="4.39429">
        <ele>542.5</ele>
        <time>2020-02-18T13:54:36+01:00</time>
      </trkpt>
      <trkpt lat="46.86354" lon="4.39437">
        <ele>541.7002</ele>
        <time>2020-02-18T13:54:41+01:00</time>
      </trkpt>
      <trkpt lat="46.86353" lon="4.39451">
        <ele>541.7002</ele>
        <time>2020-02-18T13:54:51+01:00</time>
      </trkpt>
      <trkpt lat="46.86346" lon="4.39462">
        <ele>540.7998</ele>
        <time>2020-02-18T13:55:01+01:00</time>
      </trkpt>
      <trkpt lat="46.86337" lon="4.39473">
        <ele>540.1006</ele>
        <time>2020-02-18T13:55:11+01:00</time>
      </trkpt>
      <trkpt lat="46.86325" lon="4.39485">
        <ele>540</ele>
        <time>2020-02-18T13:55:26+01:00</time>
      </trkpt>
      <trkpt lat="46.86319" lon="4.3949">
        <ele>539.4004</ele>
        <time>2020-02-18T13:55:31+01:00</time>
      </trkpt>
      <trkpt lat="46.86313" lon="4.39496">
        <ele>539.4004</ele>
        <time>2020-02-18T13:55:36+01:00</time>
      </trkpt>
      <trkpt lat="46.86276" lon="4.3953">
        <ele>539.6006</ele>
        <time>2020-02-18T13:56:06+01:00</time>
      </trkpt>
      <trkpt lat="46.8627" lon="4.39536">
        <ele>539.6006</ele>
        <time>2020-02-18T13:56:11+01:00</time>
      </trkpt>
      <trkpt lat="46.86264" lon="4.39541">
        <ele>540</ele>
        <time>2020-02-18T13:56:16+01:00</time>
      </trkpt>
      <trkpt lat="46.86252" lon="4.39552">
        <ele>540</ele>
        <time>2020-02-18T13:56:26+01:00</time>
      </trkpt>
      <trkpt lat="46.86239" lon="4.39563">
        <ele>540.4004</ele>
        <time>2020-02-18T13:56:36+01:00</time>
      </trkpt>
      <trkpt lat="46.86207" lon="4.39591">
        <ele>540.9004</ele>
        <time>2020-02-18T13:57:01+01:00</time>
      </trkpt>
      <trkpt lat="46.86188" lon="4.39607">
        <ele>540.7002</ele>
        <time>2020-02-18T13:57:16+01:00</time>
      </trkpt>
      <trkpt lat="46.86182" lon="4.39613">
        <ele>541</ele>
        <time>2020-02-18T13:57:21+01:00</time>
      </trkpt>
      <trkpt lat="46.86163" lon="4.39628">
        <ele>541.4004</ele>
        <time>2020-02-18T13:57:36+01:00</time>
      </trkpt>
      <trkpt lat="46.86157" lon="4.39633">
        <ele>541.4004</ele>
        <time>2020-02-18T13:57:41+01:00</time>
      </trkpt>
      <trkpt lat="46.86151" lon="4.39639">
        <ele>541.4004</ele>
        <time>2020-02-18T13:57:46+01:00</time>
      </trkpt>
      <trkpt lat="46.86139" lon="4.39648">
        <ele>541.7002</ele>
        <time>2020-02-18T13:57:56+01:00</time>
      </trkpt>
      <trkpt lat="46.86133" lon="4.39654">
        <ele>541.7002</ele>
        <time>2020-02-18T13:58:01+01:00</time>
      </trkpt>
      <trkpt lat="46.86127" lon="4.3966">
        <ele>542</ele>
        <time>2020-02-18T13:58:06+01:00</time>
      </trkpt>
      <trkpt lat="46.86102" lon="4.39681">
        <ele>542.4004</ele>
        <time>2020-02-18T13:58:26+01:00</time>
      </trkpt>
      <trkpt lat="46.86096" lon="4.39686">
        <ele>542.4004</ele>
        <time>2020-02-18T13:58:31+01:00</time>
      </trkpt>
      <trkpt lat="46.8609" lon="4.39691">
        <ele>542.4004</ele>
        <time>2020-02-18T13:58:36+01:00</time>
      </trkpt>
      <trkpt lat="46.86062" lon="4.39714">
        <ele>542.9004</ele>
        <time>2020-02-18T13:59:01+01:00</time>
      </trkpt>
      <trkpt lat="46.86042" lon="4.39734">
        <ele>542.7998</ele>
        <time>2020-02-18T13:59:21+01:00</time>
      </trkpt>
      <trkpt lat="46.86036" lon="4.39739">
        <ele>542.7998</ele>
        <time>2020-02-18T13:59:26+01:00</time>
      </trkpt>
      <trkpt lat="46.86006" lon="4.39765">
        <ele>542.5</ele>
        <time>2020-02-18T13:59:51+01:00</time>
      </trkpt>
      <trkpt lat="46.85987" lon="4.39781">
        <ele>542.6006</ele>
        <time>2020-02-18T14:00:06+01:00</time>
      </trkpt>
      <trkpt lat="46.85975" lon="4.39791">
        <ele>542.5</ele>
        <time>2020-02-18T14:00:16+01:00</time>
      </trkpt>
      <trkpt lat="46.85969" lon="4.39797">
        <ele>542.6006</ele>
        <time>2020-02-18T14:00:21+01:00</time>
      </trkpt>
      <trkpt lat="46.85962" lon="4.39802">
        <ele>542.6006</ele>
        <time>2020-02-18T14:00:26+01:00</time>
      </trkpt>
      <trkpt lat="46.8595" lon="4.39813">
        <ele>542.6006</ele>
        <time>2020-02-18T14:00:36+01:00</time>
      </trkpt>
      <trkpt lat="46.85943" lon="4.39818">
        <ele>542.7002</ele>
        <time>2020-02-18T14:00:41+01:00</time>
      </trkpt>
      <trkpt lat="46.85937" lon="4.39824">
        <ele>542.7002</ele>
        <time>2020-02-18T14:00:46+01:00</time>
      </trkpt>
      <trkpt lat="46.85931" lon="4.39831">
        <ele>542.7002</ele>
        <time>2020-02-18T14:00:51+01:00</time>
      </trkpt>
      <trkpt lat="46.85924" lon="4.39837">
        <ele>542.5</ele>
        <time>2020-02-18T14:00:56+01:00</time>
      </trkpt>
      <trkpt lat="46.85918" lon="4.39843">
        <ele>542.5</ele>
        <time>2020-02-18T14:01:01+01:00</time>
      </trkpt>
      <trkpt lat="46.85895" lon="4.39872">
        <ele>541.5</ele>
        <time>2020-02-18T14:01:21+01:00</time>
      </trkpt>
      <trkpt lat="46.8589" lon="4.3988">
        <ele>541.2998</ele>
        <time>2020-02-18T14:01:26+01:00</time>
      </trkpt>
      <trkpt lat="46.85885" lon="4.39888">
        <ele>541</ele>
        <time>2020-02-18T14:01:31+01:00</time>
      </trkpt>
      <trkpt lat="46.85877" lon="4.39905">
        <ele>540.6006</ele>
        <time>2020-02-18T14:01:41+01:00</time>
      </trkpt>
      <trkpt lat="46.85869" lon="4.39921">
        <ele>540.4004</ele>
        <time>2020-02-18T14:01:51+01:00</time>
      </trkpt>
      <trkpt lat="46.85865" lon="4.3993">
        <ele>540.2998</ele>
        <time>2020-02-18T14:01:56+01:00</time>
      </trkpt>
      <trkpt lat="46.85851" lon="4.39955">
        <ele>540</ele>
        <time>2020-02-18T14:02:11+01:00</time>
      </trkpt>
      <trkpt lat="46.85847" lon="4.39963">
        <ele>540</ele>
        <time>2020-02-18T14:02:16+01:00</time>
      </trkpt>
      <trkpt lat="46.85843" lon="4.39972">
        <ele>539.7998</ele>
        <time>2020-02-18T14:02:21+01:00</time>
      </trkpt>
      <trkpt lat="46.85826" lon="4.40005">
        <ele>539.7002</ele>
        <time>2020-02-18T14:02:41+01:00</time>
      </trkpt>
      <trkpt lat="46.85822" lon="4.40013">
        <ele>539.7002</ele>
        <time>2020-02-18T14:02:46+01:00</time>
      </trkpt>
      <trkpt lat="46.85817" lon="4.40022">
        <ele>539.5</ele>
        <time>2020-02-18T14:02:51+01:00</time>
      </trkpt>
      <trkpt lat="46.85808" lon="4.4004">
        <ele>539.5</ele>
        <time>2020-02-18T14:03:01+01:00</time>
      </trkpt>
      <trkpt lat="46.85782" lon="4.40092">
        <ele>539</ele>
        <time>2020-02-18T14:03:31+01:00</time>
      </trkpt>
      <trkpt lat="46.85777" lon="4.401">
        <ele>539</ele>
        <time>2020-02-18T14:03:36+01:00</time>
      </trkpt>
      <trkpt lat="46.85769" lon="4.40118">
        <ele>539.1006</ele>
        <time>2020-02-18T14:03:46+01:00</time>
      </trkpt>
      <trkpt lat="46.85754" lon="4.40145">
        <ele>539.6006</ele>
        <time>2020-02-18T14:04:01+01:00</time>
      </trkpt>
      <trkpt lat="46.8575" lon="4.40154">
        <ele>539.6006</ele>
        <time>2020-02-18T14:04:06+01:00</time>
      </trkpt>
      <trkpt lat="46.85746" lon="4.40163">
        <ele>539.9004</ele>
        <time>2020-02-18T14:04:11+01:00</time>
      </trkpt>
      <trkpt lat="46.85741" lon="4.40172">
        <ele>539.9004</ele>
        <time>2020-02-18T14:04:16+01:00</time>
      </trkpt>
      <trkpt lat="46.85737" lon="4.4018">
        <ele>540.2002</ele>
        <time>2020-02-18T14:04:21+01:00</time>
      </trkpt>
      <trkpt lat="46.8572" lon="4.40214">
        <ele>540.7998</ele>
        <time>2020-02-18T14:04:41+01:00</time>
      </trkpt>
      <trkpt lat="46.85698" lon="4.40258">
        <ele>541.1006</ele>
        <time>2020-02-18T14:05:06+01:00</time>
      </trkpt>
      <trkpt lat="46.85694" lon="4.40266">
        <ele>540.9004</ele>
        <time>2020-02-18T14:05:11+01:00</time>
      </trkpt>
      <trkpt lat="46.8568" lon="4.40293">
        <ele>540.7002</ele>
        <time>2020-02-18T14:05:26+01:00</time>
      </trkpt>
      <trkpt lat="46.85672" lon="4.40312">
        <ele>540.1006</ele>
        <time>2020-02-18T14:05:36+01:00</time>
      </trkpt>
      <trkpt lat="46.85667" lon="4.40321">
        <ele>540</ele>
        <time>2020-02-18T14:05:41+01:00</time>
      </trkpt>
      <trkpt lat="46.85658" lon="4.40339">
        <ele>539.7002</ele>
        <time>2020-02-18T14:05:51+01:00</time>
      </trkpt>
      <trkpt lat="46.8565" lon="4.40355">
        <ele>539.2002</ele>
        <time>2020-02-18T14:06:01+01:00</time>
      </trkpt>
      <trkpt lat="46.85632" lon="4.40389">
        <ele>537.5</ele>
        <time>2020-02-18T14:06:21+01:00</time>
      </trkpt>
      <trkpt lat="46.85619" lon="4.40417">
        <ele>536.2002</ele>
        <time>2020-02-18T14:06:36+01:00</time>
      </trkpt>
      <trkpt lat="46.85614" lon="4.40426">
        <ele>536.2002</ele>
        <time>2020-02-18T14:06:41+01:00</time>
      </trkpt>
      <trkpt lat="46.85592" lon="4.40468">
        <ele>533.7998</ele>
        <time>2020-02-18T14:07:06+01:00</time>
      </trkpt>
      <trkpt lat="46.85587" lon="4.40476">
        <ele>533.7998</ele>
        <time>2020-02-18T14:07:11+01:00</time>
      </trkpt>
      <trkpt lat="46.85583" lon="4.40484">
        <ele>533.2002</ele>
        <time>2020-02-18T14:07:16+01:00</time>
      </trkpt>
      <trkpt lat="46.8557" lon="4.40508">
        <ele>532.7998</ele>
        <time>2020-02-18T14:07:31+01:00</time>
      </trkpt>
      <trkpt lat="46.85557" lon="4.40535">
        <ele>532.4004</ele>
        <time>2020-02-18T14:07:46+01:00</time>
      </trkpt>
      <trkpt lat="46.85553" lon="4.40544">
        <ele>532.4004</ele>
        <time>2020-02-18T14:07:51+01:00</time>
      </trkpt>
      <trkpt lat="46.85544" lon="4.40562">
        <ele>532.2998</ele>
        <time>2020-02-18T14:08:01+01:00</time>
      </trkpt>
      <trkpt lat="46.85522" lon="4.40608">
        <ele>533.6006</ele>
        <time>2020-02-18T14:08:26+01:00</time>
      </trkpt>
      <trkpt lat="46.85518" lon="4.40616">
        <ele>533.6006</ele>
        <time>2020-02-18T14:08:31+01:00</time>
      </trkpt>
      <trkpt lat="46.85512" lon="4.40623">
        <ele>534.5</ele>
        <time>2020-02-18T14:08:36+01:00</time>
      </trkpt>
      <trkpt lat="46.85508" lon="4.40631">
        <ele>534.5</ele>
        <time>2020-02-18T14:08:41+01:00</time>
      </trkpt>
      <trkpt lat="46.85503" lon="4.4064">
        <ele>535.7002</ele>
        <time>2020-02-18T14:08:46+01:00</time>
      </trkpt>
      <trkpt lat="46.85499" lon="4.40649">
        <ele>535.2998</ele>
        <time>2020-02-18T14:08:51+01:00</time>
      </trkpt>
      <trkpt lat="46.85494" lon="4.40658">
        <ele>536.2998</ele>
        <time>2020-02-18T14:08:56+01:00</time>
      </trkpt>
      <trkpt lat="46.8549" lon="4.40667">
        <ele>535.7002</ele>
        <time>2020-02-18T14:09:01+01:00</time>
      </trkpt>
      <trkpt lat="46.85481" lon="4.40685">
        <ele>536.6006</ele>
        <time>2020-02-18T14:09:11+01:00</time>
      </trkpt>
      <trkpt lat="46.85476" lon="4.40693">
        <ele>536.4004</ele>
        <time>2020-02-18T14:09:16+01:00</time>
      </trkpt>
      <trkpt lat="46.85471" lon="4.40702">
        <ele>536.4004</ele>
        <time>2020-02-18T14:09:21+01:00</time>
      </trkpt>
      <trkpt lat="46.85467" lon="4.40712">
        <ele>536</ele>
        <time>2020-02-18T14:09:26+01:00</time>
      </trkpt>
      <trkpt lat="46.85463" lon="4.40722">
        <ele>536</ele>
        <time>2020-02-18T14:09:31+01:00</time>
      </trkpt>
      <trkpt lat="46.85458" lon="4.40732">
        <ele>536.4004</ele>
        <time>2020-02-18T14:09:36+01:00</time>
      </trkpt>
      <trkpt lat="46.85454" lon="4.4074">
        <ele>535.2002</ele>
        <time>2020-02-18T14:09:41+01:00</time>
      </trkpt>
      <trkpt lat="46.85449" lon="4.40749">
        <ele>535.6006</ele>
        <time>2020-02-18T14:09:46+01:00</time>
      </trkpt>
      <trkpt lat="46.85431" lon="4.40782">
        <ele>533.9004</ele>
        <time>2020-02-18T14:10:06+01:00</time>
      </trkpt>
      <trkpt lat="46.85422" lon="4.40798">
        <ele>533.9004</ele>
        <time>2020-02-18T14:10:16+01:00</time>
      </trkpt>
      <trkpt lat="46.85413" lon="4.40815">
        <ele>532.9004</ele>
        <time>2020-02-18T14:10:26+01:00</time>
      </trkpt>
      <trkpt lat="46.854" lon="4.40842">
        <ele>532.1006</ele>
        <time>2020-02-18T14:10:41+01:00</time>
      </trkpt>
      <trkpt lat="46.85396" lon="4.40851">
        <ele>531.4004</ele>
        <time>2020-02-18T14:10:46+01:00</time>
      </trkpt>
      <trkpt lat="46.85392" lon="4.40859">
        <ele>531.4004</ele>
        <time>2020-02-18T14:10:51+01:00</time>
      </trkpt>
      <trkpt lat="46.85387" lon="4.40867">
        <ele>531.7998</ele>
        <time>2020-02-18T14:10:56+01:00</time>
      </trkpt>
      <trkpt lat="46.85383" lon="4.40875">
        <ele>530.7002</ele>
        <time>2020-02-18T14:11:01+01:00</time>
      </trkpt>
      <trkpt lat="46.85378" lon="4.40884">
        <ele>530.9004</ele>
        <time>2020-02-18T14:11:06+01:00</time>
      </trkpt>
      <trkpt lat="46.85375" lon="4.40894">
        <ele>530.9004</ele>
        <time>2020-02-18T14:11:11+01:00</time>
      </trkpt>
      <trkpt lat="46.8537" lon="4.40903">
        <ele>530.2998</ele>
        <time>2020-02-18T14:11:16+01:00</time>
      </trkpt>
      <trkpt lat="46.85348" lon="4.40948">
        <ele>530.6006</ele>
        <time>2020-02-18T14:11:41+01:00</time>
      </trkpt>
      <trkpt lat="46.85343" lon="4.40956">
        <ele>530.6006</ele>
        <time>2020-02-18T14:11:46+01:00</time>
      </trkpt>
      <trkpt lat="46.85338" lon="4.40964">
        <ele>529.7998</ele>
        <time>2020-02-18T14:11:51+01:00</time>
      </trkpt>
      <trkpt lat="46.85333" lon="4.40971">
        <ele>530.5</ele>
        <time>2020-02-18T14:11:56+01:00</time>
      </trkpt>
      <trkpt lat="46.85328" lon="4.40978">
        <ele>530.5</ele>
        <time>2020-02-18T14:12:01+01:00</time>
      </trkpt>
      <trkpt lat="46.85324" lon="4.40986">
        <ele>530.6006</ele>
        <time>2020-02-18T14:12:06+01:00</time>
      </trkpt>
      <trkpt lat="46.85311" lon="4.41016">
        <ele>531.5</ele>
        <time>2020-02-18T14:12:21+01:00</time>
      </trkpt>
      <trkpt lat="46.85306" lon="4.41025">
        <ele>531.5</ele>
        <time>2020-02-18T14:12:26+01:00</time>
      </trkpt>
      <trkpt lat="46.85302" lon="4.41034">
        <ele>531.5</ele>
        <time>2020-02-18T14:12:31+01:00</time>
      </trkpt>
      <trkpt lat="46.85297" lon="4.41043">
        <ele>531.5</ele>
        <time>2020-02-18T14:12:36+01:00</time>
      </trkpt>
      <trkpt lat="46.85293" lon="4.41051">
        <ele>532.5</ele>
        <time>2020-02-18T14:12:41+01:00</time>
      </trkpt>
      <trkpt lat="46.85289" lon="4.41059">
        <ele>532</ele>
        <time>2020-02-18T14:12:46+01:00</time>
      </trkpt>
      <trkpt lat="46.85284" lon="4.41068">
        <ele>533.2002</ele>
        <time>2020-02-18T14:12:51+01:00</time>
      </trkpt>
      <trkpt lat="46.85252" lon="4.41129">
        <ele>534.6006</ele>
        <time>2020-02-18T14:13:26+01:00</time>
      </trkpt>
      <trkpt lat="46.85238" lon="4.41156">
        <ele>535</ele>
        <time>2020-02-18T14:13:41+01:00</time>
      </trkpt>
      <trkpt lat="46.85228" lon="4.41174">
        <ele>534.9004</ele>
        <time>2020-02-18T14:13:51+01:00</time>
      </trkpt>
      <trkpt lat="46.85224" lon="4.41183">
        <ele>534.9004</ele>
        <time>2020-02-18T14:13:56+01:00</time>
      </trkpt>
      <trkpt lat="46.85219" lon="4.41192">
        <ele>535.2002</ele>
        <time>2020-02-18T14:14:01+01:00</time>
      </trkpt>
      <trkpt lat="46.8521" lon="4.41211">
        <ele>535.6006</ele>
        <time>2020-02-18T14:14:11+01:00</time>
      </trkpt>
      <trkpt lat="46.85205" lon="4.4122">
        <ele>535.6006</ele>
        <time>2020-02-18T14:14:16+01:00</time>
      </trkpt>
      <trkpt lat="46.85201" lon="4.41229">
        <ele>535.9004</ele>
        <time>2020-02-18T14:14:21+01:00</time>
      </trkpt>
      <trkpt lat="46.85197" lon="4.41238">
        <ele>535.7998</ele>
        <time>2020-02-18T14:14:26+01:00</time>
      </trkpt>
      <trkpt lat="46.85193" lon="4.41246">
        <ele>535.9004</ele>
        <time>2020-02-18T14:14:31+01:00</time>
      </trkpt>
      <trkpt lat="46.85189" lon="4.41253">
        <ele>535.9004</ele>
        <time>2020-02-18T14:14:36+01:00</time>
      </trkpt>
      <trkpt lat="46.8518" lon="4.41275">
        <ele>535.4004</ele>
        <time>2020-02-18T14:14:51+01:00</time>
      </trkpt>
      <trkpt lat="46.85171" lon="4.41293">
        <ele>534.9004</ele>
        <time>2020-02-18T14:15:01+01:00</time>
      </trkpt>
      <trkpt lat="46.85166" lon="4.41304">
        <ele>534.9004</ele>
        <time>2020-02-18T14:15:06+01:00</time>
      </trkpt>
      <trkpt lat="46.85161" lon="4.41313">
        <ele>534.5</ele>
        <time>2020-02-18T14:15:11+01:00</time>
      </trkpt>
      <trkpt lat="46.85136" lon="4.41358">
        <ele>533.7002</ele>
        <time>2020-02-18T14:15:36+01:00</time>
      </trkpt>
      <trkpt lat="46.85113" lon="4.41401">
        <ele>532.2998</ele>
        <time>2020-02-18T14:16:01+01:00</time>
      </trkpt>
      <trkpt lat="46.85105" lon="4.41416">
        <ele>531.9004</ele>
        <time>2020-02-18T14:16:11+01:00</time>
      </trkpt>
      <trkpt lat="46.85101" lon="4.41423">
        <ele>531.4004</ele>
        <time>2020-02-18T14:16:16+01:00</time>
      </trkpt>
      <trkpt lat="46.85091" lon="4.4144">
        <ele>530.2002</ele>
        <time>2020-02-18T14:16:31+01:00</time>
      </trkpt>
      <trkpt lat="46.85089" lon="4.41445">
        <ele>529.5</ele>
        <time>2020-02-18T14:16:36+01:00</time>
      </trkpt>
      <trkpt lat="46.8508" lon="4.41457">
        <ele>529.5</ele>
        <time>2020-02-18T14:16:46+01:00</time>
      </trkpt>
      <trkpt lat="46.85056" lon="4.41494">
        <ele>526.7002</ele>
        <time>2020-02-18T14:17:06+01:00</time>
      </trkpt>
      <trkpt lat="46.85033" lon="4.41538">
        <ele>525</ele>
        <time>2020-02-18T14:17:31+01:00</time>
      </trkpt>
      <trkpt lat="46.85024" lon="4.41557">
        <ele>524.6006</ele>
        <time>2020-02-18T14:17:41+01:00</time>
      </trkpt>
      <trkpt lat="46.8501" lon="4.41588">
        <ele>523.9004</ele>
        <time>2020-02-18T14:18:01+01:00</time>
      </trkpt>
      <trkpt lat="46.85002" lon="4.41605">
        <ele>523.6006</ele>
        <time>2020-02-18T14:18:11+01:00</time>
      </trkpt>
      <trkpt lat="46.84999" lon="4.41615">
        <ele>523.6006</ele>
        <time>2020-02-18T14:18:16+01:00</time>
      </trkpt>
      <trkpt lat="46.84995" lon="4.41624">
        <ele>523.4004</ele>
        <time>2020-02-18T14:18:21+01:00</time>
      </trkpt>
      <trkpt lat="46.84991" lon="4.41633">
        <ele>523.4004</ele>
        <time>2020-02-18T14:18:26+01:00</time>
      </trkpt>
      <trkpt lat="46.84987" lon="4.41642">
        <ele>523.2002</ele>
        <time>2020-02-18T14:18:31+01:00</time>
      </trkpt>
      <trkpt lat="46.84982" lon="4.4165">
        <ele>523.5</ele>
        <time>2020-02-18T14:18:36+01:00</time>
      </trkpt>
      <trkpt lat="46.84975" lon="4.41654">
        <ele>523.2998</ele>
        <time>2020-02-18T14:18:41+01:00</time>
      </trkpt>
      <trkpt lat="46.84963" lon="4.4166">
        <ele>523.9004</ele>
        <time>2020-02-18T14:18:51+01:00</time>
      </trkpt>
      <trkpt lat="46.84956" lon="4.41662">
        <ele>525</ele>
        <time>2020-02-18T14:18:56+01:00</time>
      </trkpt>
      <trkpt lat="46.84949" lon="4.41664">
        <ele>526.4004</ele>
        <time>2020-02-18T14:19:01+01:00</time>
      </trkpt>
      <trkpt lat="46.84919" lon="4.41675">
        <ele>529.4004</ele>
        <time>2020-02-18T14:19:21+01:00</time>
      </trkpt>
      <trkpt lat="46.84911" lon="4.41677">
        <ele>530.6006</ele>
        <time>2020-02-18T14:19:26+01:00</time>
      </trkpt>
      <trkpt lat="46.84905" lon="4.4168">
        <ele>530.6006</ele>
        <time>2020-02-18T14:19:31+01:00</time>
      </trkpt>
      <trkpt lat="46.84898" lon="4.41682">
        <ele>531.5</ele>
        <time>2020-02-18T14:19:36+01:00</time>
      </trkpt>
      <trkpt lat="46.84892" lon="4.41685">
        <ele>531.7002</ele>
        <time>2020-02-18T14:19:41+01:00</time>
      </trkpt>
      <trkpt lat="46.84886" lon="4.41688">
        <ele>532.4004</ele>
        <time>2020-02-18T14:19:46+01:00</time>
      </trkpt>
      <trkpt lat="46.84881" lon="4.41692">
        <ele>532.4004</ele>
        <time>2020-02-18T14:19:51+01:00</time>
      </trkpt>
      <trkpt lat="46.84874" lon="4.41695">
        <ele>532.7002</ele>
        <time>2020-02-18T14:19:56+01:00</time>
      </trkpt>
      <trkpt lat="46.84836" lon="4.41708">
        <ele>533.1006</ele>
        <time>2020-02-18T14:20:21+01:00</time>
      </trkpt>
      <trkpt lat="46.84826" lon="4.4171">
        <ele>533.1006</ele>
        <time>2020-02-18T14:20:26+01:00</time>
      </trkpt>
      <trkpt lat="46.84818" lon="4.4171">
        <ele>533</ele>
        <time>2020-02-18T14:20:31+01:00</time>
      </trkpt>
      <trkpt lat="46.84811" lon="4.4171">
        <ele>533</ele>
        <time>2020-02-18T14:20:36+01:00</time>
      </trkpt>
      <trkpt lat="46.84803" lon="4.41711">
        <ele>532.9004</ele>
        <time>2020-02-18T14:20:41+01:00</time>
      </trkpt>
      <trkpt lat="46.84781" lon="4.41711">
        <ele>532.4004</ele>
        <time>2020-02-18T14:20:56+01:00</time>
      </trkpt>
      <trkpt lat="46.84774" lon="4.41711">
        <ele>532.2002</ele>
        <time>2020-02-18T14:21:01+01:00</time>
      </trkpt>
      <trkpt lat="46.84759" lon="4.41711">
        <ele>532.1006</ele>
        <time>2020-02-18T14:21:11+01:00</time>
      </trkpt>
      <trkpt lat="46.84752" lon="4.41711">
        <ele>532.1006</ele>
        <time>2020-02-18T14:21:16+01:00</time>
      </trkpt>
      <trkpt lat="46.84745" lon="4.4171">
        <ele>532</ele>
        <time>2020-02-18T14:21:21+01:00</time>
      </trkpt>
      <trkpt lat="46.84737" lon="4.4171">
        <ele>532</ele>
        <time>2020-02-18T14:21:26+01:00</time>
      </trkpt>
      <trkpt lat="46.84729" lon="4.41711">
        <ele>532</ele>
        <time>2020-02-18T14:21:31+01:00</time>
      </trkpt>
      <trkpt lat="46.84722" lon="4.4171">
        <ele>532.1006</ele>
        <time>2020-02-18T14:21:36+01:00</time>
      </trkpt>
      <trkpt lat="46.847" lon="4.41715">
        <ele>532.4004</ele>
        <time>2020-02-18T14:21:51+01:00</time>
      </trkpt>
      <trkpt lat="46.84692" lon="4.41718">
        <ele>532.5</ele>
        <time>2020-02-18T14:21:56+01:00</time>
      </trkpt>
      <trkpt lat="46.84679" lon="4.41725">
        <ele>532.2002</ele>
        <time>2020-02-18T14:22:06+01:00</time>
      </trkpt>
      <trkpt lat="46.84672" lon="4.41729">
        <ele>532.2002</ele>
        <time>2020-02-18T14:22:11+01:00</time>
      </trkpt>
      <trkpt lat="46.84666" lon="4.41732">
        <ele>532.1006</ele>
        <time>2020-02-18T14:22:16+01:00</time>
      </trkpt>
      <trkpt lat="46.84639" lon="4.41759">
        <ele>530.7998</ele>
        <time>2020-02-18T14:22:36+01:00</time>
      </trkpt>
      <trkpt lat="46.84633" lon="4.41765">
        <ele>530.2998</ele>
        <time>2020-02-18T14:22:41+01:00</time>
      </trkpt>
      <trkpt lat="46.84606" lon="4.41792">
        <ele>528.2002</ele>
        <time>2020-02-18T14:23:01+01:00</time>
      </trkpt>
      <trkpt lat="46.84601" lon="4.418">
        <ele>528.2002</ele>
        <time>2020-02-18T14:23:06+01:00</time>
      </trkpt>
      <trkpt lat="46.84595" lon="4.41808">
        <ele>527.4004</ele>
        <time>2020-02-18T14:23:11+01:00</time>
      </trkpt>
      <trkpt lat="46.84589" lon="4.41814">
        <ele>527.4004</ele>
        <time>2020-02-18T14:23:16+01:00</time>
      </trkpt>
      <trkpt lat="46.84573" lon="4.41837">
        <ele>526</ele>
        <time>2020-02-18T14:23:31+01:00</time>
      </trkpt>
      <trkpt lat="46.84556" lon="4.41859">
        <ele>525.2002</ele>
        <time>2020-02-18T14:23:46+01:00</time>
      </trkpt>
      <trkpt lat="46.84551" lon="4.41867">
        <ele>524.7002</ele>
        <time>2020-02-18T14:23:51+01:00</time>
      </trkpt>
      <trkpt lat="46.8454" lon="4.41882">
        <ele>523.9004</ele>
        <time>2020-02-18T14:24:01+01:00</time>
      </trkpt>
      <trkpt lat="46.84528" lon="4.41897">
        <ele>523.6006</ele>
        <time>2020-02-18T14:24:11+01:00</time>
      </trkpt>
      <trkpt lat="46.84516" lon="4.4191">
        <ele>522.7002</ele>
        <time>2020-02-18T14:24:21+01:00</time>
      </trkpt>
      <trkpt lat="46.8451" lon="4.41915">
        <ele>522.7002</ele>
        <time>2020-02-18T14:24:26+01:00</time>
      </trkpt>
      <trkpt lat="46.84497" lon="4.41926">
        <ele>522.5</ele>
        <time>2020-02-18T14:24:36+01:00</time>
      </trkpt>
      <trkpt lat="46.84491" lon="4.4193">
        <ele>522.2998</ele>
        <time>2020-02-18T14:24:41+01:00</time>
      </trkpt>
      <trkpt lat="46.84484" lon="4.41935">
        <ele>522.2998</ele>
        <time>2020-02-18T14:24:46+01:00</time>
      </trkpt>
      <trkpt lat="46.84479" lon="4.41939">
        <ele>522.2002</ele>
        <time>2020-02-18T14:24:51+01:00</time>
      </trkpt>
      <trkpt lat="46.84472" lon="4.41944">
        <ele>522</ele>
        <time>2020-02-18T14:24:56+01:00</time>
      </trkpt>
      <trkpt lat="46.8446" lon="4.41955">
        <ele>521.7998</ele>
        <time>2020-02-18T14:25:06+01:00</time>
      </trkpt>
      <trkpt lat="46.84454" lon="4.41961">
        <ele>521.4004</ele>
        <time>2020-02-18T14:25:11+01:00</time>
      </trkpt>
      <trkpt lat="46.84443" lon="4.41976">
        <ele>520.9004</ele>
        <time>2020-02-18T14:25:21+01:00</time>
      </trkpt>
      <trkpt lat="46.84438" lon="4.41984">
        <ele>520.7998</ele>
        <time>2020-02-18T14:25:26+01:00</time>
      </trkpt>
      <trkpt lat="46.84427" lon="4.42001">
        <ele>520</ele>
        <time>2020-02-18T14:25:36+01:00</time>
      </trkpt>
      <trkpt lat="46.84409" lon="4.42024">
        <ele>517.9004</ele>
        <time>2020-02-18T14:25:51+01:00</time>
      </trkpt>
      <trkpt lat="46.84401" lon="4.42031">
        <ele>517.7002</ele>
        <time>2020-02-18T14:25:56+01:00</time>
      </trkpt>
      <trkpt lat="46.84395" lon="4.42037">
        <ele>516.9004</ele>
        <time>2020-02-18T14:26:01+01:00</time>
      </trkpt>
      <trkpt lat="46.84382" lon="4.42043">
        <ele>516.6006</ele>
        <time>2020-02-18T14:26:11+01:00</time>
      </trkpt>
      <trkpt lat="46.84376" lon="4.42046">
        <ele>516.2998</ele>
        <time>2020-02-18T14:26:16+01:00</time>
      </trkpt>
      <trkpt lat="46.84363" lon="4.42054">
        <ele>516.1006</ele>
        <time>2020-02-18T14:26:26+01:00</time>
      </trkpt>
      <trkpt lat="46.84355" lon="4.42057">
        <ele>516.1006</ele>
        <time>2020-02-18T14:26:31+01:00</time>
      </trkpt>
      <trkpt lat="46.84347" lon="4.42062">
        <ele>516.1006</ele>
        <time>2020-02-18T14:26:36+01:00</time>
      </trkpt>
      <trkpt lat="46.8434" lon="4.42066">
        <ele>515.5</ele>
        <time>2020-02-18T14:26:41+01:00</time>
      </trkpt>
      <trkpt lat="46.84333" lon="4.4207">
        <ele>515.5</ele>
        <time>2020-02-18T14:26:46+01:00</time>
      </trkpt>
      <trkpt lat="46.84325" lon="4.42074">
        <ele>515.6006</ele>
        <time>2020-02-18T14:26:51+01:00</time>
      </trkpt>
      <trkpt lat="46.84318" lon="4.42076">
        <ele>515.6006</ele>
        <time>2020-02-18T14:26:56+01:00</time>
      </trkpt>
      <trkpt lat="46.8431" lon="4.42077">
        <ele>515.7002</ele>
        <time>2020-02-18T14:27:01+01:00</time>
      </trkpt>
      <trkpt lat="46.84296" lon="4.42078">
        <ele>515.7998</ele>
        <time>2020-02-18T14:27:11+01:00</time>
      </trkpt>
      <trkpt lat="46.84288" lon="4.42079">
        <ele>516.1006</ele>
        <time>2020-02-18T14:27:16+01:00</time>
      </trkpt>
      <trkpt lat="46.84271" lon="4.42078">
        <ele>516.4004</ele>
        <time>2020-02-18T14:27:26+01:00</time>
      </trkpt>
      <trkpt lat="46.84263" lon="4.42077">
        <ele>516.5</ele>
        <time>2020-02-18T14:27:31+01:00</time>
      </trkpt>
      <trkpt lat="46.84257" lon="4.42082">
        <ele>516</ele>
        <time>2020-02-18T14:27:36+01:00</time>
      </trkpt>
      <trkpt lat="46.84251" lon="4.42083">
        <ele>516</ele>
        <time>2020-02-18T14:27:41+01:00</time>
      </trkpt>
      <trkpt lat="46.84246" lon="4.42084">
        <ele>516</ele>
        <time>2020-02-18T14:27:46+01:00</time>
      </trkpt>
      <trkpt lat="46.84234" lon="4.42082">
        <ele>515.7998</ele>
        <time>2020-02-18T14:27:56+01:00</time>
      </trkpt>
      <trkpt lat="46.84222" lon="4.42083">
        <ele>515.6006</ele>
        <time>2020-02-18T14:28:06+01:00</time>
      </trkpt>
      <trkpt lat="46.842" lon="4.42091">
        <ele>515.2002</ele>
        <time>2020-02-18T14:28:21+01:00</time>
      </trkpt>
      <trkpt lat="46.84179" lon="4.42098">
        <ele>514.1006</ele>
        <time>2020-02-18T14:28:36+01:00</time>
      </trkpt>
      <trkpt lat="46.84172" lon="4.421">
        <ele>513.6006</ele>
        <time>2020-02-18T14:28:41+01:00</time>
      </trkpt>
      <trkpt lat="46.84165" lon="4.42104">
        <ele>513.6006</ele>
        <time>2020-02-18T14:28:46+01:00</time>
      </trkpt>
      <trkpt lat="46.84144" lon="4.42115">
        <ele>512.5</ele>
        <time>2020-02-18T14:29:01+01:00</time>
      </trkpt>
      <trkpt lat="46.84136" lon="4.42118">
        <ele>512</ele>
        <time>2020-02-18T14:29:06+01:00</time>
      </trkpt>
      <trkpt lat="46.84121" lon="4.4212">
        <ele>511.5</ele>
        <time>2020-02-18T14:29:16+01:00</time>
      </trkpt>
      <trkpt lat="46.84114" lon="4.42124">
        <ele>510.9004</ele>
        <time>2020-02-18T14:29:21+01:00</time>
      </trkpt>
      <trkpt lat="46.84099" lon="4.42128">
        <ele>510.2998</ele>
        <time>2020-02-18T14:29:31+01:00</time>
      </trkpt>
      <trkpt lat="46.84077" lon="4.4214">
        <ele>508.7002</ele>
        <time>2020-02-18T14:29:46+01:00</time>
      </trkpt>
      <trkpt lat="46.84054" lon="4.42146">
        <ele>508.2998</ele>
        <time>2020-02-18T14:30:01+01:00</time>
      </trkpt>
      <trkpt lat="46.84047" lon="4.42148">
        <ele>508.2998</ele>
        <time>2020-02-18T14:30:06+01:00</time>
      </trkpt>
      <trkpt lat="46.84041" lon="4.42152">
        <ele>508.2998</ele>
        <time>2020-02-18T14:30:11+01:00</time>
      </trkpt>
      <trkpt lat="46.84034" lon="4.42156">
        <ele>508.5</ele>
        <time>2020-02-18T14:30:16+01:00</time>
      </trkpt>
      <trkpt lat="46.84028" lon="4.42161">
        <ele>508.5</ele>
        <time>2020-02-18T14:30:21+01:00</time>
      </trkpt>
      <trkpt lat="46.8397" lon="4.42191">
        <ele>509.2002</ele>
        <time>2020-02-18T14:31:01+01:00</time>
      </trkpt>
      <trkpt lat="46.83955" lon="4.42195">
        <ele>509.1006</ele>
        <time>2020-02-18T14:31:11+01:00</time>
      </trkpt>
      <trkpt lat="46.83949" lon="4.42199">
        <ele>508.9004</ele>
        <time>2020-02-18T14:31:16+01:00</time>
      </trkpt>
      <trkpt lat="46.83935" lon="4.42209">
        <ele>508.9004</ele>
        <time>2020-02-18T14:31:26+01:00</time>
      </trkpt>
      <trkpt lat="46.83913" lon="4.42222">
        <ele>508.5</ele>
        <time>2020-02-18T14:31:41+01:00</time>
      </trkpt>
      <trkpt lat="46.83905" lon="4.42225">
        <ele>508.2002</ele>
        <time>2020-02-18T14:31:46+01:00</time>
      </trkpt>
      <trkpt lat="46.83862" lon="4.42245">
        <ele>506.2002</ele>
        <time>2020-02-18T14:32:16+01:00</time>
      </trkpt>
      <trkpt lat="46.83855" lon="4.42248">
        <ele>505.5</ele>
        <time>2020-02-18T14:32:21+01:00</time>
      </trkpt>
      <trkpt lat="46.83841" lon="4.42252">
        <ele>504.4004</ele>
        <time>2020-02-18T14:32:31+01:00</time>
      </trkpt>
      <trkpt lat="46.83834" lon="4.42254">
        <ele>503.7002</ele>
        <time>2020-02-18T14:32:36+01:00</time>
      </trkpt>
      <trkpt lat="46.83814" lon="4.42265">
        <ele>502.9004</ele>
        <time>2020-02-18T14:32:51+01:00</time>
      </trkpt>
      <trkpt lat="46.83807" lon="4.42263">
        <ele>502.2002</ele>
        <time>2020-02-18T14:32:56+01:00</time>
      </trkpt>
      <trkpt lat="46.83803" lon="4.4226">
        <ele>502.2002</ele>
        <time>2020-02-18T14:33:01+01:00</time>
      </trkpt>
      <trkpt lat="46.83795" lon="4.42245">
        <ele>500.1</ele>
      </trkpt>
      <trkpt lat="46.83782" lon="4.42255">
        <ele>500.9004</ele>
        <time>2020-02-18T14:33:21+01:00</time>
      </trkpt>
      <trkpt lat="46.83775" lon="4.42257">
        <ele>500.2998</ele>
        <time>2020-02-18T14:33:26+01:00</time>
      </trkpt>
      <trkpt lat="46.83768" lon="4.42258">
        <ele>500.2998</ele>
        <time>2020-02-18T14:33:31+01:00</time>
      </trkpt>
      <trkpt lat="46.83746" lon="4.42253">
        <ele>499.2998</ele>
        <time>2020-02-18T14:33:46+01:00</time>
      </trkpt>
      <trkpt lat="46.83735" lon="4.42246">
        <ele>498.7002</ele>
        <time>2020-02-18T14:33:56+01:00</time>
      </trkpt>
      <trkpt lat="46.83729" lon="4.42241">
        <ele>498.1006</ele>
        <time>2020-02-18T14:34:01+01:00</time>
      </trkpt>
      <trkpt lat="46.83685" lon="4.42221">
        <ele>496.7998</ele>
        <time>2020-02-18T14:34:31+01:00</time>
      </trkpt>
      <trkpt lat="46.83665" lon="4.42215">
        <ele>495.4004</ele>
        <time>2020-02-18T14:34:46+01:00</time>
      </trkpt>
      <trkpt lat="46.83658" lon="4.42216">
        <ele>494.6006</ele>
        <time>2020-02-18T14:34:51+01:00</time>
      </trkpt>
      <trkpt lat="46.83646" lon="4.42215">
        <ele>493.7002</ele>
        <time>2020-02-18T14:35:01+01:00</time>
      </trkpt>
      <trkpt lat="46.83634" lon="4.42216">
        <ele>492.6006</ele>
        <time>2020-02-18T14:35:11+01:00</time>
      </trkpt>
      <trkpt lat="46.83627" lon="4.42216">
        <ele>492.6006</ele>
        <time>2020-02-18T14:35:16+01:00</time>
      </trkpt>
      <trkpt lat="46.8362" lon="4.42222">
        <ele>490.9004</ele>
        <time>2020-02-18T14:35:21+01:00</time>
      </trkpt>
      <trkpt lat="46.83601" lon="4.42221">
        <ele>489.2002</ele>
        <time>2020-02-18T14:35:36+01:00</time>
      </trkpt>
      <trkpt lat="46.83596" lon="4.42216">
        <ele>487.7002</ele>
        <time>2020-02-18T14:35:41+01:00</time>
      </trkpt>
      <trkpt lat="46.83576" lon="4.42205">
        <ele>485.2002</ele>
        <time>2020-02-18T14:35:56+01:00</time>
      </trkpt>
      <trkpt lat="46.8356" lon="4.422">
        <ele>484.1006</ele>
        <time>2020-02-18T14:36:06+01:00</time>
      </trkpt>
      <trkpt lat="46.8355" lon="4.42198">
        <ele>482.7002</ele>
        <time>2020-02-18T14:36:11+01:00</time>
      </trkpt>
      <trkpt lat="46.83534" lon="4.42196">
        <ele>481.7998</ele>
        <time>2020-02-18T14:36:21+01:00</time>
      </trkpt>
      <trkpt lat="46.83526" lon="4.42196">
        <ele>481</ele>
        <time>2020-02-18T14:36:26+01:00</time>
      </trkpt>
      <trkpt lat="46.83519" lon="4.42195">
        <ele>481</ele>
        <time>2020-02-18T14:36:31+01:00</time>
      </trkpt>
      <trkpt lat="46.83511" lon="4.42194">
        <ele>480.4004</ele>
        <time>2020-02-18T14:36:36+01:00</time>
      </trkpt>
      <trkpt lat="46.83503" lon="4.42193">
        <ele>479.7998</ele>
        <time>2020-02-18T14:36:41+01:00</time>
      </trkpt>
      <trkpt lat="46.83489" lon="4.42194">
        <ele>479.4004</ele>
        <time>2020-02-18T14:36:51+01:00</time>
      </trkpt>
      <trkpt lat="46.83474" lon="4.42192">
        <ele>479.1006</ele>
        <time>2020-02-18T14:37:01+01:00</time>
      </trkpt>
      <trkpt lat="46.83454" lon="4.42183">
        <ele>471.8</ele>
        <time>2020-02-18T14:37:16+01:00</time>
      </trkpt>
      <trkpt lat="46.83441" lon="4.42177">
        <ele>470.2</ele>
        <time>2020-02-18T14:37:21+01:00</time>
      </trkpt>
      <trkpt lat="46.8342" lon="4.42191">
        <ele>474.9004</ele>
        <time>2020-02-18T14:37:36+01:00</time>
      </trkpt>
      <trkpt lat="46.83413" lon="4.42193">
        <ele>474.9004</ele>
        <time>2020-02-18T14:37:41+01:00</time>
      </trkpt>
      <trkpt lat="46.83399" lon="4.42194">
        <ele>472.9004</ele>
        <time>2020-02-18T14:37:51+01:00</time>
      </trkpt>
      <trkpt lat="46.83388" lon="4.42195">
        <ele>471.6006</ele>
        <time>2020-02-18T14:38:01+01:00</time>
      </trkpt>
      <trkpt lat="46.83382" lon="4.42196">
        <ele>471.6006</ele>
        <time>2020-02-18T14:38:06+01:00</time>
      </trkpt>
      <trkpt lat="46.83356" lon="4.42208">
        <ele>469.6006</ele>
        <time>2020-02-18T14:38:26+01:00</time>
      </trkpt>
      <trkpt lat="46.83342" lon="4.42216">
        <ele>466.6006</ele>
        <time>2020-02-18T14:38:36+01:00</time>
      </trkpt>
      <trkpt lat="46.8332" lon="4.42231">
        <ele>465.7998</ele>
        <time>2020-02-18T14:38:51+01:00</time>
      </trkpt>
      <trkpt lat="46.83312" lon="4.42235">
        <ele>464.4004</ele>
        <time>2020-02-18T14:38:56+01:00</time>
      </trkpt>
      <trkpt lat="46.83305" lon="4.4224">
        <ele>462.2002</ele>
        <time>2020-02-18T14:39:01+01:00</time>
      </trkpt>
      <trkpt lat="46.83297" lon="4.42245">
        <ele>462.2002</ele>
        <time>2020-02-18T14:39:06+01:00</time>
      </trkpt>
      <trkpt lat="46.83291" lon="4.4225">
        <ele>460</ele>
        <time>2020-02-18T14:39:11+01:00</time>
      </trkpt>
      <trkpt lat="46.83284" lon="4.42254">
        <ele>460.4004</ele>
        <time>2020-02-18T14:39:16+01:00</time>
      </trkpt>
      <trkpt lat="46.83278" lon="4.4226">
        <ele>458.5</ele>
        <time>2020-02-18T14:39:21+01:00</time>
      </trkpt>
      <trkpt lat="46.83273" lon="4.42267">
        <ele>458.5</ele>
        <time>2020-02-18T14:39:26+01:00</time>
      </trkpt>
      <trkpt lat="46.83267" lon="4.42273">
        <ele>457</ele>
        <time>2020-02-18T14:39:31+01:00</time>
      </trkpt>
      <trkpt lat="46.83262" lon="4.42281">
        <ele>457</ele>
        <time>2020-02-18T14:39:36+01:00</time>
      </trkpt>
      <trkpt lat="46.83256" lon="4.42289">
        <ele>455.7998</ele>
        <time>2020-02-18T14:39:41+01:00</time>
      </trkpt>
      <trkpt lat="46.83251" lon="4.42298">
        <ele>455.7998</ele>
        <time>2020-02-18T14:39:46+01:00</time>
      </trkpt>
      <trkpt lat="46.83226" lon="4.42337">
        <ele>453.6006</ele>
        <time>2020-02-18T14:40:11+01:00</time>
      </trkpt>
      <trkpt lat="46.83221" lon="4.42342">
        <ele>452.4004</ele>
        <time>2020-02-18T14:40:16+01:00</time>
      </trkpt>
      <trkpt lat="46.83204" lon="4.42365">
        <ele>451.2998</ele>
        <time>2020-02-18T14:40:31+01:00</time>
      </trkpt>
      <trkpt lat="46.83199" lon="4.42374">
        <ele>450.1006</ele>
        <time>2020-02-18T14:40:36+01:00</time>
      </trkpt>
      <trkpt lat="46.83188" lon="4.4239">
        <ele>448.7002</ele>
        <time>2020-02-18T14:40:46+01:00</time>
      </trkpt>
      <trkpt lat="46.83183" lon="4.42398">
        <ele>448.7002</ele>
        <time>2020-02-18T14:40:51+01:00</time>
      </trkpt>
      <trkpt lat="46.83178" lon="4.42405">
        <ele>448.7002</ele>
        <time>2020-02-18T14:40:56+01:00</time>
      </trkpt>
      <trkpt lat="46.83168" lon="4.42418">
        <ele>447.2998</ele>
        <time>2020-02-18T14:41:06+01:00</time>
      </trkpt>
      <trkpt lat="46.8316" lon="4.42432">
        <ele>445.9004</ele>
        <time>2020-02-18T14:41:16+01:00</time>
      </trkpt>
      <trkpt lat="46.83157" lon="4.42443">
        <ele>448.2998</ele>
        <time>2020-02-18T14:41:21+01:00</time>
      </trkpt>
      <trkpt lat="46.83157" lon="4.42451">
        <ele>448.2998</ele>
        <time>2020-02-18T14:41:26+01:00</time>
      </trkpt>
      <trkpt lat="46.83153" lon="4.42458">
        <ele>446.9004</ele>
        <time>2020-02-18T14:41:31+01:00</time>
      </trkpt>
      <trkpt lat="46.83144" lon="4.42477">
        <ele>449.2002</ele>
        <time>2020-02-18T14:41:46+01:00</time>
      </trkpt>
      <trkpt lat="46.83126" lon="4.42513">
        <ele>447</ele>
        <time>2020-02-18T14:42:06+01:00</time>
      </trkpt>
      <trkpt lat="46.83121" lon="4.42521">
        <ele>447</ele>
        <time>2020-02-18T14:42:11+01:00</time>
      </trkpt>
      <trkpt lat="46.83112" lon="4.42538">
        <ele>446.4004</ele>
        <time>2020-02-18T14:42:21+01:00</time>
      </trkpt>
      <trkpt lat="46.83106" lon="4.42545">
        <ele>445.5</ele>
        <time>2020-02-18T14:42:26+01:00</time>
      </trkpt>
      <trkpt lat="46.83101" lon="4.42553">
        <ele>445.5</ele>
        <time>2020-02-18T14:42:31+01:00</time>
      </trkpt>
      <trkpt lat="46.83089" lon="4.42575">
        <ele>444.2998</ele>
        <time>2020-02-18T14:42:41+01:00</time>
      </trkpt>
      <trkpt lat="46.8308" lon="4.42596">
        <ele>445.2998</ele>
        <time>2020-02-18T14:42:51+01:00</time>
      </trkpt>
      <trkpt lat="46.83075" lon="4.42606">
        <ele>445.2998</ele>
        <time>2020-02-18T14:42:56+01:00</time>
      </trkpt>
      <trkpt lat="46.83067" lon="4.42635">
        <ele>445.6006</ele>
        <time>2020-02-18T14:43:11+01:00</time>
      </trkpt>
      <trkpt lat="46.83054" lon="4.42664">
        <ele>446</ele>
        <time>2020-02-18T14:43:26+01:00</time>
      </trkpt>
      <trkpt lat="46.83049" lon="4.42673">
        <ele>446</ele>
        <time>2020-02-18T14:43:31+01:00</time>
      </trkpt>
      <trkpt lat="46.8304" lon="4.42691">
        <ele>444.6006</ele>
        <time>2020-02-18T14:43:41+01:00</time>
      </trkpt>
      <trkpt lat="46.83037" lon="4.42699">
        <ele>443.1006</ele>
        <time>2020-02-18T14:43:46+01:00</time>
      </trkpt>
      <trkpt lat="46.83025" lon="4.42715">
        <ele>444.2002</ele>
        <time>2020-02-18T14:43:56+01:00</time>
      </trkpt>
      <trkpt lat="46.83014" lon="4.4273">
        <ele>441.7998</ele>
        <time>2020-02-18T14:44:06+01:00</time>
      </trkpt>
      <trkpt lat="46.83009" lon="4.4274">
        <ele>440.4004</ele>
        <time>2020-02-18T14:44:11+01:00</time>
      </trkpt>
      <trkpt lat="46.83005" lon="4.4275">
        <ele>441.7002</ele>
        <time>2020-02-18T14:44:16+01:00</time>
      </trkpt>
      <trkpt lat="46.83" lon="4.42759">
        <ele>439.6006</ele>
        <time>2020-02-18T14:44:21+01:00</time>
      </trkpt>
      <trkpt lat="46.82996" lon="4.42768">
        <ele>440.7998</ele>
        <time>2020-02-18T14:44:26+01:00</time>
      </trkpt>
      <trkpt lat="46.8299" lon="4.42774">
        <ele>440.7998</ele>
        <time>2020-02-18T14:44:31+01:00</time>
      </trkpt>
      <trkpt lat="46.82975" lon="4.42775">
        <ele>431.1</ele>
      </trkpt>
      <trkpt lat="46.82958" lon="4.42761">
        <ele>434.5</ele>
        <time>2020-02-18T14:44:56+01:00</time>
      </trkpt>
      <trkpt lat="46.82954" lon="4.42732">
        <ele>424.8</ele>
      </trkpt>
      <trkpt lat="46.82939" lon="4.42713">
        <ele>421.4</ele>
      </trkpt>
      <trkpt lat="46.82924" lon="4.42718">
        <ele>420.4</ele>
      </trkpt>
      <trkpt lat="46.82911" lon="4.42708">
        <ele>418.9</ele>
        <time>2020-02-18T14:45:41+01:00</time>
      </trkpt>
      <trkpt lat="46.82899" lon="4.42708">
        <ele>420</ele>
      </trkpt>
      <trkpt lat="46.82886" lon="4.42711">
        <ele>425.7002</ele>
        <time>2020-02-18T14:45:56+01:00</time>
      </trkpt>
      <trkpt lat="46.82871" lon="4.427">
        <ele>425.7002</ele>
        <time>2020-02-18T14:46:06+01:00</time>
      </trkpt>
      <trkpt lat="46.82851" lon="4.42681">
        <ele>423.7002</ele>
        <time>2020-02-18T14:46:21+01:00</time>
      </trkpt>
      <trkpt lat="46.8284" lon="4.42671">
        <ele>421.7002</ele>
        <time>2020-02-18T14:46:31+01:00</time>
      </trkpt>
      <trkpt lat="46.8282" lon="4.42658">
        <ele>418.9004</ele>
        <time>2020-02-18T14:46:46+01:00</time>
      </trkpt>
      <trkpt lat="46.82802" lon="4.42645">
        <ele>413.8</ele>
      </trkpt>
      <trkpt lat="46.82781" lon="4.4267">
        <ele>418</ele>
        <time>2020-02-18T14:47:16+01:00</time>
      </trkpt>
      <trkpt lat="46.82775" lon="4.42675">
        <ele>416.4004</ele>
        <time>2020-02-18T14:47:21+01:00</time>
      </trkpt>
      <trkpt lat="46.82764" lon="4.42684">
        <ele>416.5</ele>
        <time>2020-02-18T14:47:31+01:00</time>
      </trkpt>
      <trkpt lat="46.82758" lon="4.42689">
        <ele>416.5</ele>
        <time>2020-02-18T14:47:36+01:00</time>
      </trkpt>
      <trkpt lat="46.82753" lon="4.42694">
        <ele>414.4004</ele>
        <time>2020-02-18T14:47:41+01:00</time>
      </trkpt>
      <trkpt lat="46.82747" lon="4.427">
        <ele>416.2998</ele>
        <time>2020-02-18T14:47:46+01:00</time>
      </trkpt>
      <trkpt lat="46.82742" lon="4.42705">
        <ele>413.9004</ele>
        <time>2020-02-18T14:47:51+01:00</time>
      </trkpt>
      <trkpt lat="46.82739" lon="4.42709">
        <ele>413.9004</ele>
        <time>2020-02-18T14:47:56+01:00</time>
      </trkpt>
      <trkpt lat="46.82733" lon="4.42715">
        <ele>415.6006</ele>
        <time>2020-02-18T14:48:01+01:00</time>
      </trkpt>
      <trkpt lat="46.82727" lon="4.42721">
        <ele>413.1006</ele>
        <time>2020-02-18T14:48:06+01:00</time>
      </trkpt>
      <trkpt lat="46.82717" lon="4.42733">
        <ele>412</ele>
        <time>2020-02-18T14:48:16+01:00</time>
      </trkpt>
      <trkpt lat="46.8271" lon="4.42741">
        <ele>412</ele>
        <time>2020-02-18T14:48:21+01:00</time>
      </trkpt>
      <trkpt lat="46.82691" lon="4.42762">
        <ele>408.2998</ele>
        <time>2020-02-18T14:48:36+01:00</time>
      </trkpt>
      <trkpt lat="46.82663" lon="4.42782">
        <ele>403.6006</ele>
        <time>2020-02-18T14:48:56+01:00</time>
      </trkpt>
      <trkpt lat="46.82657" lon="4.42789">
        <ele>401.7998</ele>
        <time>2020-02-18T14:49:01+01:00</time>
      </trkpt>
      <trkpt lat="46.82644" lon="4.42802">
        <ele>400</ele>
        <time>2020-02-18T14:49:11+01:00</time>
      </trkpt>
      <trkpt lat="46.8263" lon="4.42822">
        <ele>397.9004</ele>
        <time>2020-02-18T14:49:26+01:00</time>
      </trkpt>
      <trkpt lat="46.82626" lon="4.4283">
        <ele>395.2002</ele>
        <time>2020-02-18T14:49:31+01:00</time>
      </trkpt>
      <trkpt lat="46.82618" lon="4.4285">
        <ele>396</ele>
        <time>2020-02-18T14:49:41+01:00</time>
      </trkpt>
      <trkpt lat="46.82608" lon="4.42882">
        <ele>394.1006</ele>
        <time>2020-02-18T14:49:56+01:00</time>
      </trkpt>
      <trkpt lat="46.82599" lon="4.42912">
        <ele>390.5</ele>
        <time>2020-02-18T14:50:11+01:00</time>
      </trkpt>
      <trkpt lat="46.82596" lon="4.42932">
        <ele>389.5</ele>
        <time>2020-02-18T14:50:21+01:00</time>
      </trkpt>
      <trkpt lat="46.82595" lon="4.42943">
        <ele>388.2002</ele>
        <time>2020-02-18T14:50:26+01:00</time>
      </trkpt>
      <trkpt lat="46.82591" lon="4.42997">
        <ele>381.2002</ele>
        <time>2020-02-18T14:50:51+01:00</time>
      </trkpt>
      <trkpt lat="46.82588" lon="4.43018">
        <ele>374.7002</ele>
        <time>2020-02-18T14:51:01+01:00</time>
      </trkpt>
      <trkpt lat="46.82589" lon="4.43026">
        <ele>371.6006</ele>
        <time>2020-02-18T14:51:06+01:00</time>
      </trkpt>
      <trkpt lat="46.82593" lon="4.43035">
        <ele>375</ele>
        <time>2020-02-18T14:51:11+01:00</time>
      </trkpt>
      <trkpt lat="46.82614" lon="4.43051">
        <ele>372.6</ele>
        <time>2020-02-18T14:51:31+01:00</time>
      </trkpt>
      <trkpt lat="46.82628" lon="4.43058">
        <ele>374.6</ele>
        <time>2020-02-18T14:51:36+01:00</time>
      </trkpt>
      <trkpt lat="46.82634" lon="4.43068">
        <ele>373.8</ele>
        <time>2020-02-18T14:51:41+01:00</time>
      </trkpt>
      <trkpt lat="46.82654" lon="4.43102">
        <ele>373.1006</ele>
        <time>2020-02-18T14:52:06+01:00</time>
      </trkpt>
      <trkpt lat="46.82661" lon="4.43138">
        <ele>368.2002</ele>
        <time>2020-02-18T14:52:21+01:00</time>
      </trkpt>
      <trkpt lat="46.82661" lon="4.43153">
        <ele>363</ele>
        <time>2020-02-18T14:52:26+01:00</time>
      </trkpt>
      <trkpt lat="46.8266" lon="4.43203">
        <ele>356.4004</ele>
        <time>2020-02-18T14:52:46+01:00</time>
      </trkpt>
      <trkpt lat="46.82662" lon="4.43227">
        <ele>356</ele>
        <time>2020-02-18T14:52:56+01:00</time>
      </trkpt>
      <trkpt lat="46.82659" lon="4.43249">
        <ele>350.1006</ele>
        <time>2020-02-18T14:53:06+01:00</time>
      </trkpt>
      <trkpt lat="46.82656" lon="4.43259">
        <ele>350.1006</ele>
        <time>2020-02-18T14:53:11+01:00</time>
      </trkpt>
      <trkpt lat="46.82647" lon="4.43275">
        <ele>346.7998</ele>
        <time>2020-02-18T14:53:21+01:00</time>
      </trkpt>
      <trkpt lat="46.82644" lon="4.43284">
        <ele>345.5</ele>
        <time>2020-02-18T14:53:26+01:00</time>
      </trkpt>
      <trkpt lat="46.8264" lon="4.43293">
        <ele>345.5</ele>
        <time>2020-02-18T14:53:31+01:00</time>
      </trkpt>
      <trkpt lat="46.82623" lon="4.43324">
        <ele>340.7998</ele>
        <time>2020-02-18T14:53:51+01:00</time>
      </trkpt>
      <trkpt lat="46.82609" lon="4.43334">
        <ele>339</ele>
        <time>2020-02-18T14:54:01+01:00</time>
      </trkpt>
      <trkpt lat="46.82594" lon="4.43331">
        <ele>338.6006</ele>
        <time>2020-02-18T14:54:11+01:00</time>
      </trkpt>
      <trkpt lat="46.82577" lon="4.43331">
        <ele>336.9004</ele>
        <time>2020-02-18T14:54:21+01:00</time>
      </trkpt>
      <trkpt lat="46.82561" lon="4.43332">
        <ele>336.6006</ele>
        <time>2020-02-18T14:54:31+01:00</time>
      </trkpt>
      <trkpt lat="46.82554" lon="4.43332">
        <ele>336.2998</ele>
        <time>2020-02-18T14:54:36+01:00</time>
      </trkpt>
      <trkpt lat="46.82538" lon="4.43332">
        <ele>336.1006</ele>
        <time>2020-02-18T14:54:46+01:00</time>
      </trkpt>
      <trkpt lat="46.82531" lon="4.43333">
        <ele>336.2998</ele>
        <time>2020-02-18T14:54:51+01:00</time>
      </trkpt>
      <trkpt lat="46.82502" lon="4.43334">
        <ele>337.1006</ele>
        <time>2020-02-18T14:55:11+01:00</time>
      </trkpt>
      <trkpt lat="46.82495" lon="4.43333">
        <ele>336.7998</ele>
        <time>2020-02-18T14:55:16+01:00</time>
      </trkpt>
      <trkpt lat="46.82457" lon="4.43321">
        <ele>340.2998</ele>
        <time>2020-02-18T14:55:46+01:00</time>
      </trkpt>
      <trkpt lat="46.82453" lon="4.43313">
        <ele>339.2998</ele>
        <time>2020-02-18T14:55:51+01:00</time>
      </trkpt>
      <trkpt lat="46.82449" lon="4.43306">
        <ele>340.7002</ele>
        <time>2020-02-18T14:55:56+01:00</time>
      </trkpt>
      <trkpt lat="46.82438" lon="4.43296">
        <ele>339.5</ele>
        <time>2020-02-18T14:56:06+01:00</time>
      </trkpt>
      <trkpt lat="46.82432" lon="4.43289">
        <ele>341.2002</ele>
        <time>2020-02-18T14:56:11+01:00</time>
      </trkpt>
      <trkpt lat="46.82413" lon="4.43259">
        <ele>340.7998</ele>
        <time>2020-02-18T14:56:31+01:00</time>
      </trkpt>
      <trkpt lat="46.82407" lon="4.43251">
        <ele>340.7998</ele>
        <time>2020-02-18T14:56:36+01:00</time>
      </trkpt>
      <trkpt lat="46.8238" lon="4.43212">
        <ele>338.5</ele>
        <time>2020-02-18T14:57:01+01:00</time>
      </trkpt>
      <trkpt lat="46.82375" lon="4.43204">
        <ele>340.1006</ele>
        <time>2020-02-18T14:57:06+01:00</time>
      </trkpt>
      <trkpt lat="46.82356" lon="4.43181">
        <ele>340.2998</ele>
        <time>2020-02-18T14:57:26+01:00</time>
      </trkpt>
      <trkpt lat="46.82324" lon="4.43141">
        <ele>340</ele>
        <time>2020-02-18T14:57:56+01:00</time>
      </trkpt>
      <trkpt lat="46.82314" lon="4.43122">
        <ele>336.3</ele>
        <time>2020-02-18T14:58:06+01:00</time>
      </trkpt>
      <trkpt lat="46.82301" lon="4.43122">
        <ele>340.4004</ele>
        <time>2020-02-18T14:58:16+01:00</time>
      </trkpt>
      <trkpt lat="46.82296" lon="4.43121">
        <ele>341.5</ele>
        <time>2020-02-18T14:58:21+01:00</time>
      </trkpt>
      <trkpt lat="46.82276" lon="4.43114">
        <ele>342.5</ele>
        <time>2020-02-18T14:58:36+01:00</time>
      </trkpt>
      <trkpt lat="46.8227" lon="4.4311">
        <ele>342.7002</ele>
        <time>2020-02-18T14:58:41+01:00</time>
      </trkpt>
      <trkpt lat="46.82262" lon="4.43108">
        <ele>340.6006</ele>
        <time>2020-02-18T14:58:46+01:00</time>
      </trkpt>
      <trkpt lat="46.82233" lon="4.43098">
        <ele>340.9004</ele>
        <time>2020-02-18T14:59:06+01:00</time>
      </trkpt>
      <trkpt lat="46.82219" lon="4.4309">
        <ele>339.6006</ele>
        <time>2020-02-18T14:59:16+01:00</time>
      </trkpt>
      <trkpt lat="46.82211" lon="4.43088">
        <ele>339.9004</ele>
        <time>2020-02-18T14:59:21+01:00</time>
      </trkpt>
      <trkpt lat="46.82195" lon="4.43086">
        <ele>340</ele>
        <time>2020-02-18T14:59:31+01:00</time>
      </trkpt>
      <trkpt lat="46.8218" lon="4.43089">
        <ele>340.2002</ele>
        <time>2020-02-18T14:59:41+01:00</time>
      </trkpt>
      <trkpt lat="46.82173" lon="4.43091">
        <ele>340.7002</ele>
        <time>2020-02-18T14:59:46+01:00</time>
      </trkpt>
      <trkpt lat="46.82159" lon="4.43095">
        <ele>342.9004</ele>
        <time>2020-02-18T14:59:56+01:00</time>
      </trkpt>
      <trkpt lat="46.82151" lon="4.43097">
        <ele>343.2002</ele>
        <time>2020-02-18T15:00:01+01:00</time>
      </trkpt>
      <trkpt lat="46.82143" lon="4.43098">
        <ele>343.7002</ele>
        <time>2020-02-18T15:00:06+01:00</time>
      </trkpt>
      <trkpt lat="46.82136" lon="4.43099">
        <ele>343.7002</ele>
        <time>2020-02-18T15:00:11+01:00</time>
      </trkpt>
      <trkpt lat="46.82129" lon="4.43098">
        <ele>344.4004</ele>
        <time>2020-02-18T15:00:16+01:00</time>
      </trkpt>
      <trkpt lat="46.82108" lon="4.43099">
        <ele>346.7998</ele>
        <time>2020-02-18T15:00:31+01:00</time>
      </trkpt>
      <trkpt lat="46.82101" lon="4.43097">
        <ele>346.7998</ele>
        <time>2020-02-18T15:00:36+01:00</time>
      </trkpt>
      <trkpt lat="46.82084" lon="4.43093">
        <ele>350.2002</ele>
        <time>2020-02-18T15:00:56+01:00</time>
      </trkpt>
      <trkpt lat="46.82077" lon="4.43091">
        <ele>349.1006</ele>
        <time>2020-02-18T15:01:01+01:00</time>
      </trkpt>
      <trkpt lat="46.82072" lon="4.43084">
        <ele>351.5</ele>
        <time>2020-02-18T15:01:06+01:00</time>
      </trkpt>
      <trkpt lat="46.82061" lon="4.43082">
        <ele>354.1006</ele>
        <time>2020-02-18T15:01:16+01:00</time>
      </trkpt>
      <trkpt lat="46.82055" lon="4.43081">
        <ele>354.1006</ele>
        <time>2020-02-18T15:01:21+01:00</time>
      </trkpt>
      <trkpt lat="46.82047" lon="4.4308">
        <ele>356.7002</ele>
        <time>2020-02-18T15:01:26+01:00</time>
      </trkpt>
      <trkpt lat="46.82026" lon="4.43078">
        <ele>361.6006</ele>
        <time>2020-02-18T15:01:41+01:00</time>
      </trkpt>
      <trkpt lat="46.8202" lon="4.4308">
        <ele>361.6006</ele>
        <time>2020-02-18T15:01:46+01:00</time>
      </trkpt>
      <trkpt lat="46.82015" lon="4.43082">
        <ele>363.7998</ele>
        <time>2020-02-18T15:01:51+01:00</time>
      </trkpt>
      <trkpt lat="46.82008" lon="4.43084">
        <ele>363.7998</ele>
        <time>2020-02-18T15:01:56+01:00</time>
      </trkpt>
      <trkpt lat="46.82002" lon="4.43085">
        <ele>365.7002</ele>
        <time>2020-02-18T15:02:01+01:00</time>
      </trkpt>
      <trkpt lat="46.81996" lon="4.43086">
        <ele>365.7002</ele>
        <time>2020-02-18T15:02:06+01:00</time>
      </trkpt>
      <trkpt lat="46.8199" lon="4.43087">
        <ele>367.2998</ele>
        <time>2020-02-18T15:02:11+01:00</time>
      </trkpt>
      <trkpt lat="46.81977" lon="4.43089">
        <ele>368.6006</ele>
        <time>2020-02-18T15:02:21+01:00</time>
      </trkpt>
      <trkpt lat="46.81964" lon="4.43091">
        <ele>369.6006</ele>
        <time>2020-02-18T15:02:31+01:00</time>
      </trkpt>
      <trkpt lat="46.81951" lon="4.43095">
        <ele>370.7998</ele>
        <time>2020-02-18T15:02:41+01:00</time>
      </trkpt>
      <trkpt lat="46.81944" lon="4.431">
        <ele>371.4004</ele>
        <time>2020-02-18T15:02:46+01:00</time>
      </trkpt>
      <trkpt lat="46.81921" lon="4.43144">
        <ele>373.5</ele>
        <time>2020-02-18T15:03:16+01:00</time>
      </trkpt>
      <trkpt lat="46.81913" lon="4.43159">
        <ele>374.5</ele>
        <time>2020-02-18T15:03:26+01:00</time>
      </trkpt>
      <trkpt lat="46.81902" lon="4.43174">
        <ele>375.2002</ele>
        <time>2020-02-18T15:03:36+01:00</time>
      </trkpt>
      <trkpt lat="46.81896" lon="4.4318">
        <ele>376.1006</ele>
        <time>2020-02-18T15:03:41+01:00</time>
      </trkpt>
      <trkpt lat="46.81891" lon="4.43185">
        <ele>376.1006</ele>
        <time>2020-02-18T15:03:46+01:00</time>
      </trkpt>
      <trkpt lat="46.81885" lon="4.43189">
        <ele>375.7998</ele>
        <time>2020-02-18T15:03:51+01:00</time>
      </trkpt>
      <trkpt lat="46.8188" lon="4.43192">
        <ele>375.7998</ele>
        <time>2020-02-18T15:03:56+01:00</time>
      </trkpt>
      <trkpt lat="46.81867" lon="4.43193">
        <ele>375.7002</ele>
        <time>2020-02-18T15:04:06+01:00</time>
      </trkpt>
      <trkpt lat="46.81847" lon="4.43193">
        <ele>376.2998</ele>
        <time>2020-02-18T15:04:21+01:00</time>
      </trkpt>
      <trkpt lat="46.81833" lon="4.43196">
        <ele>378.1006</ele>
        <time>2020-02-18T15:04:31+01:00</time>
      </trkpt>
      <trkpt lat="46.81827" lon="4.43196">
        <ele>379</ele>
        <time>2020-02-18T15:04:36+01:00</time>
      </trkpt>
      <trkpt lat="46.8182" lon="4.43198">
        <ele>379</ele>
        <time>2020-02-18T15:04:41+01:00</time>
      </trkpt>
      <trkpt lat="46.81813" lon="4.43198">
        <ele>380.1006</ele>
        <time>2020-02-18T15:04:46+01:00</time>
      </trkpt>
      <trkpt lat="46.81801" lon="4.432">
        <ele>381.5</ele>
        <time>2020-02-18T15:04:56+01:00</time>
      </trkpt>
      <trkpt lat="46.8179" lon="4.43198">
        <ele>383</ele>
        <time>2020-02-18T15:05:06+01:00</time>
      </trkpt>
      <trkpt lat="46.81784" lon="4.43199">
        <ele>383</ele>
        <time>2020-02-18T15:05:11+01:00</time>
      </trkpt>
      <trkpt lat="46.81779" lon="4.432">
        <ele>384.7002</ele>
        <time>2020-02-18T15:05:16+01:00</time>
      </trkpt>
      <trkpt lat="46.81766" lon="4.43203">
        <ele>386.4004</ele>
        <time>2020-02-18T15:05:26+01:00</time>
      </trkpt>
      <trkpt lat="46.8176" lon="4.43204">
        <ele>386.4004</ele>
        <time>2020-02-18T15:05:31+01:00</time>
      </trkpt>
      <trkpt lat="46.81752" lon="4.43208">
        <ele>388.2998</ele>
        <time>2020-02-18T15:05:36+01:00</time>
      </trkpt>
      <trkpt lat="46.81746" lon="4.43208">
        <ele>388.2998</ele>
        <time>2020-02-18T15:05:41+01:00</time>
      </trkpt>
      <trkpt lat="46.81729" lon="4.43211">
        <ele>391.1006</ele>
        <time>2020-02-18T15:05:56+01:00</time>
      </trkpt>
      <trkpt lat="46.8171" lon="4.43215">
        <ele>393.1006</ele>
        <time>2020-02-18T15:06:11+01:00</time>
      </trkpt>
      <trkpt lat="46.81704" lon="4.43214">
        <ele>394.4004</ele>
        <time>2020-02-18T15:06:16+01:00</time>
      </trkpt>
      <trkpt lat="46.81673" lon="4.43217">
        <ele>397.7002</ele>
        <time>2020-02-18T15:06:41+01:00</time>
      </trkpt>
      <trkpt lat="46.81665" lon="4.43216">
        <ele>397.7002</ele>
        <time>2020-02-18T15:06:46+01:00</time>
      </trkpt>
      <trkpt lat="46.81651" lon="4.43221">
        <ele>398</ele>
        <time>2020-02-18T15:06:56+01:00</time>
      </trkpt>
      <trkpt lat="46.81645" lon="4.43222">
        <ele>398.1006</ele>
        <time>2020-02-18T15:07:01+01:00</time>
      </trkpt>
      <trkpt lat="46.81639" lon="4.43222">
        <ele>398</ele>
        <time>2020-02-18T15:07:06+01:00</time>
      </trkpt>
      <trkpt lat="46.81634" lon="4.43226">
        <ele>397.7998</ele>
        <time>2020-02-18T15:07:11+01:00</time>
      </trkpt>
      <trkpt lat="46.81627" lon="4.4323">
        <ele>397.7002</ele>
        <time>2020-02-18T15:07:16+01:00</time>
      </trkpt>
      <trkpt lat="46.81606" lon="4.43232">
        <ele>398</ele>
        <time>2020-02-18T15:07:31+01:00</time>
      </trkpt>
      <trkpt lat="46.816" lon="4.43234">
        <ele>398.1006</ele>
        <time>2020-02-18T15:07:36+01:00</time>
      </trkpt>
      <trkpt lat="46.81593" lon="4.43235">
        <ele>398.2998</ele>
        <time>2020-02-18T15:07:41+01:00</time>
      </trkpt>
      <trkpt lat="46.81587" lon="4.43237">
        <ele>398.4004</ele>
        <time>2020-02-18T15:07:46+01:00</time>
      </trkpt>
      <trkpt lat="46.81581" lon="4.43238">
        <ele>398.5</ele>
        <time>2020-02-18T15:07:51+01:00</time>
      </trkpt>
      <trkpt lat="46.81548" lon="4.43242">
        <ele>399.1006</ele>
        <time>2020-02-18T15:08:21+01:00</time>
      </trkpt>
      <trkpt lat="46.81531" lon="4.43237">
        <ele>399.7998</ele>
        <time>2020-02-18T15:08:36+01:00</time>
      </trkpt>
      <trkpt lat="46.81526" lon="4.43236">
        <ele>400.1006</ele>
        <time>2020-02-18T15:08:41+01:00</time>
      </trkpt>
      <trkpt lat="46.81521" lon="4.43235">
        <ele>400.4004</ele>
        <time>2020-02-18T15:08:46+01:00</time>
      </trkpt>
      <trkpt lat="46.8151" lon="4.43227">
        <ele>400.9004</ele>
        <time>2020-02-18T15:08:56+01:00</time>
      </trkpt>
      <trkpt lat="46.81505" lon="4.43223">
        <ele>401.2002</ele>
        <time>2020-02-18T15:09:01+01:00</time>
      </trkpt>
      <trkpt lat="46.81466" lon="4.43224">
        <ele>404.2998</ele>
        <time>2020-02-18T15:09:36+01:00</time>
      </trkpt>
      <trkpt lat="46.81459" lon="4.43225">
        <ele>404.7998</ele>
        <time>2020-02-18T15:09:41+01:00</time>
      </trkpt>
      <trkpt lat="46.81452" lon="4.43229">
        <ele>405.2998</ele>
        <time>2020-02-18T15:09:46+01:00</time>
      </trkpt>
      <trkpt lat="46.81445" lon="4.43234">
        <ele>406.1006</ele>
        <time>2020-02-18T15:09:51+01:00</time>
      </trkpt>
      <trkpt lat="46.81439" lon="4.43235">
        <ele>406.7002</ele>
        <time>2020-02-18T15:09:56+01:00</time>
      </trkpt>
      <trkpt lat="46.81433" lon="4.43234">
        <ele>407.2998</ele>
        <time>2020-02-18T15:10:01+01:00</time>
      </trkpt>
      <trkpt lat="46.81428" lon="4.43231">
        <ele>407.2998</ele>
        <time>2020-02-18T15:10:06+01:00</time>
      </trkpt>
      <trkpt lat="46.81416" lon="4.43224">
        <ele>409.2998</ele>
        <time>2020-02-18T15:10:16+01:00</time>
      </trkpt>
      <trkpt lat="46.8141" lon="4.4322">
        <ele>410</ele>
        <time>2020-02-18T15:10:21+01:00</time>
      </trkpt>
      <trkpt lat="46.81405" lon="4.43218">
        <ele>410</ele>
        <time>2020-02-18T15:10:26+01:00</time>
      </trkpt>
      <trkpt lat="46.81394" lon="4.43208">
        <ele>411.9004</ele>
        <time>2020-02-18T15:10:36+01:00</time>
      </trkpt>
      <trkpt lat="46.8137" lon="4.432">
        <ele>416</ele>
        <time>2020-02-18T15:10:56+01:00</time>
      </trkpt>
      <trkpt lat="46.8136" lon="4.43192">
        <ele>417.7998</ele>
        <time>2020-02-18T15:11:06+01:00</time>
      </trkpt>
      <trkpt lat="46.8135" lon="4.43185">
        <ele>419.9004</ele>
        <time>2020-02-18T15:11:16+01:00</time>
      </trkpt>
      <trkpt lat="46.81341" lon="4.43177">
        <ele>421</ele>
        <time>2020-02-18T15:11:26+01:00</time>
      </trkpt>
      <trkpt lat="46.81329" lon="4.4315">
        <ele>423</ele>
        <time>2020-02-18T15:11:46+01:00</time>
      </trkpt>
      <trkpt lat="46.81324" lon="4.43145">
        <ele>423.7002</ele>
        <time>2020-02-18T15:11:51+01:00</time>
      </trkpt>
      <trkpt lat="46.81315" lon="4.43124">
        <ele>424.9004</ele>
        <time>2020-02-18T15:12:06+01:00</time>
      </trkpt>
      <trkpt lat="46.81306" lon="4.43116">
        <ele>425.2998</ele>
        <time>2020-02-18T15:12:16+01:00</time>
      </trkpt>
      <trkpt lat="46.81294" lon="4.43114">
        <ele>426.1006</ele>
        <time>2020-02-18T15:12:26+01:00</time>
      </trkpt>
      <trkpt lat="46.81271" lon="4.43119">
        <ele>427</ele>
        <time>2020-02-18T15:12:41+01:00</time>
      </trkpt>
      <trkpt lat="46.81254" lon="4.43125">
        <ele>427.2998</ele>
        <time>2020-02-18T15:12:51+01:00</time>
      </trkpt>
      <trkpt lat="46.81249" lon="4.43129">
        <ele>427.5</ele>
        <time>2020-02-18T15:12:56+01:00</time>
      </trkpt>
      <trkpt lat="46.81243" lon="4.4313">
        <ele>427.6006</ele>
        <time>2020-02-18T15:13:01+01:00</time>
      </trkpt>
      <trkpt lat="46.81231" lon="4.43128">
        <ele>427.6006</ele>
        <time>2020-02-18T15:13:11+01:00</time>
      </trkpt>
      <trkpt lat="46.81209" lon="4.4313">
        <ele>425.7002</ele>
        <time>2020-02-18T15:13:26+01:00</time>
      </trkpt>
      <trkpt lat="46.81168" lon="4.43139">
        <ele>419.6006</ele>
        <time>2020-02-18T15:14:01+01:00</time>
      </trkpt>
      <trkpt lat="46.81162" lon="4.43144">
        <ele>419</ele>
        <time>2020-02-18T15:14:06+01:00</time>
      </trkpt>
      <trkpt lat="46.81144" lon="4.43159">
        <ele>415.9004</ele>
        <time>2020-02-18T15:14:21+01:00</time>
      </trkpt>
      <trkpt lat="46.81127" lon="4.43182">
        <ele>413.9004</ele>
        <time>2020-02-18T15:14:36+01:00</time>
      </trkpt>
      <trkpt lat="46.81105" lon="4.43209">
        <ele>412.1006</ele>
        <time>2020-02-18T15:14:56+01:00</time>
      </trkpt>
      <trkpt lat="46.81099" lon="4.43216">
        <ele>411.7998</ele>
        <time>2020-02-18T15:15:01+01:00</time>
      </trkpt>
      <trkpt lat="46.81095" lon="4.43223">
        <ele>411.6006</ele>
        <time>2020-02-18T15:15:06+01:00</time>
      </trkpt>
      <trkpt lat="46.81084" lon="4.43237">
        <ele>410.5</ele>
        <time>2020-02-18T15:15:16+01:00</time>
      </trkpt>
      <trkpt lat="46.81055" lon="4.43281">
        <ele>408</ele>
        <time>2020-02-18T15:15:41+01:00</time>
      </trkpt>
      <trkpt lat="46.81049" lon="4.43288">
        <ele>406.7998</ele>
        <time>2020-02-18T15:15:46+01:00</time>
      </trkpt>
      <trkpt lat="46.81037" lon="4.43301">
        <ele>405.4004</ele>
        <time>2020-02-18T15:15:56+01:00</time>
      </trkpt>
      <trkpt lat="46.81016" lon="4.43329">
        <ele>401.9004</ele>
        <time>2020-02-18T15:16:16+01:00</time>
      </trkpt>
      <trkpt lat="46.81005" lon="4.43344">
        <ele>401.4004</ele>
        <time>2020-02-18T15:16:26+01:00</time>
      </trkpt>
      <trkpt lat="46.81" lon="4.43352">
        <ele>400.6006</ele>
        <time>2020-02-18T15:16:31+01:00</time>
      </trkpt>
      <trkpt lat="46.80978" lon="4.43392">
        <ele>397.4004</ele>
        <time>2020-02-18T15:16:56+01:00</time>
      </trkpt>
      <trkpt lat="46.80975" lon="4.434">
        <ele>396.2998</ele>
        <time>2020-02-18T15:17:01+01:00</time>
      </trkpt>
      <trkpt lat="46.80972" lon="4.43408">
        <ele>396.1006</ele>
        <time>2020-02-18T15:17:06+01:00</time>
      </trkpt>
      <trkpt lat="46.8097" lon="4.43416">
        <ele>395.9004</ele>
        <time>2020-02-18T15:17:11+01:00</time>
      </trkpt>
      <trkpt lat="46.80969" lon="4.43425">
        <ele>394.7002</ele>
        <time>2020-02-18T15:17:16+01:00</time>
      </trkpt>
      <trkpt lat="46.80975" lon="4.43452">
        <ele>395.6006</ele>
        <time>2020-02-18T15:17:31+01:00</time>
      </trkpt>
      <trkpt lat="46.80979" lon="4.4346">
        <ele>396.5</ele>
        <time>2020-02-18T15:17:36+01:00</time>
      </trkpt>
      <trkpt lat="46.80997" lon="4.43477">
        <ele>398.7998</ele>
        <time>2020-02-18T15:17:51+01:00</time>
      </trkpt>
      <trkpt lat="46.81003" lon="4.43483">
        <ele>399.6006</ele>
        <time>2020-02-18T15:17:56+01:00</time>
      </trkpt>
      <trkpt lat="46.8101" lon="4.4349">
        <ele>400.6006</ele>
        <time>2020-02-18T15:18:01+01:00</time>
      </trkpt>
      <trkpt lat="46.81018" lon="4.4351">
        <ele>402.7002</ele>
        <time>2020-02-18T15:18:11+01:00</time>
      </trkpt>
      <trkpt lat="46.8102" lon="4.43521">
        <ele>402.5</ele>
        <time>2020-02-18T15:18:16+01:00</time>
      </trkpt>
      <trkpt lat="46.81009" lon="4.43548">
        <ele>399.2002</ele>
        <time>2020-02-18T15:18:31+01:00</time>
      </trkpt>
      <trkpt lat="46.81002" lon="4.43557">
        <ele>398.1006</ele>
        <time>2020-02-18T15:18:36+01:00</time>
      </trkpt>
      <trkpt lat="46.80996" lon="4.43564">
        <ele>397.1006</ele>
        <time>2020-02-18T15:18:41+01:00</time>
      </trkpt>
      <trkpt lat="46.80987" lon="4.43567">
        <ele>395.2002</ele>
        <time>2020-02-18T15:18:46+01:00</time>
      </trkpt>
      <trkpt lat="46.80977" lon="4.4357">
        <ele>394.2998</ele>
        <time>2020-02-18T15:18:51+01:00</time>
      </trkpt>
      <trkpt lat="46.80967" lon="4.4357">
        <ele>393</ele>
        <time>2020-02-18T15:18:56+01:00</time>
      </trkpt>
      <trkpt lat="46.80953" lon="4.4357">
        <ele>392.1006</ele>
        <time>2020-02-18T15:19:06+01:00</time>
      </trkpt>
      <trkpt lat="46.80938" lon="4.43568">
        <ele>390.7002</ele>
        <time>2020-02-18T15:19:16+01:00</time>
      </trkpt>
      <trkpt lat="46.80924" lon="4.4357">
        <ele>389.6006</ele>
        <time>2020-02-18T15:19:26+01:00</time>
      </trkpt>
      <trkpt lat="46.80906" lon="4.43577">
        <ele>387.4004</ele>
        <time>2020-02-18T15:19:36+01:00</time>
      </trkpt>
      <trkpt lat="46.80885" lon="4.43577">
        <ele>383.6006</ele>
        <time>2020-02-18T15:19:51+01:00</time>
      </trkpt>
      <trkpt lat="46.80877" lon="4.43579">
        <ele>382.6006</ele>
        <time>2020-02-18T15:19:56+01:00</time>
      </trkpt>
      <trkpt lat="46.80862" lon="4.43582">
        <ele>379.2002</ele>
        <time>2020-02-18T15:20:06+01:00</time>
      </trkpt>
      <trkpt lat="46.80849" lon="4.43582">
        <ele>375.6</ele>
      </trkpt>
      <trkpt lat="46.80842" lon="4.43586">
        <ele>374.6</ele>
      </trkpt>
      <trkpt lat="46.80834" lon="4.43581">
        <ele>374.1</ele>
        <time>2020-02-18T15:20:42+01:00</time>
      </trkpt>
      <trkpt lat="46.80821" lon="4.43563">
        <ele>372.4</ele>
      </trkpt>
      <trkpt lat="46.80827" lon="4.43573">
        <ele>373.2</ele>
      </trkpt>
      <trkpt lat="46.80813" lon="4.43542">
        <ele>371.4</ele>
        <time>2020-02-18T15:21:07+01:00</time>
      </trkpt>
      <trkpt lat="46.80804" lon="4.435">
        <ele>370.4</ele>
        <time>2020-02-18T15:21:22+01:00</time>
      </trkpt>
      <trkpt lat="46.80803" lon="4.43476">
        <ele>369.6</ele>
        <time>2020-02-18T15:21:32+01:00</time>
      </trkpt>
      <trkpt lat="46.80803" lon="4.43446">
        <ele>369.1</ele>
      </trkpt>
      <trkpt lat="46.80806" lon="4.43418">
        <ele>369.1</ele>
        <time>2020-02-18T15:21:47+01:00</time>
      </trkpt>
      <trkpt lat="46.80796" lon="4.43398">
        <ele>368.9</ele>
      </trkpt>
      <trkpt lat="46.80781" lon="4.43386">
        <ele>367.4</ele>
        <time>2020-02-18T15:22:07+01:00</time>
      </trkpt>
      <trkpt lat="46.80764" lon="4.43384">
        <ele>365.1</ele>
      </trkpt>
      <trkpt lat="46.80748" lon="4.43381">
        <ele>363</ele>
      </trkpt>
      <trkpt lat="46.80731" lon="4.4338">
        <ele>361.2</ele>
      </trkpt>
      <trkpt lat="46.80723" lon="4.43394">
        <ele>359.8</ele>
        <time>2020-02-18T15:22:32+01:00</time>
      </trkpt>
      <trkpt lat="46.80721" lon="4.43409">
        <ele>359.1</ele>
      </trkpt>
      <trkpt lat="46.80718" lon="4.43423">
        <ele>358.6</ele>
        <time>2020-02-18T15:22:37+01:00</time>
      </trkpt>
      <trkpt lat="46.8072" lon="4.43441">
        <ele>358.6</ele>
        <time>2020-02-18T15:22:42+01:00</time>
      </trkpt>
      <trkpt lat="46.80712" lon="4.43456">
        <ele>358</ele>
        <time>2020-02-18T15:22:52+01:00</time>
      </trkpt>
      <trkpt lat="46.80711" lon="4.43476">
        <ele>357.8</ele>
        <time>2020-02-18T15:22:57+01:00</time>
      </trkpt>
      <trkpt lat="46.80699" lon="4.4353">
        <ele>357</ele>
        <time>2020-02-18T15:23:12+01:00</time>
      </trkpt>
      <trkpt lat="46.80697" lon="4.43554">
        <ele>356.8</ele>
        <time>2020-02-18T15:23:17+01:00</time>
      </trkpt>
      <trkpt lat="46.8069" lon="4.43573">
        <ele>356.4</ele>
        <time>2020-02-18T15:23:22+01:00</time>
      </trkpt>
      <trkpt lat="46.8068" lon="4.43604">
        <ele>355.3</ele>
      </trkpt>
      <trkpt lat="46.80679" lon="4.43628">
        <ele>356.2998</ele>
        <time>2020-02-18T15:23:37+01:00</time>
      </trkpt>
      <trkpt lat="46.80676" lon="4.43637">
        <ele>355.6006</ele>
        <time>2020-02-18T15:23:42+01:00</time>
      </trkpt>
      <trkpt lat="46.80673" lon="4.43646">
        <ele>355.5</ele>
        <time>2020-02-18T15:23:47+01:00</time>
      </trkpt>
      <trkpt lat="46.80672" lon="4.43651">
        <ele>355.2998</ele>
        <time>2020-02-18T15:23:52+01:00</time>
      </trkpt>
      <trkpt lat="46.80665" lon="4.43677">
        <ele>354.2998</ele>
        <time>2020-02-18T15:24:07+01:00</time>
      </trkpt>
      <trkpt lat="46.80662" lon="4.43687">
        <ele>353.7002</ele>
        <time>2020-02-18T15:24:12+01:00</time>
      </trkpt>
      <trkpt lat="46.80661" lon="4.43696">
        <ele>353.5</ele>
        <time>2020-02-18T15:24:17+01:00</time>
      </trkpt>
      <trkpt lat="46.80656" lon="4.43714">
        <ele>352.7998</ele>
        <time>2020-02-18T15:24:27+01:00</time>
      </trkpt>
      <trkpt lat="46.80649" lon="4.43741">
        <ele>351.9004</ele>
        <time>2020-02-18T15:24:42+01:00</time>
      </trkpt>
      <trkpt lat="46.80644" lon="4.4377">
        <ele>351.1006</ele>
        <time>2020-02-18T15:24:57+01:00</time>
      </trkpt>
      <trkpt lat="46.8064" lon="4.4379">
        <ele>350.5</ele>
        <time>2020-02-18T15:25:07+01:00</time>
      </trkpt>
      <trkpt lat="46.80637" lon="4.43799">
        <ele>350.4004</ele>
        <time>2020-02-18T15:25:12+01:00</time>
      </trkpt>
      <trkpt lat="46.80632" lon="4.43827">
        <ele>350.1006</ele>
        <time>2020-02-18T15:25:27+01:00</time>
      </trkpt>
      <trkpt lat="46.80626" lon="4.43865">
        <ele>350</ele>
        <time>2020-02-18T15:25:47+01:00</time>
      </trkpt>
      <trkpt lat="46.80623" lon="4.43884">
        <ele>350.1006</ele>
        <time>2020-02-18T15:25:57+01:00</time>
      </trkpt>
      <trkpt lat="46.80619" lon="4.43907">
        <ele>350</ele>
        <time>2020-02-18T15:26:07+01:00</time>
      </trkpt>
      <trkpt lat="46.80616" lon="4.43917">
        <ele>349.9004</ele>
        <time>2020-02-18T15:26:12+01:00</time>
      </trkpt>
      <trkpt lat="46.80611" lon="4.4395">
        <ele>348.1</ele>
        <time>2020-02-18T15:26:27+01:00</time>
      </trkpt>
      <trkpt lat="46.80609" lon="4.43973">
        <ele>348.2</ele>
        <time>2020-02-18T15:26:37+01:00</time>
      </trkpt>
      <trkpt lat="46.8061" lon="4.43994">
        <ele>350.6006</ele>
        <time>2020-02-18T15:26:47+01:00</time>
      </trkpt>
      <trkpt lat="46.80611" lon="4.44016">
        <ele>351</ele>
        <time>2020-02-18T15:26:57+01:00</time>
      </trkpt>
      <trkpt lat="46.8061" lon="4.44026">
        <ele>351.2998</ele>
        <time>2020-02-18T15:27:02+01:00</time>
      </trkpt>
      <trkpt lat="46.80604" lon="4.4407">
        <ele>352.1006</ele>
        <time>2020-02-18T15:27:22+01:00</time>
      </trkpt>
      <trkpt lat="46.80602" lon="4.44099">
        <ele>353.4004</ele>
        <time>2020-02-18T15:27:37+01:00</time>
      </trkpt>
      <trkpt lat="46.806" lon="4.44109">
        <ele>353.7998</ele>
        <time>2020-02-18T15:27:42+01:00</time>
      </trkpt>
      <trkpt lat="46.80599" lon="4.44119">
        <ele>354</ele>
        <time>2020-02-18T15:27:47+01:00</time>
      </trkpt>
      <trkpt lat="46.80599" lon="4.44127">
        <ele>354.6006</ele>
        <time>2020-02-18T15:27:52+01:00</time>
      </trkpt>
      <trkpt lat="46.80598" lon="4.44136">
        <ele>355.2998</ele>
        <time>2020-02-18T15:27:57+01:00</time>
      </trkpt>
      <trkpt lat="46.80597" lon="4.44146">
        <ele>356</ele>
        <time>2020-02-18T15:28:02+01:00</time>
      </trkpt>
      <trkpt lat="46.80596" lon="4.44178">
        <ele>358.2998</ele>
        <time>2020-02-18T15:28:17+01:00</time>
      </trkpt>
      <trkpt lat="46.80595" lon="4.44208">
        <ele>359.9004</ele>
        <time>2020-02-18T15:28:32+01:00</time>
      </trkpt>
      <trkpt lat="46.80594" lon="4.44225">
        <ele>361</ele>
        <time>2020-02-18T15:28:42+01:00</time>
      </trkpt>
      <trkpt lat="46.80594" lon="4.44235">
        <ele>361.9004</ele>
        <time>2020-02-18T15:28:47+01:00</time>
      </trkpt>
      <trkpt lat="46.80594" lon="4.44255">
        <ele>362.7002</ele>
        <time>2020-02-18T15:28:57+01:00</time>
      </trkpt>
      <trkpt lat="46.80592" lon="4.44266">
        <ele>362.7002</ele>
        <time>2020-02-18T15:29:02+01:00</time>
      </trkpt>
      <trkpt lat="46.80587" lon="4.44306">
        <ele>363.7002</ele>
        <time>2020-02-18T15:29:22+01:00</time>
      </trkpt>
      <trkpt lat="46.80587" lon="4.44315">
        <ele>364</ele>
        <time>2020-02-18T15:29:27+01:00</time>
      </trkpt>
      <trkpt lat="46.80587" lon="4.44324">
        <ele>364.2002</ele>
        <time>2020-02-18T15:29:32+01:00</time>
      </trkpt>
      <trkpt lat="46.80587" lon="4.44343">
        <ele>364.6006</ele>
        <time>2020-02-18T15:29:42+01:00</time>
      </trkpt>
      <trkpt lat="46.80587" lon="4.44352">
        <ele>364.7002</ele>
        <time>2020-02-18T15:29:47+01:00</time>
      </trkpt>
      <trkpt lat="46.80587" lon="4.44361">
        <ele>364.9004</ele>
        <time>2020-02-18T15:29:52+01:00</time>
      </trkpt>
      <trkpt lat="46.80586" lon="4.44371">
        <ele>365.1006</ele>
        <time>2020-02-18T15:29:57+01:00</time>
      </trkpt>
      <trkpt lat="46.80585" lon="4.44382">
        <ele>365.5</ele>
        <time>2020-02-18T15:30:02+01:00</time>
      </trkpt>
      <trkpt lat="46.80584" lon="4.444">
        <ele>365.7002</ele>
        <time>2020-02-18T15:30:12+01:00</time>
      </trkpt>
      <trkpt lat="46.80583" lon="4.4441">
        <ele>365.7998</ele>
        <time>2020-02-18T15:30:17+01:00</time>
      </trkpt>
      <trkpt lat="46.80583" lon="4.44419">
        <ele>366</ele>
        <time>2020-02-18T15:30:22+01:00</time>
      </trkpt>
      <trkpt lat="46.80582" lon="4.4443">
        <ele>366.1006</ele>
        <time>2020-02-18T15:30:27+01:00</time>
      </trkpt>
      <trkpt lat="46.80579" lon="4.44441">
        <ele>365.9004</ele>
        <time>2020-02-18T15:30:32+01:00</time>
      </trkpt>
      <trkpt lat="46.80575" lon="4.44462">
        <ele>365.7998</ele>
        <time>2020-02-18T15:30:42+01:00</time>
      </trkpt>
      <trkpt lat="46.80574" lon="4.44472">
        <ele>365.9004</ele>
        <time>2020-02-18T15:30:47+01:00</time>
      </trkpt>
      <trkpt lat="46.80572" lon="4.44513">
        <ele>366.6006</ele>
        <time>2020-02-18T15:31:07+01:00</time>
      </trkpt>
      <trkpt lat="46.80571" lon="4.44523">
        <ele>366.7998</ele>
        <time>2020-02-18T15:31:12+01:00</time>
      </trkpt>
      <trkpt lat="46.8057" lon="4.44532">
        <ele>366.9004</ele>
        <time>2020-02-18T15:31:17+01:00</time>
      </trkpt>
      <trkpt lat="46.8057" lon="4.44542">
        <ele>366.7002</ele>
        <time>2020-02-18T15:31:22+01:00</time>
      </trkpt>
      <trkpt lat="46.80568" lon="4.44562">
        <ele>367</ele>
        <time>2020-02-18T15:31:32+01:00</time>
      </trkpt>
      <trkpt lat="46.80568" lon="4.44572">
        <ele>367.1006</ele>
        <time>2020-02-18T15:31:37+01:00</time>
      </trkpt>
      <trkpt lat="46.80567" lon="4.44582">
        <ele>367</ele>
        <time>2020-02-18T15:31:42+01:00</time>
      </trkpt>
      <trkpt lat="46.80567" lon="4.44591">
        <ele>367</ele>
        <time>2020-02-18T15:31:47+01:00</time>
      </trkpt>
      <trkpt lat="46.80566" lon="4.44613">
        <ele>366.7002</ele>
        <time>2020-02-18T15:31:57+01:00</time>
      </trkpt>
      <trkpt lat="46.80565" lon="4.44623">
        <ele>366.7002</ele>
        <time>2020-02-18T15:32:02+01:00</time>
      </trkpt>
      <trkpt lat="46.80564" lon="4.44656">
        <ele>366.2998</ele>
        <time>2020-02-18T15:32:17+01:00</time>
      </trkpt>
      <trkpt lat="46.80562" lon="4.44678">
        <ele>366.1006</ele>
        <time>2020-02-18T15:32:27+01:00</time>
      </trkpt>
      <trkpt lat="46.80562" lon="4.44689">
        <ele>366</ele>
        <time>2020-02-18T15:32:32+01:00</time>
      </trkpt>
      <trkpt lat="46.80559" lon="4.44742">
        <ele>364.4004</ele>
        <time>2020-02-18T15:32:57+01:00</time>
      </trkpt>
      <trkpt lat="46.80559" lon="4.44751">
        <ele>364.1006</ele>
        <time>2020-02-18T15:33:02+01:00</time>
      </trkpt>
      <trkpt lat="46.80559" lon="4.44792">
        <ele>363.1006</ele>
        <time>2020-02-18T15:33:22+01:00</time>
      </trkpt>
      <trkpt lat="46.80559" lon="4.44814">
        <ele>362.7998</ele>
        <time>2020-02-18T15:33:32+01:00</time>
      </trkpt>
      <trkpt lat="46.80558" lon="4.44834">
        <ele>362.2998</ele>
        <time>2020-02-18T15:33:42+01:00</time>
      </trkpt>
      <trkpt lat="46.80556" lon="4.44845">
        <ele>362</ele>
        <time>2020-02-18T15:33:47+01:00</time>
      </trkpt>
      <trkpt lat="46.80555" lon="4.44857">
        <ele>361.7998</ele>
        <time>2020-02-18T15:33:52+01:00</time>
      </trkpt>
      <trkpt lat="46.80554" lon="4.44867">
        <ele>361.7002</ele>
        <time>2020-02-18T15:33:57+01:00</time>
      </trkpt>
      <trkpt lat="46.80553" lon="4.44876">
        <ele>361.6006</ele>
        <time>2020-02-18T15:34:02+01:00</time>
      </trkpt>
      <trkpt lat="46.80553" lon="4.44887">
        <ele>361.2998</ele>
        <time>2020-02-18T15:34:07+01:00</time>
      </trkpt>
      <trkpt lat="46.80552" lon="4.44898">
        <ele>361.1006</ele>
        <time>2020-02-18T15:34:12+01:00</time>
      </trkpt>
      <trkpt lat="46.80549" lon="4.44931">
        <ele>360.2998</ele>
        <time>2020-02-18T15:34:27+01:00</time>
      </trkpt>
      <trkpt lat="46.80549" lon="4.4494">
        <ele>360.1006</ele>
        <time>2020-02-18T15:34:32+01:00</time>
      </trkpt>
      <trkpt lat="46.80548" lon="4.44966">
        <ele>359.2002</ele>
        <time>2020-02-18T15:34:47+01:00</time>
      </trkpt>
      <trkpt lat="46.80545" lon="4.44987">
        <ele>358.5</ele>
        <time>2020-02-18T15:34:57+01:00</time>
      </trkpt>
      <trkpt lat="46.80544" lon="4.44999">
        <ele>357.9004</ele>
        <time>2020-02-18T15:35:02+01:00</time>
      </trkpt>
      <trkpt lat="46.80543" lon="4.45011">
        <ele>357.7002</ele>
        <time>2020-02-18T15:35:07+01:00</time>
      </trkpt>
      <trkpt lat="46.80542" lon="4.45022">
        <ele>357.4004</ele>
        <time>2020-02-18T15:35:12+01:00</time>
      </trkpt>
      <trkpt lat="46.80543" lon="4.45067">
        <ele>355.6006</ele>
        <time>2020-02-18T15:35:32+01:00</time>
      </trkpt>
      <trkpt lat="46.80541" lon="4.45094">
        <ele>354.7002</ele>
        <time>2020-02-18T15:35:47+01:00</time>
      </trkpt>
      <trkpt lat="46.80542" lon="4.45104">
        <ele>354.2998</ele>
        <time>2020-02-18T15:35:52+01:00</time>
      </trkpt>
      <trkpt lat="46.8054" lon="4.45124">
        <ele>353.6006</ele>
        <time>2020-02-18T15:36:02+01:00</time>
      </trkpt>
      <trkpt lat="46.80537" lon="4.45134">
        <ele>353.2998</ele>
        <time>2020-02-18T15:36:07+01:00</time>
      </trkpt>
      <trkpt lat="46.80536" lon="4.45145">
        <ele>352.6006</ele>
        <time>2020-02-18T15:36:12+01:00</time>
      </trkpt>
      <trkpt lat="46.80534" lon="4.45167">
        <ele>351.7998</ele>
        <time>2020-02-18T15:36:22+01:00</time>
      </trkpt>
      <trkpt lat="46.80533" lon="4.45177">
        <ele>351.5</ele>
        <time>2020-02-18T15:36:27+01:00</time>
      </trkpt>
      <trkpt lat="46.80533" lon="4.4521">
        <ele>349.9004</ele>
        <time>2020-02-18T15:36:42+01:00</time>
      </trkpt>
      <trkpt lat="46.80533" lon="4.45221">
        <ele>349.5</ele>
        <time>2020-02-18T15:36:47+01:00</time>
      </trkpt>
      <trkpt lat="46.80531" lon="4.4524">
        <ele>348.5</ele>
        <time>2020-02-18T15:36:57+01:00</time>
      </trkpt>
      <trkpt lat="46.80529" lon="4.45251">
        <ele>346</ele>
      </trkpt>
      <trkpt lat="46.80525" lon="4.45254">
        <ele>345.9</ele>
        <time>2020-02-18T15:37:07+01:00</time>
      </trkpt>
      <trkpt lat="46.80516" lon="4.45251">
        <ele>347.9004</ele>
        <time>2020-02-18T15:37:12+01:00</time>
      </trkpt>
      <trkpt lat="46.80491" lon="4.4525">
        <ele>347.7002</ele>
        <time>2020-02-18T15:37:27+01:00</time>
      </trkpt>
      <trkpt lat="46.80484" lon="4.45249">
        <ele>347.7002</ele>
        <time>2020-02-18T15:37:32+01:00</time>
      </trkpt>
      <trkpt lat="46.80455" lon="4.45249">
        <ele>347.2998</ele>
        <time>2020-02-18T15:37:52+01:00</time>
      </trkpt>
      <trkpt lat="46.80444" lon="4.45254">
        <ele>347.1006</ele>
        <time>2020-02-18T15:38:02+01:00</time>
      </trkpt>
      <trkpt lat="46.80438" lon="4.45253">
        <ele>347</ele>
        <time>2020-02-18T15:38:07+01:00</time>
      </trkpt>
      <trkpt lat="46.80419" lon="4.4525">
        <ele>346.7998</ele>
        <time>2020-02-18T15:38:22+01:00</time>
      </trkpt>
      <trkpt lat="46.80409" lon="4.4525">
        <ele>346.7002</ele>
        <time>2020-02-18T15:38:27+01:00</time>
      </trkpt>
      <trkpt lat="46.80399" lon="4.45248">
        <ele>346.5</ele>
        <time>2020-02-18T15:38:32+01:00</time>
      </trkpt>
      <trkpt lat="46.80392" lon="4.45247">
        <ele>346.4004</ele>
        <time>2020-02-18T15:38:37+01:00</time>
      </trkpt>
      <trkpt lat="46.80377" lon="4.4524">
        <ele>344.9</ele>
        <time>2020-02-18T15:38:47+01:00</time>
      </trkpt>
      <trkpt lat="46.80365" lon="4.45241">
        <ele>344.7</ele>
        <time>2020-02-18T15:38:52+01:00</time>
      </trkpt>
      <trkpt lat="46.80362" lon="4.45247">
        <ele>344.5</ele>
        <time>2020-02-18T15:39:02+01:00</time>
      </trkpt>
      <trkpt lat="46.80378" lon="4.45284">
        <ele>344.9004</ele>
        <time>2020-02-18T15:39:17+01:00</time>
      </trkpt>
      <trkpt lat="46.8038" lon="4.45294">
        <ele>344.6006</ele>
        <time>2020-02-18T15:39:22+01:00</time>
      </trkpt>
      <trkpt lat="46.80384" lon="4.45303">
        <ele>344.5</ele>
        <time>2020-02-18T15:39:27+01:00</time>
      </trkpt>
      <trkpt lat="46.80387" lon="4.45315">
        <ele>344.2002</ele>
        <time>2020-02-18T15:39:32+01:00</time>
      </trkpt>
      <trkpt lat="46.80389" lon="4.45326">
        <ele>344.1006</ele>
        <time>2020-02-18T15:39:37+01:00</time>
      </trkpt>
      <trkpt lat="46.80393" lon="4.45337">
        <ele>344.1006</ele>
        <time>2020-02-18T15:39:42+01:00</time>
      </trkpt>
      <trkpt lat="46.80405" lon="4.45367">
        <ele>344.7998</ele>
        <time>2020-02-18T15:39:57+01:00</time>
      </trkpt>
      <trkpt lat="46.80409" lon="4.45378">
        <ele>345.2002</ele>
        <time>2020-02-18T15:40:02+01:00</time>
      </trkpt>
      <trkpt lat="46.80413" lon="4.45388">
        <ele>345.5</ele>
        <time>2020-02-18T15:40:07+01:00</time>
      </trkpt>
      <trkpt lat="46.80422" lon="4.45419">
        <ele>346.2998</ele>
        <time>2020-02-18T15:40:22+01:00</time>
      </trkpt>
      <trkpt lat="46.80431" lon="4.45449">
        <ele>347.1006</ele>
        <time>2020-02-18T15:40:37+01:00</time>
      </trkpt>
      <trkpt lat="46.80439" lon="4.45478">
        <ele>348</ele>
        <time>2020-02-18T15:40:52+01:00</time>
      </trkpt>
      <trkpt lat="46.80442" lon="4.45488">
        <ele>348.7998</ele>
        <time>2020-02-18T15:40:57+01:00</time>
      </trkpt>
      <trkpt lat="46.80446" lon="4.45496">
        <ele>349.1006</ele>
        <time>2020-02-18T15:41:02+01:00</time>
      </trkpt>
      <trkpt lat="46.80449" lon="4.45535">
        <ele>350.7998</ele>
        <time>2020-02-18T15:41:22+01:00</time>
      </trkpt>
      <trkpt lat="46.80467" lon="4.45584">
        <ele>353.2002</ele>
        <time>2020-02-18T15:41:47+01:00</time>
      </trkpt>
      <trkpt lat="46.8047" lon="4.45594">
        <ele>353.2998</ele>
        <time>2020-02-18T15:41:52+01:00</time>
      </trkpt>
      <trkpt lat="46.80482" lon="4.45631">
        <ele>353.7998</ele>
        <time>2020-02-18T15:42:12+01:00</time>
      </trkpt>
      <trkpt lat="46.80493" lon="4.45666">
        <ele>353.7002</ele>
        <time>2020-02-18T15:42:32+01:00</time>
      </trkpt>
      <trkpt lat="46.80503" lon="4.45692">
        <ele>353.4004</ele>
        <time>2020-02-18T15:42:47+01:00</time>
      </trkpt>
      <trkpt lat="46.80506" lon="4.45701">
        <ele>353.2998</ele>
        <time>2020-02-18T15:42:52+01:00</time>
      </trkpt>
      <trkpt lat="46.80513" lon="4.45721">
        <ele>352.5</ele>
        <time>2020-02-18T15:43:02+01:00</time>
      </trkpt>
      <trkpt lat="46.80516" lon="4.4574">
        <ele>351.7002</ele>
        <time>2020-02-18T15:43:12+01:00</time>
      </trkpt>
      <trkpt lat="46.80516" lon="4.45767">
        <ele>350.1006</ele>
        <time>2020-02-18T15:43:27+01:00</time>
      </trkpt>
      <trkpt lat="46.8052" lon="4.45777">
        <ele>349.9004</ele>
        <time>2020-02-18T15:43:32+01:00</time>
      </trkpt>
      <trkpt lat="46.80522" lon="4.45786">
        <ele>349.5</ele>
        <time>2020-02-18T15:43:37+01:00</time>
      </trkpt>
      <trkpt lat="46.80527" lon="4.458">
        <ele>348.1</ele>
      </trkpt>
      <trkpt lat="46.80528" lon="4.45818">
        <ele>347.2</ele>
        <time>2020-02-18T15:43:52+01:00</time>
      </trkpt>
      <trkpt lat="46.8053" lon="4.45826">
        <ele>346.9</ele>
        <time>2020-02-18T15:43:57+01:00</time>
      </trkpt>
      <trkpt lat="46.80535" lon="4.45837">
        <ele>346.6</ele>
        <time>2020-02-18T15:44:02+01:00</time>
      </trkpt>
      <trkpt lat="46.80546" lon="4.45868">
        <ele>346.6</ele>
        <time>2020-02-18T15:44:07+01:00</time>
      </trkpt>
      <trkpt lat="46.80552" lon="4.4591">
        <ele>346</ele>
        <time>2020-02-18T15:44:12+01:00</time>
      </trkpt>
      <trkpt lat="46.80538" lon="4.45925">
        <ele>345.4</ele>
      </trkpt>
      <trkpt lat="46.80517" lon="4.4594">
        <ele>344.7</ele>
        <time>2020-02-18T15:44:17+01:00</time>
      </trkpt>
      <trkpt lat="46.80498" lon="4.45944">
        <ele>343.9</ele>
      </trkpt>
      <trkpt lat="46.80481" lon="4.45956">
        <ele>345.7998</ele>
        <time>2020-02-18T15:45:07+01:00</time>
      </trkpt>
      <trkpt lat="46.80476" lon="4.45964">
        <ele>345.9004</ele>
        <time>2020-02-18T15:45:12+01:00</time>
      </trkpt>
      <trkpt lat="46.80478" lon="4.45976">
        <ele>346.1006</ele>
        <time>2020-02-18T15:45:17+01:00</time>
      </trkpt>
      <trkpt lat="46.80479" lon="4.45987">
        <ele>346.2998</ele>
        <time>2020-02-18T15:45:22+01:00</time>
      </trkpt>
      <trkpt lat="46.80476" lon="4.46008">
        <ele>343.4</ele>
        <time>2020-02-18T15:45:32+01:00</time>
      </trkpt>
      <trkpt lat="46.80461" lon="4.46011">
        <ele>343</ele>
        <time>2020-02-18T15:45:37+01:00</time>
      </trkpt>
      <trkpt lat="46.80445" lon="4.46019">
        <ele>342.8</ele>
        <time>2020-02-18T15:45:42+01:00</time>
      </trkpt>
      <trkpt lat="46.80435" lon="4.46026">
        <ele>342.8</ele>
      </trkpt>
      <trkpt lat="46.80426" lon="4.46039">
        <ele>343.2</ele>
        <time>2020-02-18T15:45:52+01:00</time>
      </trkpt>
      <trkpt lat="46.80423" lon="4.46044">
        <ele>343.3</ele>
        <time>2020-02-18T15:45:57+01:00</time>
      </trkpt>
      <trkpt lat="46.80416" lon="4.46059">
        <ele>343.8</ele>
        <time>2020-02-18T15:46:02+01:00</time>
      </trkpt>
      <trkpt lat="46.80413" lon="4.46073">
        <ele>344.5</ele>
        <time>2020-02-18T15:46:17+01:00</time>
      </trkpt>
      <trkpt lat="46.80411" lon="4.46085">
        <ele>345.2</ele>
        <time>2020-02-18T15:46:27+01:00</time>
      </trkpt>
      <trkpt lat="46.80406" lon="4.46097">
        <ele>345.8</ele>
      </trkpt>
      <trkpt lat="46.80406" lon="4.46108">
        <ele>346.2</ele>
        <time>2020-02-18T15:46:32+01:00</time>
      </trkpt>
      <trkpt lat="46.80402" lon="4.46111">
        <ele>346.5</ele>
        <time>2020-02-18T15:46:37+01:00</time>
      </trkpt>
      <trkpt lat="46.80399" lon="4.46119">
        <ele>346.9</ele>
      </trkpt>
      <trkpt lat="46.80398" lon="4.46124">
        <ele>347.1</ele>
        <time>2020-02-18T15:46:42+01:00</time>
      </trkpt>
      <trkpt lat="46.80394" lon="4.46129">
        <ele>347.5</ele>
        <time>2020-02-18T15:46:47+01:00</time>
      </trkpt>
      <trkpt lat="46.80385" lon="4.46142">
        <ele>348.4</ele>
        <time>2020-02-18T15:47:02+01:00</time>
      </trkpt>
      <trkpt lat="46.80382" lon="4.46152">
        <ele>349</ele>
        <time>2020-02-18T15:47:07+01:00</time>
      </trkpt>
      <trkpt lat="46.80383" lon="4.46175">
        <ele>349.6</ele>
        <time>2020-02-18T15:47:12+01:00</time>
      </trkpt>
      <trkpt lat="46.80383" lon="4.46191">
        <ele>349.6</ele>
      </trkpt>
      <trkpt lat="46.80383" lon="4.46205">
        <ele>349.5</ele>
        <time>2020-02-18T15:47:17+01:00</time>
      </trkpt>
      <trkpt lat="46.80384" lon="4.46215">
        <ele>349.5</ele>
        <time>2020-02-18T15:47:22+01:00</time>
      </trkpt>
      <trkpt lat="46.80386" lon="4.46222">
        <ele>349.3</ele>
      </trkpt>
      <trkpt lat="46.80387" lon="4.46233">
        <ele>349.2</ele>
        <time>2020-02-18T15:47:27+01:00</time>
      </trkpt>
      <trkpt lat="46.80387" lon="4.46245">
        <ele>349.2</ele>
        <time>2020-02-18T15:47:37+01:00</time>
      </trkpt>
      <trkpt lat="46.80388" lon="4.46267">
        <ele>349</ele>
        <time>2020-02-18T15:47:42+01:00</time>
      </trkpt>
      <trkpt lat="46.80389" lon="4.4629">
        <ele>348.8</ele>
      </trkpt>
      <trkpt lat="46.80392" lon="4.46308">
        <ele>348.6</ele>
        <time>2020-02-18T15:47:47+01:00</time>
      </trkpt>
      <trkpt lat="46.80387" lon="4.4633">
        <ele>348.7</ele>
        <time>2020-02-18T15:47:52+01:00</time>
      </trkpt>
      <trkpt lat="46.80389" lon="4.46362">
        <ele>349.1</ele>
        <time>2020-02-18T15:48:02+01:00</time>
      </trkpt>
      <trkpt lat="46.80396" lon="4.46376">
        <ele>349.3</ele>
        <time>2020-02-18T15:48:12+01:00</time>
      </trkpt>
      <trkpt lat="46.80394" lon="4.46389">
        <ele>349.5</ele>
        <time>2020-02-18T15:48:17+01:00</time>
      </trkpt>
      <trkpt lat="46.80395" lon="4.46406">
        <ele>349.8</ele>
        <time>2020-02-18T15:48:42+01:00</time>
      </trkpt>
      <trkpt lat="46.80398" lon="4.46418">
        <ele>350</ele>
      </trkpt>
      <trkpt lat="46.80401" lon="4.46441">
        <ele>350.3</ele>
        <time>2020-02-18T15:48:47+01:00</time>
      </trkpt>
      <trkpt lat="46.80402" lon="4.46462">
        <ele>350.5</ele>
        <time>2020-02-18T15:48:52+01:00</time>
      </trkpt>
      <trkpt lat="46.80404" lon="4.46481">
        <ele>350.8</ele>
        <time>2020-02-18T15:49:07+01:00</time>
      </trkpt>
      <trkpt lat="46.80404" lon="4.46495">
        <ele>350.9</ele>
        <time>2020-02-18T15:49:12+01:00</time>
      </trkpt>
      <trkpt lat="46.80406" lon="4.46513">
        <ele>351.3</ele>
        <time>2020-02-18T15:49:27+01:00</time>
      </trkpt>
      <trkpt lat="46.80408" lon="4.46522">
        <ele>351.5</ele>
      </trkpt>
      <trkpt lat="46.80409" lon="4.46533">
        <ele>351.7</ele>
        <time>2020-02-18T15:49:32+01:00</time>
      </trkpt>
      <trkpt lat="46.8041" lon="4.4655">
        <ele>352.1</ele>
        <time>2020-02-18T15:49:37+01:00</time>
      </trkpt>
      <trkpt lat="46.8041" lon="4.46563">
        <ele>352.4</ele>
        <time>2020-02-18T15:49:47+01:00</time>
      </trkpt>
      <trkpt lat="46.80411" lon="4.46579">
        <ele>352.8</ele>
        <time>2020-02-18T15:49:52+01:00</time>
      </trkpt>
      <trkpt lat="46.80413" lon="4.4659">
        <ele>353</ele>
        <time>2020-02-18T15:50:02+01:00</time>
      </trkpt>
      <trkpt lat="46.80416" lon="4.46597">
        <ele>353</ele>
        <time>2020-02-18T15:50:07+01:00</time>
      </trkpt>
      <trkpt lat="46.80424" lon="4.46606">
        <ele>353</ele>
      </trkpt>
      <trkpt lat="46.8043" lon="4.46609">
        <ele>353</ele>
        <time>2020-02-18T15:50:17+01:00</time>
      </trkpt>
      <trkpt lat="46.80435" lon="4.46613">
        <ele>353.1</ele>
      </trkpt>
      <trkpt lat="46.80432" lon="4.46627">
        <ele>353.1</ele>
        <time>2020-02-18T15:50:32+01:00</time>
      </trkpt>
      <trkpt lat="46.80428" lon="4.46636">
        <ele>353.1</ele>
        <time>2020-02-18T15:50:37+01:00</time>
      </trkpt>
      <trkpt lat="46.80427" lon="4.46648">
        <ele>353.1</ele>
        <time>2020-02-18T15:50:42+01:00</time>
      </trkpt>
      <trkpt lat="46.8042" lon="4.46649">
        <ele>353</ele>
        <time>2020-02-18T15:50:47+01:00</time>
      </trkpt>
      <trkpt lat="46.80416" lon="4.46657">
        <ele>353</ele>
        <time>2020-02-18T15:50:52+01:00</time>
      </trkpt>
      <trkpt lat="46.80413" lon="4.46678">
        <ele>352.9</ele>
        <time>2020-02-18T15:50:57+01:00</time>
      </trkpt>
      <trkpt lat="46.80399" lon="4.46696">
        <ele>354.4004</ele>
        <time>2020-02-18T15:51:12+01:00</time>
      </trkpt>
      <trkpt lat="46.80395" lon="4.46706">
        <ele>354.5</ele>
        <time>2020-02-18T15:51:17+01:00</time>
      </trkpt>
      <trkpt lat="46.80392" lon="4.46716">
        <ele>354.2998</ele>
        <time>2020-02-18T15:51:22+01:00</time>
      </trkpt>
      <trkpt lat="46.80389" lon="4.46725">
        <ele>354.2998</ele>
        <time>2020-02-18T15:51:27+01:00</time>
      </trkpt>
      <trkpt lat="46.80388" lon="4.46737">
        <ele>354.2998</ele>
        <time>2020-02-18T15:51:32+01:00</time>
      </trkpt>
      <trkpt lat="46.80389" lon="4.46749">
        <ele>354.2002</ele>
        <time>2020-02-18T15:51:37+01:00</time>
      </trkpt>
      <trkpt lat="46.80386" lon="4.46759">
        <ele>354</ele>
        <time>2020-02-18T15:51:42+01:00</time>
      </trkpt>
      <trkpt lat="46.80381" lon="4.46767">
        <ele>353.7002</ele>
        <time>2020-02-18T15:51:47+01:00</time>
      </trkpt>
      <trkpt lat="46.80379" lon="4.46778">
        <ele>353.7002</ele>
        <time>2020-02-18T15:51:52+01:00</time>
      </trkpt>
      <trkpt lat="46.80365" lon="4.46829">
        <ele>353.2998</ele>
        <time>2020-02-18T15:52:17+01:00</time>
      </trkpt>
      <trkpt lat="46.80349" lon="4.46879">
        <ele>352.7002</ele>
        <time>2020-02-18T15:52:42+01:00</time>
      </trkpt>
      <trkpt lat="46.80339" lon="4.4691">
        <ele>352.2002</ele>
        <time>2020-02-18T15:52:57+01:00</time>
      </trkpt>
      <trkpt lat="46.80328" lon="4.46952">
        <ele>351.6006</ele>
        <time>2020-02-18T15:53:17+01:00</time>
      </trkpt>
      <trkpt lat="46.80327" lon="4.46963">
        <ele>351.5</ele>
        <time>2020-02-18T15:53:22+01:00</time>
      </trkpt>
      <trkpt lat="46.80323" lon="4.46984">
        <ele>351.4004</ele>
        <time>2020-02-18T15:53:32+01:00</time>
      </trkpt>
      <trkpt lat="46.80323" lon="4.46995">
        <ele>351.1006</ele>
        <time>2020-02-18T15:53:37+01:00</time>
      </trkpt>
      <trkpt lat="46.80322" lon="4.47007">
        <ele>351.1006</ele>
        <time>2020-02-18T15:53:42+01:00</time>
      </trkpt>
      <trkpt lat="46.80321" lon="4.47018">
        <ele>351.1006</ele>
        <time>2020-02-18T15:53:47+01:00</time>
      </trkpt>
      <trkpt lat="46.80321" lon="4.47029">
        <ele>351.1006</ele>
        <time>2020-02-18T15:53:52+01:00</time>
      </trkpt>
      <trkpt lat="46.80321" lon="4.4704">
        <ele>351.1006</ele>
        <time>2020-02-18T15:53:57+01:00</time>
      </trkpt>
      <trkpt lat="46.8032" lon="4.47051">
        <ele>351</ele>
        <time>2020-02-18T15:54:02+01:00</time>
      </trkpt>
      <trkpt lat="46.8032" lon="4.47062">
        <ele>351</ele>
        <time>2020-02-18T15:54:07+01:00</time>
      </trkpt>
      <trkpt lat="46.80319" lon="4.47072">
        <ele>351</ele>
        <time>2020-02-18T15:54:12+01:00</time>
      </trkpt>
      <trkpt lat="46.80318" lon="4.47083">
        <ele>351</ele>
        <time>2020-02-18T15:54:17+01:00</time>
      </trkpt>
      <trkpt lat="46.80316" lon="4.47094">
        <ele>350.9004</ele>
        <time>2020-02-18T15:54:22+01:00</time>
      </trkpt>
      <trkpt lat="46.80314" lon="4.47104">
        <ele>351</ele>
        <time>2020-02-18T15:54:27+01:00</time>
      </trkpt>
      <trkpt lat="46.80303" lon="4.47133">
        <ele>351.2998</ele>
        <time>2020-02-18T15:54:42+01:00</time>
      </trkpt>
      <trkpt lat="46.80256" lon="4.47214">
        <ele>353.7002</ele>
        <time>2020-02-18T15:55:32+01:00</time>
      </trkpt>
      <trkpt lat="46.80246" lon="4.47228">
        <ele>354.1006</ele>
        <time>2020-02-18T15:55:42+01:00</time>
      </trkpt>
      <trkpt lat="46.80232" lon="4.47245">
        <ele>354.7002</ele>
        <time>2020-02-18T15:55:57+01:00</time>
      </trkpt>
      <trkpt lat="46.80227" lon="4.47253">
        <ele>354.9004</ele>
        <time>2020-02-18T15:56:02+01:00</time>
      </trkpt>
      <trkpt lat="46.80221" lon="4.47261">
        <ele>355</ele>
        <time>2020-02-18T15:56:07+01:00</time>
      </trkpt>
      <trkpt lat="46.80217" lon="4.47269">
        <ele>355.1006</ele>
        <time>2020-02-18T15:56:12+01:00</time>
      </trkpt>
      <trkpt lat="46.80208" lon="4.47288">
        <ele>355</ele>
        <time>2020-02-18T15:56:22+01:00</time>
      </trkpt>
      <trkpt lat="46.80203" lon="4.47297">
        <ele>355</ele>
        <time>2020-02-18T15:56:27+01:00</time>
      </trkpt>
      <trkpt lat="46.802" lon="4.47308">
        <ele>354.7998</ele>
        <time>2020-02-18T15:56:32+01:00</time>
      </trkpt>
      <trkpt lat="46.80194" lon="4.47341">
        <ele>354.2002</ele>
        <time>2020-02-18T15:56:47+01:00</time>
      </trkpt>
      <trkpt lat="46.80192" lon="4.47351">
        <ele>354.1006</ele>
        <time>2020-02-18T15:56:52+01:00</time>
      </trkpt>
      <trkpt lat="46.8019" lon="4.47362">
        <ele>354</ele>
        <time>2020-02-18T15:56:57+01:00</time>
      </trkpt>
      <trkpt lat="46.80188" lon="4.47373">
        <ele>353.7998</ele>
        <time>2020-02-18T15:57:02+01:00</time>
      </trkpt>
      <trkpt lat="46.80184" lon="4.47393">
        <ele>353.2998</ele>
        <time>2020-02-18T15:57:12+01:00</time>
      </trkpt>
      <trkpt lat="46.80178" lon="4.47424">
        <ele>352.7002</ele>
        <time>2020-02-18T15:57:27+01:00</time>
      </trkpt>
      <trkpt lat="46.80176" lon="4.47434">
        <ele>352.5</ele>
        <time>2020-02-18T15:57:32+01:00</time>
      </trkpt>
      <trkpt lat="46.80174" lon="4.47445">
        <ele>352.2002</ele>
        <time>2020-02-18T15:57:37+01:00</time>
      </trkpt>
      <trkpt lat="46.80172" lon="4.47456">
        <ele>352</ele>
        <time>2020-02-18T15:57:42+01:00</time>
      </trkpt>
      <trkpt lat="46.80171" lon="4.47467">
        <ele>351.7998</ele>
        <time>2020-02-18T15:57:47+01:00</time>
      </trkpt>
      <trkpt lat="46.80168" lon="4.47477">
        <ele>351.6006</ele>
        <time>2020-02-18T15:57:52+01:00</time>
      </trkpt>
      <trkpt lat="46.80163" lon="4.47508">
        <ele>351</ele>
        <time>2020-02-18T15:58:07+01:00</time>
      </trkpt>
      <trkpt lat="46.80162" lon="4.47519">
        <ele>350.9004</ele>
        <time>2020-02-18T15:58:12+01:00</time>
      </trkpt>
      <trkpt lat="46.80156" lon="4.47537">
        <ele>350.9004</ele>
        <time>2020-02-18T15:58:22+01:00</time>
      </trkpt>
      <trkpt lat="46.80145" lon="4.47564">
        <ele>350.7998</ele>
        <time>2020-02-18T15:58:37+01:00</time>
      </trkpt>
      <trkpt lat="46.80141" lon="4.47572">
        <ele>350.7002</ele>
        <time>2020-02-18T15:58:42+01:00</time>
      </trkpt>
      <trkpt lat="46.80134" lon="4.47591">
        <ele>350.2998</ele>
        <time>2020-02-18T15:58:52+01:00</time>
      </trkpt>
      <trkpt lat="46.80118" lon="4.47629">
        <ele>349.9004</ele>
        <time>2020-02-18T15:59:12+01:00</time>
      </trkpt>
      <trkpt lat="46.80102" lon="4.47666">
        <ele>349.6006</ele>
        <time>2020-02-18T15:59:32+01:00</time>
      </trkpt>
      <trkpt lat="46.80098" lon="4.47675">
        <ele>349.5</ele>
        <time>2020-02-18T15:59:37+01:00</time>
      </trkpt>
      <trkpt lat="46.80095" lon="4.47684">
        <ele>349.2998</ele>
        <time>2020-02-18T15:59:42+01:00</time>
      </trkpt>
      <trkpt lat="46.80086" lon="4.47703">
        <ele>349.1006</ele>
        <time>2020-02-18T15:59:52+01:00</time>
      </trkpt>
      <trkpt lat="46.80072" lon="4.47741">
        <ele>348.7998</ele>
        <time>2020-02-18T16:00:12+01:00</time>
      </trkpt>
      <trkpt lat="46.80069" lon="4.47749">
        <ele>348.6006</ele>
        <time>2020-02-18T16:00:17+01:00</time>
      </trkpt>
      <trkpt lat="46.80065" lon="4.47758">
        <ele>348.6006</ele>
        <time>2020-02-18T16:00:22+01:00</time>
      </trkpt>
      <trkpt lat="46.8006" lon="4.47766">
        <ele>348.5</ele>
        <time>2020-02-18T16:00:27+01:00</time>
      </trkpt>
      <trkpt lat="46.80052" lon="4.47781">
        <ele>348.4004</ele>
        <time>2020-02-18T16:00:37+01:00</time>
      </trkpt>
      <trkpt lat="46.80049" lon="4.4779">
        <ele>348.4004</ele>
        <time>2020-02-18T16:00:42+01:00</time>
      </trkpt>
      <trkpt lat="46.80042" lon="4.47806">
        <ele>348.5</ele>
        <time>2020-02-18T16:00:52+01:00</time>
      </trkpt>
      <trkpt lat="46.80039" lon="4.47815">
        <ele>348.4004</ele>
        <time>2020-02-18T16:00:57+01:00</time>
      </trkpt>
      <trkpt lat="46.80036" lon="4.47823">
        <ele>348.5</ele>
        <time>2020-02-18T16:01:02+01:00</time>
      </trkpt>
      <trkpt lat="46.80032" lon="4.4783">
        <ele>348.4004</ele>
        <time>2020-02-18T16:01:07+01:00</time>
      </trkpt>
      <trkpt lat="46.80028" lon="4.47839">
        <ele>348.5</ele>
        <time>2020-02-18T16:01:12+01:00</time>
      </trkpt>
      <trkpt lat="46.80025" lon="4.47846">
        <ele>348.5</ele>
        <time>2020-02-18T16:01:17+01:00</time>
      </trkpt>
      <trkpt lat="46.8002" lon="4.47855">
        <ele>348.5</ele>
        <time>2020-02-18T16:01:22+01:00</time>
      </trkpt>
      <trkpt lat="46.80012" lon="4.47876">
        <ele>348.6006</ele>
        <time>2020-02-18T16:01:32+01:00</time>
      </trkpt>
      <trkpt lat="46.80008" lon="4.47886">
        <ele>348.7002</ele>
        <time>2020-02-18T16:01:37+01:00</time>
      </trkpt>
      <trkpt lat="46.80004" lon="4.47895">
        <ele>348.6006</ele>
        <time>2020-02-18T16:01:42+01:00</time>
      </trkpt>
      <trkpt lat="46.8" lon="4.47904">
        <ele>348.7002</ele>
        <time>2020-02-18T16:01:47+01:00</time>
      </trkpt>
      <trkpt lat="46.79996" lon="4.47913">
        <ele>348.5</ele>
        <time>2020-02-18T16:01:52+01:00</time>
      </trkpt>
      <trkpt lat="46.7999" lon="4.4792">
        <ele>348.4004</ele>
        <time>2020-02-18T16:01:57+01:00</time>
      </trkpt>
      <trkpt lat="46.79983" lon="4.47926">
        <ele>348.2002</ele>
        <time>2020-02-18T16:02:02+01:00</time>
      </trkpt>
      <trkpt lat="46.79977" lon="4.47929">
        <ele>348</ele>
        <time>2020-02-18T16:02:07+01:00</time>
      </trkpt>
      <trkpt lat="46.7997" lon="4.47933">
        <ele>347.4004</ele>
        <time>2020-02-18T16:02:12+01:00</time>
      </trkpt>
      <trkpt lat="46.79956" lon="4.47936">
        <ele>346.7002</ele>
        <time>2020-02-18T16:02:22+01:00</time>
      </trkpt>
      <trkpt lat="46.79948" lon="4.4794">
        <ele>346.2998</ele>
        <time>2020-02-18T16:02:27+01:00</time>
      </trkpt>
      <trkpt lat="46.79942" lon="4.47942">
        <ele>345.9004</ele>
        <time>2020-02-18T16:02:32+01:00</time>
      </trkpt>
      <trkpt lat="46.79927" lon="4.47948">
        <ele>344.7002</ele>
        <time>2020-02-18T16:02:42+01:00</time>
      </trkpt>
      <trkpt lat="46.7992" lon="4.47949">
        <ele>344.2998</ele>
        <time>2020-02-18T16:02:47+01:00</time>
      </trkpt>
      <trkpt lat="46.79907" lon="4.47958">
        <ele>343.4004</ele>
        <time>2020-02-18T16:02:57+01:00</time>
      </trkpt>
      <trkpt lat="46.79887" lon="4.47965">
        <ele>341.7002</ele>
        <time>2020-02-18T16:03:12+01:00</time>
      </trkpt>
      <trkpt lat="46.79874" lon="4.47972">
        <ele>340.9004</ele>
        <time>2020-02-18T16:03:22+01:00</time>
      </trkpt>
      <trkpt lat="46.79867" lon="4.47976">
        <ele>340.5</ele>
        <time>2020-02-18T16:03:27+01:00</time>
      </trkpt>
      <trkpt lat="46.7986" lon="4.47979">
        <ele>340.2002</ele>
        <time>2020-02-18T16:03:32+01:00</time>
      </trkpt>
      <trkpt lat="46.79854" lon="4.47982">
        <ele>339.7998</ele>
        <time>2020-02-18T16:03:37+01:00</time>
      </trkpt>
      <trkpt lat="46.79839" lon="4.47985">
        <ele>338.6006</ele>
        <time>2020-02-18T16:03:47+01:00</time>
      </trkpt>
      <trkpt lat="46.79831" lon="4.47986">
        <ele>338.2998</ele>
        <time>2020-02-18T16:03:52+01:00</time>
      </trkpt>
      <trkpt lat="46.79816" lon="4.47991">
        <ele>337.4004</ele>
        <time>2020-02-18T16:04:02+01:00</time>
      </trkpt>
      <trkpt lat="46.7981" lon="4.47994">
        <ele>337.2002</ele>
        <time>2020-02-18T16:04:07+01:00</time>
      </trkpt>
      <trkpt lat="46.79802" lon="4.47996">
        <ele>337</ele>
        <time>2020-02-18T16:04:12+01:00</time>
      </trkpt>
      <trkpt lat="46.79778" lon="4.48005">
        <ele>336.2998</ele>
        <time>2020-02-18T16:04:27+01:00</time>
      </trkpt>
      <trkpt lat="46.7977" lon="4.48006">
        <ele>335.7002</ele>
        <time>2020-02-18T16:04:32+01:00</time>
      </trkpt>
      <trkpt lat="46.79762" lon="4.4801">
        <ele>335.4004</ele>
        <time>2020-02-18T16:04:37+01:00</time>
      </trkpt>
      <trkpt lat="46.79754" lon="4.48013">
        <ele>335.2002</ele>
        <time>2020-02-18T16:04:42+01:00</time>
      </trkpt>
      <trkpt lat="46.79749" lon="4.48019">
        <ele>335</ele>
        <time>2020-02-18T16:04:47+01:00</time>
      </trkpt>
      <trkpt lat="46.79744" lon="4.48023">
        <ele>334.9004</ele>
        <time>2020-02-18T16:04:52+01:00</time>
      </trkpt>
      <trkpt lat="46.79725" lon="4.48033">
        <ele>334.2998</ele>
        <time>2020-02-18T16:05:07+01:00</time>
      </trkpt>
      <trkpt lat="46.7971" lon="4.48039">
        <ele>333.6006</ele>
        <time>2020-02-18T16:05:17+01:00</time>
      </trkpt>
      <trkpt lat="46.79652" lon="4.48072">
        <ele>331.1006</ele>
        <time>2020-02-18T16:06:02+01:00</time>
      </trkpt>
      <trkpt lat="46.79632" lon="4.48087">
        <ele>330.6006</ele>
        <time>2020-02-18T16:06:17+01:00</time>
      </trkpt>
      <trkpt lat="46.79625" lon="4.48091">
        <ele>330.5</ele>
        <time>2020-02-18T16:06:22+01:00</time>
      </trkpt>
      <trkpt lat="46.79618" lon="4.48097">
        <ele>330.4004</ele>
        <time>2020-02-18T16:06:27+01:00</time>
      </trkpt>
      <trkpt lat="46.79612" lon="4.48103">
        <ele>330.2998</ele>
        <time>2020-02-18T16:06:32+01:00</time>
      </trkpt>
      <trkpt lat="46.79606" lon="4.48109">
        <ele>330.4004</ele>
        <time>2020-02-18T16:06:37+01:00</time>
      </trkpt>
      <trkpt lat="46.79588" lon="4.48127">
        <ele>330.6006</ele>
        <time>2020-02-18T16:06:52+01:00</time>
      </trkpt>
      <trkpt lat="46.79554" lon="4.48168">
        <ele>332.7998</ele>
        <time>2020-02-18T16:07:22+01:00</time>
      </trkpt>
      <trkpt lat="46.79549" lon="4.48175">
        <ele>333.4004</ele>
        <time>2020-02-18T16:07:27+01:00</time>
      </trkpt>
      <trkpt lat="46.79532" lon="4.48219">
        <ele>336.1006</ele>
        <time>2020-02-18T16:07:52+01:00</time>
      </trkpt>
      <trkpt lat="46.79529" lon="4.48227">
        <ele>336.5</ele>
        <time>2020-02-18T16:07:57+01:00</time>
      </trkpt>
      <trkpt lat="46.79527" lon="4.48237">
        <ele>336.7998</ele>
        <time>2020-02-18T16:08:02+01:00</time>
      </trkpt>
      <trkpt lat="46.7952" lon="4.48255">
        <ele>337.2002</ele>
        <time>2020-02-18T16:08:12+01:00</time>
      </trkpt>
      <trkpt lat="46.79514" lon="4.48273">
        <ele>337.2998</ele>
        <time>2020-02-18T16:08:22+01:00</time>
      </trkpt>
      <trkpt lat="46.79512" lon="4.48283">
        <ele>337.2998</ele>
        <time>2020-02-18T16:08:27+01:00</time>
      </trkpt>
      <trkpt lat="46.79509" lon="4.48291">
        <ele>337.2998</ele>
        <time>2020-02-18T16:08:32+01:00</time>
      </trkpt>
      <trkpt lat="46.79505" lon="4.48299">
        <ele>337.2002</ele>
        <time>2020-02-18T16:08:37+01:00</time>
      </trkpt>
      <trkpt lat="46.79502" lon="4.48309">
        <ele>337.1006</ele>
        <time>2020-02-18T16:08:42+01:00</time>
      </trkpt>
      <trkpt lat="46.79498" lon="4.48317">
        <ele>337</ele>
        <time>2020-02-18T16:08:47+01:00</time>
      </trkpt>
      <trkpt lat="46.79495" lon="4.48326">
        <ele>336.9004</ele>
        <time>2020-02-18T16:08:52+01:00</time>
      </trkpt>
      <trkpt lat="46.79492" lon="4.48335">
        <ele>336.7002</ele>
        <time>2020-02-18T16:08:57+01:00</time>
      </trkpt>
      <trkpt lat="46.79485" lon="4.48352">
        <ele>336.2998</ele>
        <time>2020-02-18T16:09:07+01:00</time>
      </trkpt>
      <trkpt lat="46.7948" lon="4.48369">
        <ele>335.7998</ele>
        <time>2020-02-18T16:09:17+01:00</time>
      </trkpt>
      <trkpt lat="46.79473" lon="4.48394">
        <ele>334.7002</ele>
        <time>2020-02-18T16:09:32+01:00</time>
      </trkpt>
      <trkpt lat="46.7947" lon="4.48402">
        <ele>334.2002</ele>
        <time>2020-02-18T16:09:37+01:00</time>
      </trkpt>
      <trkpt lat="46.79468" lon="4.48409">
        <ele>333.9004</ele>
        <time>2020-02-18T16:09:44+01:00</time>
      </trkpt>
    </trkseg>
  </trk>
</gpx>